ECMWFNIL_sfc_thetae_000.txt.gz
Theta_e
335 335 336 336 335 336 335 334 334 334 336 337 337 337 337 338 340 339 338 338 338 339 339 339 340 340 341 342 343 343 342 343 345 347 346 345 342 341 341 341 342 343
334 336 338 336 334 335 334 333 333 334 334 334 335 335 336 337 338 339 338 338 339 338 339 340 340 341 341 341 342 343 343 344 344 347 345 345 344 345 344 344 342 343
332 333 333 332 332 332 332 333 333 333 334 334 335 335 335 337 337 338 338 337 338 338 338 339 339 340 340 340 340 341 340 342 342 345 345 344 345 344 343 343 341 341
332 331 332 332 331 331 332 332 333 333 333 333 334 335 336 337 337 336 336 338 336 336 337 337 337 338 339 339 339 340 340 341 341 342 342 344 345 344 343 343 342 340
331 331 330 330 330 332 331 331 331 332 332 333 333 335 336 335 334 335 335 335 335 335 335 336 337 337 338 338 338 337 338 337 339 340 340 340 342 342 341 341 340 338
328 329 330 330 330 330 330 330 331 331 331 332 333 334 334 335 334 334 334 334 334 335 334 335 335 336 337 338 337 336 336 336 337 338 338 337 339 341 341 339 338 337
327 327 328 328 328 329 330 329 329 332 331 331 333 332 334 334 334 334 333 334 334 335 334 334 334 335 336 337 335 335 336 336 337 337 336 337 337 338 339 339 338 337
326 327 327 327 327 327 328 328 328 329 330 331 331 332 333 334 334 334 335 334 334 335 335 335 335 335 335 336 334 335 335 336 336 335 334 334 336 335 337 338 339 337
325 326 326 326 326 327 327 328 328 329 330 330 330 331 333 334 334 335 334 333 333 335 335 335 335 335 335 335 335 334 333 334 335 336 335 333 333 334 335 336 336 336
326 326 325 325 326 327 327 328 328 328 330 330 330 332 332 334 335 335 333 332 333 334 334 333 334 334 334 334 333 333 333 335 335 333 334 334 334 334 335 336 335 335
326 326 326 326 326 327 328 329 328 328 330 330 330 330 332 333 335 335 333 332 332 332 332 333 334 333 330 330 331 332 332 333 333 333 333 334 335 335 334 335 336 336
326 326 326 326 327 328 329 329 329 329 329 330 330 330 331 333 334 334 334 333 332 331 331 331 330 330 330 330 330 332 333 333 332 334 335 334 334 334 336 335 335 338
325 325 326 325 327 328 329 329 329 329 329 329 330 331 331 332 334 335 336 333 332 331 330 330 330 329 329 331 333 333 331 330 331 332 333 333 333 333 335 336 336 338
324 324 325 326 327 329 330 329 329 328 328 329 330 329 331 331 332 333 333 334 333 333 333 333 330 329 330 331 332 331 330 328 328 329 331 332 334 333 333 335 336 336
324 325 326 327 329 329 329 328 328 327 328 328 329 330 331 332 333 332 331 332 333 334 332 332 331 330 331 330 328 328 328 326 326 326 328 330 332 334 334 334 335 335
324 325 326 326 326 327 328 328 327 327 328 328 329 330 330 331 331 331 331 332 333 332 331 331 330 329 326 320 320 327 325 324 323 324 326 328 330 331 334 335 334 333
323 324 325 325 326 326 327 327 326 326 327 327 328 329 329 329 331 330 330 332 333 332 330 329 329 329 322 320 322 321 323 324 324 324 325 327 328 329 331 333 335 336
324 324 324 325 325 325 325 325 326 326 326 327 328 328 329 330 329 329 330 330 332 331 329 328 327 323 320 320 322 319 318 325 325 326 327 327 327 328 331 333 334 336
324 323 323 324 324 324 324 325 325 325 326 327 327 328 329 328 328 329 329 330 332 330 327 326 325 322 320 318 319 317 320 324 329 329 328 325 328 329 331 333 335 336
323 323 323 323 324 323 324 324 324 325 326 326 328 328 327 326 327 328 329 329 331 332 330 327 326 322 318 318 316 315 317 324 328 327 326 324 322 322 323 322 324 325
323 322 322 322 323 323 323 323 324 325 325 326 327 327 327 327 327 327 328 330 331 331 331 332 330 319 316 316 314 313 314 322 327 325 323 323 321 321 320 320 319 320
322 322 322 322 322 322 323 324 324 324 324 326 329 328 328 328 328 327 327 328 329 330 332 331 329 319 316 314 313 313 316 327 326 323 321 321 321 320 320 319 319 320
323 322 322 322 323 322 322 323 323 324 325 328 327 327 327 326 325 326 327 328 328 330 331 330 329 323 316 312 311 312 316 327 325 323 321 320 320 321 320 319 319 320
323 322 322 323 322 322 322 323 324 325 325 328 327 326 326 326 326 326 327 328 329 330 331 330 327 323 315 312 310 312 312 326 326 322 320 319 319 319 319 319 319 321
322 322 322 322 322 322 322 323 324 325 328 328 326 325 325 325 327 326 324 324 327 328 330 331 327 323 318 314 310 310 316 325 326 323 320 319 318 317 318 318 318 318
323 326 326 324 323 322 322 323 326 328 327 325 324 324 324 326 325 323 321 322 325 328 329 329 329 330 329 315 310 309 311 319 326 322 320 319 319 318 316 316 317 317

ECMWFNIL_sfc_thetae_003.txt.gz
Theta_e
348 349 346 345 344 343 342 341 340 339 340 340 339 340 340 342 344 343 343 343 344 343 343 343 343 343 344 346 346 346 346 344 342 342 343 346 345 343 340 340 338 340
347 347 347 346 345 345 343 341 340 339 339 340 341 340 342 342 342 342 341 341 341 341 341 341 342 343 342 341 343 343 344 342 339 342 340 341 344 345 343 343 343 342
345 344 343 341 339 339 340 341 341 341 341 340 341 342 341 342 342 343 342 341 340 340 340 340 341 341 340 340 340 342 339 341 339 344 345 343 342 342 339 340 342 340
344 345 343 340 340 339 340 340 341 341 341 340 340 341 341 342 342 342 342 342 341 341 340 339 339 339 339 340 341 340 340 340 342 344 338 339 341 344 342 344 343 341
343 344 342 341 340 341 341 340 338 339 340 340 341 342 342 341 341 341 341 341 341 339 338 338 338 338 340 339 339 338 338 337 338 340 340 339 338 337 343 343 341 340
343 343 342 341 341 341 340 340 339 338 339 338 340 341 341 341 341 341 341 340 340 339 338 339 338 338 338 338 338 337 337 335 336 336 335 335 337 340 338 340 339 337
339 341 340 341 341 341 341 341 341 340 339 340 341 341 341 341 341 341 342 341 340 339 339 339 338 338 338 338 338 337 336 337 337 335 335 335 337 338 340 340 340 336
341 342 341 341 341 342 342 341 341 340 340 340 340 341 342 340 341 342 342 342 341 341 340 339 339 340 340 339 337 335 335 335 335 335 335 335 335 335 337 338 340 339
343 341 342 342 341 342 341 339 340 341 341 339 339 339 340 341 340 340 341 342 341 341 340 340 339 339 339 338 336 335 334 334 333 333 332 331 332 333 333 333 335 339
341 341 341 340 339 340 340 340 339 340 342 340 340 340 339 340 341 341 341 340 339 340 339 340 338 338 336 336 337 336 335 334 333 332 332 331 331 332 333 334 335 335
339 340 339 339 340 337 338 337 335 336 340 341 340 339 340 340 340 341 340 340 337 339 340 340 338 336 335 336 336 338 337 334 334 335 334 334 334 334 331 334 333 334
337 338 338 339 339 339 339 339 340 342 342 340 341 339 340 340 341 341 341 340 340 341 342 341 338 337 336 335 335 334 334 334 334 333 333 333 333 334 333 334 333 334
336 336 339 338 340 340 342 341 340 338 337 338 338 338 337 338 340 341 341 341 341 341 341 340 338 337 335 334 335 335 334 332 331 330 330 330 331 331 332 332 335 334
336 338 340 341 340 342 342 343 342 342 342 341 340 338 337 338 339 340 341 341 341 341 341 341 339 336 335 335 336 335 332 330 330 329 329 329 329 330 331 332 334 335
339 340 341 341 341 342 342 342 342 342 342 341 340 340 339 340 341 341 340 340 341 341 340 340 338 335 334 334 332 332 330 328 328 329 329 328 329 329 329 330 332 335
341 342 341 341 341 340 341 341 340 341 340 339 339 339 340 341 342 342 340 339 339 340 339 338 338 335 329 317 319 328 329 327 328 328 329 328 328 326 325 325 329 333
342 341 341 340 340 340 340 340 340 339 339 339 339 340 341 341 341 340 339 339 339 338 338 336 336 335 322 319 321 320 325 328 328 327 327 327 326 324 322 323 323 325
340 341 340 339 339 339 340 340 339 338 338 339 339 340 340 341 340 340 340 340 339 339 338 336 336 328 320 319 320 319 318 327 329 328 326 326 325 324 323 322 322 323
340 339 339 339 339 339 340 339 338 338 338 339 338 339 339 340 340 339 339 340 340 339 337 336 336 328 321 318 319 317 318 323 329 328 326 325 324 323 322 321 321 321
340 339 338 338 339 339 338 338 338 337 338 338 338 339 339 339 340 340 340 340 340 339 338 337 336 326 319 318 316 315 316 322 329 327 326 325 323 322 321 321 321 320
339 339 338 338 339 338 337 337 337 338 338 338 337 337 338 339 339 339 338 338 338 338 339 338 337 323 319 315 313 312 314 320 330 328 327 326 325 323 322 321 321 320
339 339 339 338 338 338 337 336 337 338 337 338 338 338 340 341 341 340 338 337 337 338 338 338 339 322 316 314 313 313 315 330 330 328 327 325 324 324 322 322 322 322
339 338 338 338 337 336 336 335 336 335 336 339 337 337 337 338 339 338 339 337 337 338 339 339 339 330 315 312 313 311 316 332 330 327 326 325 324 324 324 322 321 321
339 338 337 336 337 336 335 335 335 336 337 338 336 335 335 336 337 338 339 339 336 335 334 335 334 330 316 311 311 313 314 330 330 328 326 325 324 324 323 322 322 322
338 338 337 336 336 336 336 334 335 335 336 337 335 335 336 338 338 338 337 337 334 334 334 333 333 329 319 313 312 312 320 333 331 329 326 324 323 322 324 323 322 321
339 338 338 338 337 338 337 336 336 336 335 334 334 334 333 334 337 336 335 333 333 335 332 335 333 334 336 318 313 311 313 327 333 329 326 324 323 323 322 322 322 321

ECMWFNIL_sfc_thetae_006.txt.gz
Theta_e
345 345 342 342 342 342 342 341 341 341 342 341 340 341 341 342 344 344 343 344 344 344 343 344 344 344 345 345 345 346 346 346 347 346 344 344 340 339 339 340 344 345
344 343 344 342 343 343 343 342 342 342 342 342 342 341 342 342 341 342 342 342 342 342 344 343 343 344 343 342 343 343 344 345 344 347 346 346 343 344 341 343 343 345
343 342 341 340 339 339 339 342 343 342 341 341 342 342 340 341 341 342 344 342 342 343 346 343 342 342 341 342 342 343 343 343 344 345 346 345 346 344 344 342 343 342
344 343 341 340 340 339 340 341 342 342 342 340 340 340 340 342 343 343 343 343 343 343 342 341 341 341 341 342 341 341 343 343 342 344 343 343 343 344 345 345 344 343
342 342 342 341 340 341 341 341 341 341 341 340 341 341 341 342 342 341 342 342 343 342 340 340 340 340 340 340 340 339 340 339 339 340 339 338 339 342 342 342 343 343
342 342 342 340 341 340 339 339 340 340 340 340 340 340 340 340 341 341 341 341 339 339 340 340 340 339 339 340 341 339 338 336 337 337 336 337 337 338 338 338 338 338
341 342 341 340 340 340 340 340 340 341 340 340 342 341 341 340 340 341 342 342 343 343 343 343 342 340 341 342 341 339 339 339 338 338 337 336 336 337 338 338 336 336
341 340 340 340 338 338 339 339 339 339 340 341 340 340 341 340 342 341 342 342 342 343 344 345 344 342 341 342 341 340 341 341 340 339 338 337 338 336 336 334 335 334
341 340 339 339 338 337 336 334 334 336 338 339 338 338 340 340 340 340 341 343 344 344 345 345 345 344 341 339 340 341 339 339 339 339 337 336 334 334 335 337 337 337
341 341 339 336 334 336 335 334 333 335 336 336 337 337 337 340 341 342 342 343 344 345 345 345 344 343 342 341 341 340 338 336 338 338 337 333 331 332 332 333 333 332
340 339 336 336 335 333 334 333 332 332 334 335 336 336 338 339 340 342 344 345 344 344 344 344 343 343 343 343 342 340 339 338 338 337 334 333 331 330 329 332 334 333
339 338 336 335 335 334 334 335 335 335 334 332 333 332 334 335 337 337 343 343 344 344 344 344 345 345 345 344 341 340 339 338 337 335 333 331 330 329 329 331 333 333
337 336 336 335 335 335 335 334 333 332 331 331 331 331 331 332 335 337 339 344 344 345 344 343 344 344 345 344 342 339 337 336 334 334 332 331 330 328 328 330 331 331
337 336 336 336 336 337 336 335 335 335 335 335 334 331 330 331 332 335 337 341 342 343 344 346 345 345 345 344 342 338 337 335 335 334 332 330 329 328 329 329 329 329
338 337 337 336 336 336 336 336 336 336 335 335 334 334 333 334 336 336 338 340 342 343 345 345 344 343 344 343 338 336 336 334 334 332 331 330 328 327 327 328 328 327
338 338 337 337 336 336 337 337 336 335 333 333 333 332 333 335 338 339 339 339 338 339 343 344 344 344 338 327 328 334 334 334 333 332 332 331 329 325 325 326 326 326
339 338 338 336 337 336 337 338 338 335 334 333 333 334 336 338 339 338 337 337 338 339 341 342 343 343 330 325 324 324 333 334 333 331 331 331 330 326 323 323 323 324
338 338 337 336 336 337 338 339 339 335 334 334 333 333 335 336 335 336 338 339 340 339 339 341 341 336 325 323 324 324 325 334 332 331 331 331 329 326 323 322 322 322
339 337 336 336 337 337 339 340 340 335 333 332 331 333 334 334 335 335 336 338 339 338 337 337 338 331 323 322 323 322 322 327 333 332 331 331 330 329 325 323 323 322
339 337 336 336 337 338 339 340 338 333 333 332 331 333 333 333 334 334 337 338 336 335 336 337 338 329 323 322 320 319 320 324 333 331 331 331 331 330 326 325 324 323
338 337 337 337 338 339 341 339 335 333 333 332 331 331 331 332 333 334 335 335 334 332 332 332 332 326 323 321 319 316 317 321 333 332 333 332 332 331 329 327 325 324
337 337 338 339 339 340 339 336 333 332 332 333 334 332 333 333 334 334 335 336 335 333 331 331 330 322 321 320 318 316 317 331 333 333 334 333 332 331 330 329 328 327
337 336 336 337 337 337 338 335 331 331 331 333 333 332 330 329 330 329 332 334 334 333 330 331 333 326 317 316 315 315 318 334 330 330 333 333 333 332 331 330 328 328
338 337 336 335 336 336 335 333 330 331 332 335 332 330 329 329 328 330 332 333 331 331 329 331 329 325 312 311 310 313 320 334 333 330 332 333 334 334 333 331 330 328
337 337 336 335 335 334 334 332 332 332 333 336 334 330 330 332 330 330 331 333 330 328 330 327 329 325 312 310 310 313 322 337 335 333 333 333 332 334 334 331 330 329
338 338 338 336 335 335 336 335 337 335 334 335 333 330 329 330 330 330 329 329 330 330 328 328 330 332 330 311 310 310 313 335 338 335 332 332 333 334 333 330 331 330

ECMWFNIL_sfc_thetae_009.txt.gz
Theta_e
344 346 343 342 342 343 342 341 340 340 340 340 341 342 343 344 346 346 345 345 345 344 344 344 345 345 344 344 344 343 343 344 345 344 343 344 345 345 343 342 345 346
345 345 344 343 342 342 343 342 341 341 342 343 343 344 344 345 344 344 344 344 344 343 344 344 343 343 343 342 342 342 343 344 345 345 343 343 344 344 343 343 344 343
344 344 344 343 341 341 339 340 341 343 342 343 344 344 342 343 343 344 344 344 343 343 344 344 342 342 341 341 341 341 341 342 344 343 342 343 343 342 343 342 342 342
345 344 342 342 341 340 341 340 341 343 343 342 341 341 341 342 343 343 342 343 343 343 342 342 342 341 340 341 341 340 341 341 340 342 340 340 340 340 340 340 339 339
345 345 344 343 342 341 340 340 340 340 342 341 341 342 342 343 342 341 341 341 342 341 340 339 340 339 340 339 340 340 339 337 337 338 336 336 339 339 338 338 338 336
345 343 344 342 342 342 340 339 339 339 340 340 341 341 341 341 341 341 341 341 339 338 339 340 340 340 339 339 340 341 339 337 337 339 339 340 339 340 339 339 338 337
344 344 344 343 343 342 340 340 341 340 339 341 342 341 341 340 340 341 342 341 341 342 341 343 342 342 342 340 340 339 339 340 340 340 340 339 339 339 339 336 333 332
344 343 343 343 342 341 340 339 339 338 341 342 339 340 341 339 340 339 340 340 340 341 342 343 344 343 342 340 338 337 338 340 338 338 338 338 339 336 333 332 332 330
343 342 342 342 340 339 337 337 335 337 337 337 338 338 340 339 338 339 340 341 342 342 344 345 345 344 344 343 341 340 341 340 338 338 337 337 335 333 332 332 331 330
343 342 341 339 337 338 337 336 334 334 335 336 335 334 334 339 339 339 339 339 339 341 344 346 345 345 345 344 341 341 341 341 339 339 338 336 334 333 332 331 330 331
341 341 340 340 338 334 335 334 332 332 334 334 335 336 337 336 337 338 338 338 336 342 345 346 345 343 342 342 341 340 340 340 339 338 337 335 334 333 331 330 331 331
341 341 339 338 337 336 335 336 335 334 334 333 332 332 333 332 333 334 335 336 337 337 345 346 346 345 344 343 341 339 340 340 339 338 335 335 333 332 330 331 330 330
339 340 339 337 337 337 338 336 334 333 333 334 334 333 333 332 332 334 335 335 336 336 340 343 343 344 344 343 343 343 342 341 339 338 336 334 332 331 330 331 330 329
338 339 338 338 337 339 337 337 336 337 337 337 337 335 332 332 331 332 333 334 335 337 340 343 342 341 341 341 341 342 341 339 338 337 335 331 332 332 331 329 329 328
340 340 339 338 337 338 338 338 337 338 337 337 337 336 334 333 334 333 334 335 336 339 342 343 341 338 340 340 341 342 341 338 336 334 332 330 331 331 330 329 329 329
341 342 340 339 338 338 339 338 337 337 338 338 336 335 335 335 336 336 334 335 337 337 340 340 339 339 340 334 336 340 337 335 334 334 331 330 330 330 329 329 328 329
342 341 341 339 339 339 338 338 338 339 340 339 337 336 336 336 335 334 333 333 335 337 337 338 338 339 330 328 328 330 334 335 334 332 331 330 329 330 329 329 329 331
340 340 340 339 339 339 339 339 339 339 340 340 336 335 335 335 333 333 334 335 337 337 338 337 337 335 324 325 327 326 330 334 334 333 330 329 329 330 331 330 329 330
341 340 339 339 339 339 339 339 340 339 341 340 336 335 335 334 334 334 334 335 336 337 338 337 336 326 323 324 325 324 325 329 334 334 330 328 329 330 330 331 331 330
340 340 338 339 339 339 339 339 339 340 341 338 335 335 334 333 333 335 336 335 336 336 333 334 334 327 321 322 323 322 323 326 334 335 332 330 330 330 331 332 332 331
339 338 338 338 339 339 339 339 341 342 340 336 333 333 333 335 335 335 334 334 336 334 335 334 333 323 318 320 319 319 320 324 335 335 334 332 333 333 333 333 333 333
338 338 338 339 338 339 338 339 341 342 338 336 334 333 335 334 333 332 333 332 333 335 334 333 333 324 319 318 318 318 320 332 335 337 334 331 330 332 334 334 336 335
338 338 338 337 337 336 336 336 338 340 337 335 333 334 333 331 332 332 334 333 333 333 332 332 331 328 320 315 315 317 321 335 336 336 334 330 330 330 332 335 337 338
339 339 338 337 337 334 334 335 336 338 335 335 333 333 330 330 332 332 333 333 332 332 331 329 328 325 317 313 312 314 320 332 331 334 333 332 328 331 334 336 338 331
339 339 338 337 335 334 334 334 335 336 336 336 335 334 332 333 332 332 332 333 331 331 332 330 329 326 319 316 314 314 319 331 330 332 331 328 327 330 331 334 337 335
340 340 339 337 335 334 335 335 335 335 336 335 335 334 331 329 330 331 331 331 332 331 330 331 332 333 330 317 313 313 315 326 331 329 331 331 330 326 330 330 329 329

ECMWFNIL_sfc_thetae_012.txt.gz
Theta_e
348 349 348 346 351 347 345 344 344 345 345 347 346 346 349 348 350 349 348 349 349 348 349 349 349 348 346 348 348 347 346 345 345 347 345 343 343 341 340 341 341 343
348 348 348 349 349 349 348 347 346 344 346 347 348 350 350 349 347 347 348 347 347 347 348 347 348 348 347 346 347 346 347 345 344 344 343 342 343 342 341 340 339 342
347 348 347 344 344 344 343 345 347 344 346 347 347 347 346 347 347 348 348 347 346 346 347 347 346 347 346 346 346 345 343 344 342 344 344 343 343 341 341 338 338 338
349 348 347 345 347 344 345 345 346 347 346 347 346 346 344 345 346 345 346 346 346 345 346 345 345 345 345 346 345 346 343 345 343 344 343 342 342 341 340 340 340 338
349 348 348 347 347 348 347 343 342 342 343 347 345 347 348 349 347 344 344 344 345 343 343 344 344 343 346 344 345 343 344 344 344 344 343 340 342 341 340 340 339 336
350 350 350 348 347 348 345 343 343 342 343 339 344 345 346 346 346 344 343 341 340 340 341 342 343 343 343 344 344 343 343 342 342 343 341 340 340 341 340 340 337 333
346 347 345 345 345 345 345 345 345 345 342 342 345 345 345 343 343 344 345 343 341 343 342 343 344 344 345 345 344 343 343 343 341 342 340 339 340 339 339 337 336 334
346 345 346 347 345 346 345 344 344 344 346 347 342 344 346 342 344 344 344 344 341 342 343 343 344 345 343 343 344 342 341 340 341 340 339 338 339 338 338 336 335 333
348 346 346 346 345 344 339 338 338 341 341 340 340 341 346 346 344 343 345 344 342 342 343 343 343 343 344 343 344 343 342 342 342 341 340 338 337 337 336 336 334 333
347 347 344 340 338 340 337 337 336 337 338 342 342 339 340 345 344 342 342 343 342 342 342 342 344 345 344 342 341 341 340 340 341 341 339 338 337 336 334 334 332 331
343 343 342 342 340 335 335 334 333 333 339 337 339 339 340 341 345 347 345 344 341 342 342 341 341 344 340 339 340 341 341 339 339 340 339 338 338 336 333 334 333 330
344 343 341 341 340 339 338 338 337 339 335 333 340 335 341 337 340 341 340 342 343 342 341 342 344 342 340 338 338 339 341 341 339 338 338 338 337 334 333 334 332 331
342 343 343 340 343 342 342 338 334 333 332 335 335 335 333 334 335 337 341 340 340 341 342 342 343 343 342 340 339 338 338 338 337 336 336 336 336 333 331 331 330 331
342 344 343 345 344 347 343 343 341 342 343 343 340 336 334 335 333 335 336 337 338 338 340 341 342 344 342 340 339 337 336 334 337 337 333 334 334 333 332 330 330 330
346 344 345 345 344 344 343 343 343 343 343 342 342 340 338 336 336 336 337 338 338 338 340 341 343 340 340 340 339 337 336 335 336 335 333 332 332 331 331 331 331 331
346 346 346 346 343 342 343 343 341 342 340 341 341 339 340 340 341 340 335 334 336 338 339 339 337 334 339 334 333 338 337 336 337 337 335 334 332 331 330 330 330 330
345 345 345 344 343 342 343 342 342 342 342 342 342 342 342 342 339 338 333 334 334 334 335 338 336 336 330 327 328 331 335 338 338 337 336 334 333 330 329 329 330 331
344 345 344 343 343 343 343 343 342 342 342 342 342 341 342 342 338 338 338 337 336 335 336 339 338 333 324 325 327 328 332 337 337 336 334 334 333 331 329 329 329 329
345 344 343 343 343 343 343 343 343 342 342 341 340 342 342 341 341 338 337 339 338 339 337 337 338 332 324 324 324 325 326 329 335 335 334 334 334 332 330 330 331 331
343 343 342 342 343 343 343 343 342 341 341 340 341 343 341 339 338 337 338 339 340 338 338 337 337 331 324 322 321 322 323 327 333 334 335 334 333 333 332 331 332 332
343 342 342 342 343 343 343 342 342 342 342 341 340 340 339 340 338 339 339 337 337 337 338 336 336 326 321 320 318 317 319 324 331 333 334 333 333 332 332 332 333 331
342 341 342 342 342 342 342 341 342 343 342 344 343 339 338 337 338 338 336 335 336 335 333 334 332 321 318 318 316 316 318 327 331 334 334 333 332 331 332 334 332 331
341 341 341 342 342 341 341 340 342 342 343 345 341 338 335 335 336 334 335 335 334 335 335 335 333 328 319 316 315 315 320 332 334 333 333 332 331 332 333 331 329 330
343 342 342 342 341 340 340 341 340 341 341 344 340 336 333 332 334 334 334 335 334 333 329 331 331 327 314 313 315 315 320 329 333 333 332 332 331 332 333 333 331 330
343 343 342 341 341 340 339 339 340 340 342 344 339 336 335 337 335 333 332 333 330 329 335 331 330 325 315 319 316 314 322 330 333 333 331 331 331 332 333 333 332 332
343 344 344 341 341 342 343 341 341 339 338 337 338 336 334 335 334 332 330 330 329 330 329 332 330 332 332 318 315 313 315 328 333 332 329 329 330 330 329 330 330 331

ECMWFNIL_sfc_thetae_015.txt.gz
Theta_e
339 338 340 341 337 340 338 336 338 336 335 335 336 338 338 340 343 340 341 342 342 341 341 341 342 340 343 339 339 339 339 337 338 337 337 337 335 335 335 333 333 333
339 341 344 341 345 343 340 336 335 334 335 336 337 338 340 341 340 340 341 341 341 340 340 340 340 340 339 338 337 336 335 336 335 342 336 335 335 334 334 334 332 332
337 340 339 336 336 338 337 337 337 337 333 335 339 338 338 341 340 340 339 339 338 339 339 340 339 339 339 338 337 337 335 334 334 336 336 334 334 333 332 334 332 332
338 339 339 337 336 336 340 338 336 335 334 336 336 341 341 340 337 337 338 345 339 338 338 339 338 337 337 337 337 335 335 335 335 334 334 334 334 334 333 333 335 332
338 338 340 339 339 340 339 334 335 334 335 337 338 337 339 338 337 337 337 337 337 337 336 337 337 337 337 336 336 334 335 335 336 335 333 331 332 334 334 334 332 331
341 338 339 337 338 338 336 333 332 332 332 335 334 338 336 338 336 335 335 335 335 335 335 335 336 337 337 336 336 336 336 336 336 335 334 333 334 335 336 334 331 329
339 340 339 339 339 337 336 335 335 339 334 333 334 335 336 335 334 335 335 336 335 335 335 334 335 335 337 337 336 336 336 336 335 335 334 333 334 334 334 333 331 328
339 338 339 337 336 337 336 336 336 335 335 335 333 333 336 335 335 336 337 336 335 334 334 335 335 335 337 337 336 336 335 338 336 334 333 333 332 331 332 334 330 328
339 338 337 338 336 337 337 337 337 335 336 335 334 334 336 336 335 336 335 335 334 334 333 334 336 336 336 335 335 335 335 335 337 335 334 333 332 331 330 330 328 328
338 339 339 338 337 337 336 336 335 334 336 334 333 332 332 334 336 335 335 334 334 334 334 334 335 336 336 336 335 333 333 333 333 334 334 334 333 331 330 330 328 326
338 339 338 336 335 335 335 334 333 332 333 332 332 331 332 331 334 335 332 332 334 333 333 333 334 336 336 334 334 334 335 335 333 332 332 332 332 332 335 330 329 327
338 338 336 335 335 335 334 332 332 331 329 330 331 331 331 332 331 332 334 331 333 334 334 333 333 336 334 334 334 334 335 334 334 333 332 330 330 331 330 328 328 326
337 336 336 335 336 334 334 333 332 329 329 332 332 332 331 330 330 329 330 331 332 333 334 334 335 337 334 332 333 333 333 332 331 331 331 330 329 329 330 328 327 326
337 337 336 336 336 336 335 333 332 332 333 334 334 330 330 329 330 330 330 332 331 331 331 332 331 335 334 334 332 332 332 331 330 331 331 330 329 329 329 328 326 326
337 337 337 336 337 335 334 333 333 332 333 333 331 332 335 332 332 331 330 330 330 331 331 332 335 332 332 331 333 333 332 330 330 330 330 329 328 327 327 327 326 326
337 338 337 336 335 333 332 331 331 331 332 332 332 333 332 334 333 333 332 331 329 329 332 334 333 333 336 336 335 335 331 332 332 331 330 329 329 328 327 327 326 326
337 336 336 335 334 333 332 333 332 333 333 332 332 333 334 334 335 333 331 330 329 328 327 331 332 334 332 329 329 332 332 330 330 330 331 331 329 327 326 326 326 326
334 335 334 334 333 332 332 332 333 333 332 332 333 333 334 335 334 333 332 331 331 329 329 332 332 334 326 326 327 327 330 330 330 330 332 330 328 328 327 326 325 325
335 335 333 333 333 332 332 333 332 332 332 333 333 335 335 334 334 334 332 331 331 329 330 334 333 332 325 324 324 324 325 327 328 329 329 329 328 328 327 326 325 326
335 334 334 333 334 333 333 333 333 332 333 333 334 335 335 335 334 332 331 330 330 329 330 330 330 330 325 322 321 321 322 325 325 326 328 328 329 329 329 327 327 326
335 334 334 334 334 334 334 333 333 333 333 334 334 333 334 333 332 330 330 330 331 332 330 332 334 329 323 321 318 317 318 322 322 325 326 327 328 329 328 327 326 327
335 334 334 334 334 333 333 333 333 333 333 334 335 334 334 333 332 332 330 329 329 330 330 330 332 326 322 320 318 317 319 323 322 323 324 326 327 328 328 327 327 327
335 334 333 333 334 333 333 333 333 333 333 335 335 335 334 333 331 330 330 329 328 329 328 327 329 320 315 316 316 315 318 323 324 326 326 327 327 327 327 327 327 326
336 335 334 334 334 334 333 333 334 334 335 337 335 334 333 332 331 327 329 328 327 326 328 327 326 321 315 314 313 315 320 321 321 324 325 326 326 326 326 327 328 334
338 336 335 334 334 334 334 334 334 334 335 336 336 335 333 330 329 327 328 327 329 329 330 329 328 323 312 312 312 312 317 322 323 323 324 325 325 326 326 327 327 330
338 337 335 334 334 334 335 335 335 334 334 334 334 333 330 327 325 327 326 326 326 328 328 328 329 328 327 314 312 311 315 321 324 323 324 325 324 325 325 325 324 324

ECMWFNIL_sfc_thetae_018.txt.gz
Theta_e
334 333 331 331 333 333 335 333 332 331 331 331 329 331 333 336 338 337 336 337 338 336 337 336 339 338 341 336 336 336 336 333 334 332 334 334 331 330 333 330 329 329
335 335 339 334 337 339 333 333 333 332 331 332 333 333 334 335 337 337 336 338 339 337 336 336 337 337 336 336 334 334 332 333 333 339 334 332 332 330 331 330 330 328
333 335 337 334 335 335 333 333 333 331 331 333 333 333 336 339 335 336 337 335 335 335 335 336 335 337 336 335 334 334 334 330 331 332 335 332 331 331 331 331 329 328
333 334 335 333 333 333 333 333 332 333 332 331 332 336 337 338 336 335 333 343 335 334 334 334 335 334 334 334 333 333 333 332 332 331 331 332 333 332 330 329 332 331
332 334 334 333 332 333 335 334 333 331 330 330 331 333 338 336 334 331 333 333 333 333 333 334 333 333 334 333 332 332 332 332 332 332 331 330 330 332 331 332 331 329
333 335 335 334 333 333 333 331 331 331 331 330 332 336 335 335 333 332 333 333 333 333 333 332 331 332 333 333 332 332 332 333 333 332 331 330 331 332 334 333 330 329
333 334 335 335 335 334 333 330 331 332 328 329 331 332 333 333 333 333 333 332 331 333 332 331 331 332 333 332 332 332 332 333 332 332 331 331 331 331 331 331 331 330
333 333 335 334 334 334 333 332 331 332 332 331 330 331 332 332 332 332 332 332 332 331 332 332 332 332 332 332 333 332 332 334 334 332 331 331 330 329 328 330 330 328
335 335 334 333 333 332 333 333 332 332 333 332 331 331 332 332 332 331 331 332 332 332 331 331 331 331 331 332 332 332 332 332 334 333 331 331 330 329 328 328 328 328
335 335 334 334 333 332 332 332 333 333 334 333 332 332 332 333 333 332 331 331 331 331 331 330 330 331 331 332 333 332 332 332 332 332 332 331 331 330 329 328 327 326
334 334 333 333 332 333 333 333 333 334 334 333 332 331 331 330 332 333 331 330 331 330 330 330 330 330 330 332 333 333 332 331 331 330 330 331 331 330 333 329 327 326
334 334 333 333 333 333 334 335 334 333 331 332 332 330 329 329 328 330 332 329 329 330 330 330 329 329 331 332 333 333 332 331 332 332 332 330 329 329 329 329 328 326
334 334 334 334 335 334 334 334 333 332 331 328 330 327 328 327 327 326 330 328 327 329 330 330 330 330 330 331 331 330 330 330 331 331 330 330 329 329 329 328 327 326
335 335 335 335 335 334 333 333 333 331 329 328 330 327 327 326 326 326 326 329 328 328 329 328 327 327 328 330 331 330 330 330 329 329 328 328 328 328 328 327 327 326
336 335 335 335 335 334 333 332 332 331 329 329 331 328 329 327 328 328 327 326 326 328 328 328 328 329 331 332 331 330 330 329 328 328 327 327 327 327 327 327 326 326
335 336 335 335 334 334 333 333 332 331 329 328 329 328 328 330 328 328 328 328 327 327 326 328 330 331 336 335 333 332 329 330 330 329 327 327 327 326 326 326 326 325
335 335 334 333 334 334 333 333 331 330 329 328 327 327 328 328 330 328 329 330 329 327 326 327 329 331 331 328 329 333 333 329 328 328 327 327 328 327 327 328 327 325
335 335 334 334 333 333 333 331 330 328 327 327 327 327 328 328 329 329 329 329 329 328 327 328 327 331 326 327 328 329 332 332 327 326 327 327 327 327 327 326 326 325
334 335 335 334 334 333 333 331 329 328 328 327 327 328 328 328 329 329 329 329 329 328 329 329 329 329 326 325 326 326 326 328 326 326 326 327 326 326 326 326 326 326
334 334 333 334 334 333 332 330 329 328 328 328 329 328 328 329 329 329 330 329 329 328 328 329 329 329 325 323 323 322 323 325 324 324 324 324 324 325 326 326 326 325
334 334 332 332 332 332 330 329 329 328 328 329 330 329 329 330 331 329 328 329 328 328 328 328 331 325 322 320 318 318 319 323 321 323 323 322 323 324 324 325 325 325
331 330 331 331 330 330 329 329 328 328 328 329 330 329 329 330 329 328 326 326 327 326 327 327 328 318 319 318 318 317 320 323 320 320 320 320 321 322 323 324 325 324
331 329 330 331 330 330 329 330 329 329 329 330 329 329 330 330 328 326 326 326 327 327 325 324 325 321 316 317 317 316 318 320 319 320 321 322 322 324 324 324 324 324
333 332 332 332 331 330 330 330 330 330 331 334 331 330 330 330 327 325 326 327 327 326 326 323 323 322 316 313 314 315 320 320 319 319 319 321 322 323 323 323 324 332
334 334 333 332 331 331 331 331 331 331 332 333 332 330 328 326 328 325 325 326 327 327 330 327 323 322 317 312 312 312 316 317 318 318 319 321 322 322 322 322 322 326
335 335 334 333 332 332 331 330 331 331 330 330 327 327 327 325 327 326 325 325 325 326 326 326 324 324 325 314 310 310 313 319 319 318 320 320 319 321 320 318 318 318

ECMWFNIL_sfc_thetae_021.txt.gz
Theta_e
330 332 331 329 328 330 330 330 330 330 329 330 327 327 331 334 335 334 334 334 335 334 334 333 336 335 338 333 333 333 332 331 331 329 330 332 330 329 330 329 328 329
330 333 336 331 332 335 332 332 331 329 329 329 328 329 331 332 334 334 332 334 336 334 332 333 333 333 332 332 331 330 330 330 331 335 331 330 331 329 329 329 328 327
331 332 332 329 331 332 331 331 331 330 330 330 329 330 332 334 333 333 332 332 333 333 332 331 331 333 333 332 331 330 332 329 329 330 333 331 330 329 329 329 327 327
331 332 331 330 332 332 331 331 329 330 329 330 330 332 333 336 334 333 332 341 332 331 331 330 332 332 332 332 331 330 330 330 331 329 329 331 330 329 329 328 330 328
331 331 332 331 332 333 332 330 330 329 329 330 330 330 335 334 333 331 331 332 332 331 330 331 331 331 332 331 330 330 330 330 330 329 328 328 329 330 330 329 328 328
331 332 332 331 332 331 331 330 330 330 330 328 328 332 333 333 332 331 331 330 331 332 331 330 330 331 330 330 329 330 330 330 330 329 328 328 329 329 330 329 328 328
330 331 331 331 331 331 331 331 331 333 330 330 329 330 332 331 331 331 330 331 331 332 330 330 330 330 330 330 329 329 329 329 329 328 329 329 330 329 329 329 329 328
330 331 332 332 331 331 332 331 330 331 330 329 328 329 331 332 331 331 331 331 330 329 330 330 329 329 329 329 330 329 329 331 331 329 328 329 328 328 328 329 328 327
331 331 333 332 331 331 332 331 330 330 330 329 328 329 331 330 330 330 331 330 329 330 329 329 329 329 329 329 329 329 329 330 332 331 330 329 328 328 329 328 326 326
332 332 332 332 332 332 332 331 331 330 332 330 330 330 329 331 330 329 329 329 329 330 329 329 329 329 329 329 329 329 329 330 330 330 330 330 330 330 329 328 327 325
332 332 332 332 332 332 332 332 331 331 332 332 331 330 330 329 331 330 329 328 329 329 329 328 329 328 328 328 329 330 330 330 330 329 329 330 330 330 332 329 327 327
332 332 332 332 332 332 332 332 332 331 331 333 332 330 330 330 329 329 331 329 329 329 328 328 328 328 328 328 328 329 330 330 330 329 329 329 329 329 329 329 328 327
333 333 333 333 333 332 332 332 331 332 331 331 333 332 330 329 328 327 330 330 329 328 328 328 328 327 327 326 328 329 329 329 329 328 329 329 329 329 329 328 327 327
334 333 333 333 333 333 332 333 332 332 332 332 332 330 329 327 327 326 327 330 327 326 327 328 327 325 324 326 328 328 328 327 327 328 328 327 328 328 328 327 327 327
334 334 334 333 334 332 332 332 332 332 332 332 331 330 329 327 326 326 325 326 326 326 326 327 327 326 327 327 327 327 327 327 327 328 327 326 326 326 326 326 326 326
334 334 333 333 333 332 332 332 332 332 333 332 330 329 327 327 326 326 326 326 326 326 326 327 327 328 332 332 332 330 328 328 328 327 326 325 325 325 325 325 325 325
333 332 333 332 333 333 332 332 333 333 332 331 329 328 327 328 328 326 327 327 327 327 327 327 328 329 330 327 329 332 332 327 327 327 326 325 325 324 324 325 325 326
333 333 333 333 333 332 333 333 333 332 331 330 329 327 327 327 328 327 327 328 328 328 327 328 328 330 325 326 327 328 331 331 328 327 327 325 324 324 324 324 325 325
333 333 333 333 332 334 334 334 333 332 330 329 328 327 327 327 327 328 327 327 328 327 328 329 328 329 324 324 324 324 326 328 328 327 326 325 324 324 324 324 324 324
333 333 334 333 334 334 334 333 332 331 330 328 328 327 326 326 327 327 328 327 328 328 329 328 327 327 323 322 321 321 323 325 325 324 324 324 324 323 323 323 322 322
334 334 334 334 334 334 333 332 332 331 329 328 327 327 327 327 327 328 328 329 329 329 327 327 327 325 322 322 320 318 319 324 322 323 323 322 322 322 322 322 322 322
334 334 334 334 333 332 331 330 331 330 329 327 328 327 328 328 328 328 328 328 328 327 326 326 326 323 320 319 318 317 320 323 320 320 320 320 319 319 319 320 321 322
333 334 333 333 332 330 329 329 329 329 327 329 328 327 327 327 328 328 329 328 327 326 325 325 325 323 317 315 315 316 318 319 317 319 319 318 318 319 319 321 322 322
334 334 333 332 330 329 329 329 329 328 327 331 328 327 327 328 328 327 326 326 326 326 326 324 324 322 317 313 313 315 319 317 316 317 317 317 317 318 318 320 321 329
334 333 331 330 328 328 329 328 328 328 329 331 329 328 328 328 329 326 324 323 324 325 330 328 324 321 318 314 313 313 316 316 316 316 315 316 316 318 319 319 319 322
334 333 330 327 326 327 329 329 329 330 329 329 330 330 328 325 326 325 323 323 325 326 326 325 324 323 324 318 312 310 313 318 316 314 316 316 318 319 319 317 315 315

ECMWFNIL_sfc_thetae_024.txt.gz
Theta_e
342 339 335 334 331 332 332 331 332 333 332 332 332 332 335 337 339 339 339 338 339 339 338 338 341 340 341 339 339 339 338 337 337 335 335 337 336 336 335 335 333 333
339 338 338 334 333 335 332 333 333 333 332 332 333 332 334 338 338 338 337 337 340 340 338 338 339 340 340 339 337 337 336 337 336 338 335 335 336 335 335 335 334 333
337 337 336 332 331 333 332 333 333 333 332 332 332 332 333 338 337 337 337 337 337 339 338 337 337 339 338 338 337 337 337 335 335 335 337 336 335 335 336 335 334 334
336 336 335 333 332 333 333 333 333 332 333 332 332 333 334 338 337 337 336 342 336 337 338 336 336 336 337 337 337 336 336 336 336 335 334 335 336 335 335 334 335 334
335 334 334 333 332 334 333 333 332 332 332 333 332 333 337 337 337 336 336 337 337 336 336 336 335 335 336 336 336 336 336 335 335 335 334 333 334 335 335 335 334 334
335 334 334 332 333 333 332 332 332 332 332 331 332 335 335 335 336 336 336 335 336 336 335 335 335 335 335 336 335 335 335 335 335 334 333 333 334 334 334 335 334 333
334 333 333 333 333 333 333 332 333 334 332 333 334 332 334 334 334 335 335 335 335 336 335 335 334 334 334 334 334 334 334 334 334 334 333 333 334 334 334 334 334 334
335 333 333 333 333 333 333 332 332 333 333 333 332 332 333 333 334 335 336 334 334 333 334 334 334 334 334 334 334 333 334 334 334 334 333 333 333 333 334 334 334 333
334 333 333 332 332 332 332 332 332 333 334 332 332 331 333 333 334 334 335 334 333 334 333 333 333 333 333 333 333 333 333 334 335 335 334 334 333 334 334 334 333 332
333 333 332 332 331 332 332 332 332 333 334 332 332 332 331 333 334 334 334 334 333 333 333 333 333 332 333 333 333 333 333 333 333 333 334 334 334 334 334 334 333 332
333 333 332 332 332 332 332 332 332 332 333 332 332 331 331 331 334 334 333 332 332 332 332 332 332 333 332 332 333 333 333 333 332 333 333 334 334 335 335 335 334 333
333 333 333 334 333 332 333 333 333 332 331 333 332 330 331 331 331 331 333 331 332 332 332 332 332 332 332 332 332 332 332 332 333 333 333 333 334 333 334 335 334 334
334 334 334 334 334 334 334 333 333 332 331 331 333 331 331 331 331 331 332 332 332 332 332 332 332 332 331 331 331 332 332 332 332 332 333 333 333 333 333 333 333 333
335 334 334 334 334 334 333 333 332 332 332 332 333 332 332 332 331 331 331 332 332 333 333 333 331 330 330 331 331 331 331 332 332 333 333 333 333 333 333 333 333 333
334 335 335 335 335 333 333 332 332 332 332 332 333 333 333 332 332 331 330 329 331 331 330 331 330 330 331 331 331 331 331 331 332 332 332 332 332 332 332 332 332 332
336 335 334 334 334 332 332 332 332 332 332 332 333 333 333 333 331 330 329 329 329 330 329 330 330 331 333 331 330 332 330 331 331 332 332 332 332 331 331 330 330 330
336 335 334 334 333 333 333 332 332 333 333 333 333 332 332 331 331 328 328 328 328 328 328 329 330 331 329 326 327 330 334 332 331 332 332 332 331 331 331 331 331 330
335 335 333 333 334 333 334 333 333 333 333 333 333 332 332 331 330 329 328 328 328 329 329 330 330 330 325 325 327 327 330 334 333 332 332 331 331 330 330 330 330 330
333 332 332 332 333 334 334 334 333 333 333 332 332 332 331 330 329 329 328 329 329 329 329 330 331 328 324 324 324 324 325 329 333 333 332 331 331 330 330 329 329 329
329 329 328 329 333 333 333 333 332 332 332 333 333 332 330 329 329 329 329 329 329 329 330 331 331 328 323 322 322 321 322 326 331 331 332 331 331 330 329 329 328 328
328 327 327 329 331 332 333 332 332 332 331 331 331 330 329 329 329 329 329 330 330 331 330 330 331 326 321 320 318 318 319 324 329 329 330 329 329 329 328 328 327 327
328 327 327 329 330 332 332 332 331 329 326 325 328 329 330 330 330 330 329 330 331 331 330 330 332 324 320 319 318 318 320 328 328 327 327 327 327 327 326 326 326 326
328 327 327 328 331 332 332 331 329 326 325 329 330 329 328 328 328 329 330 330 330 331 330 330 331 326 318 316 316 316 320 327 326 326 326 325 325 325 324 324 325 325
329 328 327 329 330 331 331 331 329 327 329 332 330 328 328 328 329 330 330 331 331 330 330 330 330 326 318 313 313 315 321 326 325 324 324 324 324 323 323 324 325 327
330 330 329 329 331 332 332 331 329 328 330 331 330 330 329 330 331 330 330 330 331 331 332 331 330 326 315 313 312 313 319 324 324 324 323 323 322 322 323 323 323 324
332 331 331 332 332 333 333 332 330 330 330 330 331 331 331 330 331 330 329 329 329 331 331 332 331 329 327 314 312 309 313 325 324 323 323 323 322 321 323 323 322 321

ECMWFNIL_sfc_thetae_027.txt.gz
Theta_e
361 361 359 357 356 355 353 350 348 348 349 348 347 347 347 349 351 352 351 352 352 350 350 350 350 350 348 348 349 348 347 346 346 346 345 344 343 342 341 341 342 341
361 360 359 358 356 353 353 351 349 348 349 349 349 349 350 351 351 351 351 350 351 349 350 349 350 350 349 347 348 347 346 347 345 346 345 344 343 343 342 342 341 342
361 359 358 356 353 351 349 350 350 349 348 348 350 350 349 350 350 351 351 350 349 348 349 350 349 349 349 349 349 347 346 346 345 345 346 345 343 343 343 340 341 341
361 359 357 355 353 350 349 348 348 349 349 348 347 348 348 349 350 350 350 350 348 348 348 348 348 348 349 348 348 346 346 346 345 346 345 345 345 344 342 342 342 341
358 358 357 355 352 351 349 347 345 346 346 347 348 348 348 349 349 348 348 348 349 347 348 348 348 348 349 347 348 346 346 344 345 346 344 343 344 344 343 343 342 340
358 357 356 353 351 350 347 346 346 345 345 346 347 346 347 348 348 347 347 346 345 345 345 346 347 346 347 346 347 345 344 343 343 345 344 343 342 343 343 344 343 341
356 355 353 351 349 348 347 347 347 347 346 347 348 346 347 346 347 347 348 347 346 346 345 346 347 345 347 347 346 345 345 345 345 346 344 342 343 343 344 344 343 343
352 351 351 349 347 346 346 346 346 346 347 347 345 346 346 344 346 346 346 346 345 346 347 347 347 347 345 346 345 344 343 344 343 345 344 343 343 342 343 344 344 343
351 349 348 347 346 344 342 342 343 345 345 344 343 342 344 344 344 344 345 346 345 346 347 347 347 347 346 345 345 344 343 342 342 343 342 341 341 342 342 342 342 342
349 348 346 344 343 343 342 342 341 343 343 342 342 341 340 342 343 343 344 345 344 345 346 345 345 345 346 346 345 345 344 343 344 344 342 342 341 341 340 340 339 339
348 345 344 344 344 343 343 341 341 341 342 341 340 339 341 340 340 342 343 343 342 343 344 344 344 344 345 345 345 345 344 343 343 342 342 341 341 342 341 342 341 340
348 345 344 344 344 343 342 341 341 341 341 340 340 338 338 338 339 340 341 342 342 343 344 343 344 344 345 345 344 344 343 342 341 341 341 342 343 343 343 343 343 341
348 345 344 343 344 343 343 342 340 340 339 337 338 338 337 337 337 339 340 341 342 341 341 341 341 342 343 343 343 343 342 341 340 342 343 344 343 342 342 342 342 342
347 344 345 344 345 346 344 343 342 340 339 338 338 338 336 337 337 338 339 340 341 341 341 340 340 340 341 342 341 342 342 341 342 343 343 343 343 343 342 341 342 342
347 346 346 346 346 343 341 341 341 340 338 339 339 338 338 337 338 339 338 339 340 340 339 338 338 338 339 340 341 342 342 342 343 342 341 341 342 341 342 343 343 342
346 346 345 345 345 342 341 342 341 338 336 336 336 337 337 337 338 339 337 338 339 340 340 339 338 339 337 332 334 342 344 343 342 342 341 341 341 341 341 342 341 341
346 344 343 343 346 344 340 339 337 336 335 335 335 336 338 339 340 337 335 336 336 336 337 338 338 339 331 327 327 331 340 342 340 341 341 341 341 340 340 340 341 343
345 344 343 342 343 338 335 333 335 336 336 336 336 337 339 340 337 336 336 335 334 334 335 337 339 333 326 326 327 327 332 340 342 341 341 341 341 341 341 340 340 340
344 344 342 341 340 337 335 334 334 335 334 335 337 339 340 339 338 337 336 337 336 336 336 337 339 332 325 324 325 325 326 332 341 343 342 341 341 342 341 341 341 340
344 343 341 339 338 338 337 338 336 333 331 333 337 339 339 338 338 338 336 336 337 338 338 339 339 331 324 322 322 322 324 328 340 342 342 341 342 342 341 341 341 340
342 341 340 339 339 338 338 338 336 331 331 334 336 337 339 338 338 336 335 336 337 338 337 338 339 328 323 321 319 319 321 327 339 341 341 341 341 342 342 341 341 340
342 341 340 338 337 335 333 334 334 333 332 334 336 338 340 339 338 337 337 337 338 338 337 338 338 325 322 320 319 318 321 334 339 341 340 339 339 338 339 340 339 338
342 340 339 336 334 333 332 331 332 334 335 338 337 339 340 339 339 338 340 339 340 340 339 340 340 330 320 318 317 317 322 338 340 340 339 339 338 338 339 338 337 336
341 340 338 335 334 332 331 331 333 336 336 339 339 338 337 338 339 339 340 340 339 339 338 340 340 334 319 315 315 316 325 339 339 338 336 337 336 336 337 336 335 329
339 339 339 335 333 332 333 333 334 335 338 340 338 339 338 339 338 337 337 339 339 339 336 337 340 333 314 314 314 314 325 337 336 334 333 334 333 334 336 334 334 330
339 339 339 335 333 333 333 333 334 336 338 338 338 338 338 337 337 336 338 340 341 340 340 339 339 343 334 313 312 311 317 335 335 333 331 332 334 334 333 334 332 333

ECMWFNIL_sfc_thetae_030.txt.gz
Theta_e
369 369 367 366 365 364 363 362 361 361 360 357 354 354 351 352 352 352 351 351 350 350 350 351 351 351 350 350 350 349 348 349 349 347 347 346 344 344 343 343 343 342
370 370 369 368 367 366 365 364 363 362 361 360 357 356 354 354 353 352 351 349 350 350 351 350 352 351 351 349 349 348 347 347 348 347 346 346 344 344 343 343 342 342
371 370 369 367 365 366 365 365 365 364 361 360 359 357 355 355 353 353 351 350 350 350 351 351 351 351 350 350 350 347 346 346 347 347 346 345 344 344 344 340 341 341
371 370 369 367 366 367 367 365 365 364 362 359 358 357 355 353 352 351 350 350 351 350 350 350 349 349 350 350 349 346 346 347 346 347 345 345 345 343 342 343 341 341
371 370 369 368 367 368 367 364 362 362 361 359 358 357 354 352 351 349 349 349 350 349 349 349 349 348 349 349 348 346 346 345 346 347 344 343 344 343 342 342 341 339
371 371 371 369 368 367 365 363 363 361 360 357 357 354 353 351 349 347 348 348 347 346 345 346 347 347 347 348 348 346 346 345 344 345 343 343 342 342 341 341 340 339
369 370 370 368 367 364 362 363 363 362 359 358 356 352 350 348 347 348 349 349 348 347 344 345 346 346 347 347 347 347 346 345 345 345 343 342 342 342 341 341 341 340
369 370 369 366 364 363 361 361 362 360 359 357 355 353 350 347 346 347 349 349 346 346 346 345 346 347 345 346 345 344 344 343 344 344 343 342 341 341 341 340 341 341
369 368 366 364 361 360 358 359 360 360 358 355 353 351 350 347 347 348 350 348 345 346 346 344 345 345 345 344 343 343 342 342 342 342 342 341 339 340 340 341 340 340
368 367 363 360 357 358 357 359 358 358 356 355 351 349 347 348 349 349 350 349 345 343 342 342 344 344 344 344 344 343 343 342 343 343 342 341 340 340 340 340 339 339
366 364 361 358 357 356 357 357 357 356 356 354 351 348 348 349 349 350 349 347 342 342 342 343 344 344 345 343 344 345 344 343 343 343 342 342 343 342 341 341 339 338
365 362 359 358 357 356 357 358 357 357 354 353 350 347 348 347 349 346 345 344 343 343 342 343 344 345 345 345 343 343 343 343 342 343 342 343 343 342 342 342 341 341
364 360 359 358 357 358 358 357 356 353 352 350 347 345 345 342 342 344 344 343 343 344 344 344 345 345 345 345 345 344 343 344 343 344 344 344 343 341 340 340 340 340
363 360 360 359 357 359 358 357 356 354 353 350 346 344 340 340 341 341 343 344 344 344 344 344 345 345 348 347 345 344 345 344 344 344 343 343 342 342 341 339 338 338
364 361 360 359 357 358 358 357 354 354 352 349 348 345 342 342 341 344 344 343 344 344 343 345 345 344 344 345 344 344 344 342 343 342 343 341 341 341 341 341 340 338
362 361 358 356 356 356 357 356 354 353 352 351 349 346 343 341 341 344 343 342 342 343 344 345 344 344 341 335 337 342 342 342 340 343 343 341 340 340 340 340 339 340
362 361 359 355 355 355 357 356 353 352 352 350 348 347 345 346 344 343 340 340 338 340 343 344 343 342 333 328 329 331 339 341 341 343 343 342 341 341 341 340 340 340
360 359 356 354 354 354 355 355 353 352 351 350 346 344 344 342 342 343 341 338 336 340 343 343 343 336 327 327 328 328 331 341 341 341 341 341 342 341 341 343 343 342
358 356 355 355 354 353 355 354 353 351 350 348 345 345 346 344 342 342 342 342 343 344 342 341 342 331 325 325 326 326 326 332 340 340 340 341 343 345 345 345 346 345
357 354 354 353 353 353 353 351 351 349 349 348 346 346 344 342 341 341 343 343 343 343 342 341 341 330 324 323 323 323 324 329 341 340 341 341 343 344 345 346 346 346
356 354 354 353 352 352 352 351 349 349 348 346 344 342 340 340 339 341 342 343 342 342 342 341 339 326 322 321 320 320 322 327 340 341 341 342 343 344 346 347 346 343
356 354 354 353 351 351 349 349 349 348 347 346 344 342 340 343 342 338 341 340 341 342 339 339 336 323 321 320 319 319 322 336 340 341 341 341 343 345 346 347 344 340
355 353 352 352 351 349 348 348 349 347 346 344 340 339 336 335 334 335 342 339 336 338 340 339 336 328 319 319 319 318 323 338 340 340 340 341 342 344 345 343 342 341
355 353 351 351 350 348 348 348 348 347 342 338 335 333 332 334 336 338 340 336 333 336 338 339 337 330 317 317 317 316 326 339 340 341 341 341 343 344 342 339 339 338
354 353 352 350 349 348 347 348 348 345 338 334 332 331 331 334 334 338 338 336 337 337 339 338 337 333 317 316 314 315 326 340 341 343 341 342 342 340 340 338 340 339
353 352 352 350 350 349 349 349 347 341 336 333 332 330 329 331 335 337 336 338 338 339 338 339 339 340 341 314 313 313 319 340 343 341 341 340 340 337 336 341 342 342

ECMWFNIL_sfc_thetae_033.txt.gz
Theta_e
367 367 366 366 365 364 363 361 359 359 359 356 353 355 354 356 355 353 352 354 352 350 350 352 352 350 348 347 348 347 347 347 347 347 348 346 344 343 342 342 342 342
369 368 367 367 367 366 365 363 363 360 360 360 358 357 357 356 353 352 352 351 351 349 351 350 351 351 349 347 347 347 347 346 346 346 345 346 346 344 343 342 342 344
370 368 368 367 364 365 363 365 364 362 360 360 360 359 355 355 355 354 352 351 350 348 350 350 351 351 349 349 348 346 345 345 344 344 346 345 344 344 345 341 342 343
371 369 368 367 366 365 366 364 364 364 362 360 359 357 354 353 354 353 352 351 351 350 351 350 349 348 350 349 348 347 346 345 345 346 345 346 346 345 344 344 342 341
372 370 369 369 367 368 367 365 362 362 361 359 360 358 356 355 353 353 351 350 351 351 350 349 349 348 348 348 347 346 345 344 345 346 345 344 346 345 343 342 342 340
373 373 372 370 369 368 365 365 365 362 363 359 360 357 355 354 353 352 351 348 347 347 346 347 347 346 347 349 348 347 345 342 343 345 344 343 343 343 342 342 342 340
371 372 371 370 369 368 367 367 367 366 363 361 362 358 356 354 352 350 350 349 348 348 347 346 348 348 348 349 349 347 348 347 345 345 343 343 343 342 342 342 342 341
372 372 371 371 369 369 368 367 367 365 365 364 360 359 358 355 353 348 349 349 348 348 348 346 350 350 346 347 346 345 346 344 343 344 344 344 342 341 341 342 341 341
371 372 372 370 369 368 366 365 364 364 364 362 359 358 359 356 351 348 349 349 349 349 347 348 348 348 347 346 346 345 345 343 342 342 343 341 340 341 341 342 341 341
371 371 370 368 366 367 365 364 362 362 363 362 359 357 357 355 352 348 348 350 348 349 347 344 346 347 346 346 345 344 344 343 343 343 342 341 340 340 340 341 340 340
370 369 369 368 367 365 365 362 360 360 362 360 359 358 357 353 351 348 349 350 347 346 346 346 346 345 345 343 343 344 344 343 343 343 342 342 341 342 341 342 341 340
370 368 368 369 368 365 363 362 359 361 361 361 362 358 356 352 348 346 349 350 348 348 347 346 345 345 346 344 342 344 345 343 342 341 341 341 341 341 341 341 341 342
369 369 369 369 369 366 364 361 360 360 360 359 359 358 355 350 347 348 351 350 347 345 344 344 343 345 346 346 344 344 344 343 341 341 342 342 342 341 340 339 340 341
370 370 371 370 369 368 365 362 362 362 362 361 359 355 353 350 347 348 350 349 344 343 343 343 345 346 347 346 345 345 343 341 342 343 342 342 342 341 340 338 338 339
372 372 372 370 368 367 365 364 363 363 363 362 360 357 354 351 349 349 347 344 344 343 344 344 345 344 344 345 343 343 342 343 344 343 342 340 340 340 340 339 341 340
373 373 371 370 368 366 366 365 364 364 362 362 360 357 355 352 351 345 344 341 342 342 343 343 344 343 341 335 339 344 344 343 342 343 342 341 341 340 338 338 340 340
372 372 370 368 367 366 367 365 364 363 363 362 360 359 356 353 348 344 342 339 341 342 344 344 343 344 332 330 332 336 343 344 341 342 343 343 341 341 338 340 340 341
371 371 369 367 365 364 363 363 363 362 362 362 359 357 355 351 345 344 341 342 343 340 339 339 339 336 327 329 330 331 338 343 341 340 339 340 341 339 340 341 341 340
371 369 367 366 364 363 363 360 360 360 359 358 356 356 354 349 347 345 343 339 339 341 338 338 343 331 326 326 328 327 328 336 339 339 338 338 339 341 341 343 344 343
368 366 366 364 364 363 361 361 359 359 358 357 356 356 351 345 344 340 338 342 341 340 340 340 345 328 324 323 324 324 325 331 338 338 339 339 340 341 341 343 346 347
367 365 363 364 363 361 360 359 358 358 358 358 356 354 351 347 343 342 341 341 341 341 339 338 343 323 322 321 321 320 323 328 339 339 340 340 340 341 343 343 345 346
366 364 361 362 360 359 358 357 357 358 356 357 356 353 351 347 343 339 337 341 342 339 340 341 340 321 321 320 319 320 322 337 339 340 340 340 341 341 342 346 346 348
366 363 360 360 359 357 356 355 355 355 356 357 354 352 349 347 344 340 345 345 344 344 338 338 339 325 319 318 318 319 324 339 338 337 338 339 341 341 342 344 346 349
366 363 359 358 359 357 355 353 354 355 355 355 351 349 347 347 346 343 345 344 341 337 334 335 333 329 316 316 316 317 327 337 338 338 338 340 341 342 343 346 349 344
363 361 359 356 355 355 354 353 354 354 354 353 350 350 348 347 344 342 342 341 336 333 333 329 329 333 314 316 315 315 328 340 338 338 338 339 340 341 344 347 347 344
362 361 358 355 354 355 355 355 355 353 352 348 348 346 342 342 340 337 338 339 337 336 334 330 332 338 327 315 314 313 320 340 340 339 338 339 341 342 343 345 342 342

ECMWFNIL_sfc_thetae_036.txt.gz
Theta_e
368 368 367 367 367 366 365 364 363 361 361 358 357 355 358 358 361 358 356 355 355 353 354 353 355 353 353 352 351 352 350 347 348 348 350 349 347 345 345 346 348 348
368 368 368 368 368 368 368 365 364 362 361 361 357 358 360 357 359 357 356 354 353 352 354 352 353 352 352 349 349 351 352 349 348 348 348 346 348 349 345 351 350 350
368 368 367 366 366 367 364 365 366 363 361 361 360 360 357 358 356 357 356 354 351 350 352 352 351 352 351 351 348 350 350 351 349 348 349 347 348 347 349 342 343 341
368 368 366 365 366 366 366 365 365 363 362 360 360 359 356 355 355 354 354 355 351 351 351 350 350 349 350 353 348 350 349 351 350 353 349 350 352 352 346 346 348 350
369 368 366 365 366 368 367 365 361 362 359 360 360 360 357 356 355 352 353 352 352 350 350 350 350 348 350 350 351 348 348 347 349 349 349 347 350 346 344 347 349 348
370 369 368 367 367 367 366 364 363 362 361 359 360 360 358 356 354 352 351 349 349 347 347 348 348 348 348 349 351 350 346 345 346 348 346 347 346 346 344 345 345 344
369 369 368 368 368 367 366 365 365 364 362 361 362 359 357 355 353 352 351 350 348 347 347 346 348 348 347 349 348 347 349 346 346 345 344 345 345 346 345 345 345 344
369 369 368 367 366 366 366 366 365 364 364 363 361 361 358 354 353 353 351 350 347 348 348 348 349 349 348 347 347 346 345 345 343 345 344 344 344 343 347 345 345 345
370 369 368 367 365 365 363 363 365 366 366 363 361 360 358 355 353 352 352 350 347 348 349 348 349 347 347 347 347 346 343 344 344 345 345 344 343 343 343 344 344 344
369 370 367 364 362 364 362 362 362 365 365 364 361 360 357 356 355 353 352 350 347 347 349 347 348 347 347 347 347 345 343 343 344 343 344 344 342 342 342 342 341 342
368 368 367 366 364 364 363 362 362 364 364 363 361 359 358 356 355 353 351 350 347 347 347 346 346 348 347 345 346 345 344 344 344 344 343 344 343 343 344 343 342 341
367 366 366 366 365 364 363 363 362 364 364 363 362 359 359 356 355 351 350 348 348 349 347 346 346 347 347 345 345 345 345 345 344 343 343 343 343 344 343 343 343 343
367 366 367 367 366 365 365 364 362 363 362 361 361 359 357 356 355 351 349 349 348 350 347 346 346 347 346 345 344 343 344 344 343 343 342 342 343 342 342 343 342 343
368 366 367 368 368 367 366 365 363 362 363 362 361 359 356 356 354 351 349 348 348 349 348 346 345 346 346 345 343 342 343 344 344 342 341 342 342 343 342 341 342 342
370 369 368 369 369 368 367 367 366 364 364 363 361 359 358 356 355 351 348 348 349 349 347 346 345 345 345 344 341 341 343 344 343 342 340 341 342 341 342 342 341 341
371 370 369 369 369 369 368 367 366 365 363 363 362 360 359 358 355 350 347 348 349 347 346 346 345 345 340 334 337 341 342 343 343 342 341 341 342 341 341 341 342 341
372 371 371 370 370 370 370 368 366 365 364 365 364 362 360 359 357 349 347 348 348 346 344 344 343 342 330 330 331 336 342 343 341 342 344 342 341 343 342 341 342 342
372 372 371 371 371 370 370 369 367 366 365 365 365 363 361 360 357 351 349 350 348 344 341 341 341 335 326 329 331 331 338 342 343 342 341 340 341 340 340 341 341 340
373 372 372 372 371 371 370 369 367 366 366 365 363 364 363 359 355 353 350 349 346 343 341 340 341 331 325 327 328 329 331 339 342 340 338 339 340 339 339 340 343 343
374 373 372 371 371 370 369 367 366 364 363 362 362 363 362 359 355 352 349 346 344 342 341 341 341 328 324 324 325 326 329 336 342 342 343 340 339 339 338 340 343 343
374 372 370 370 369 368 367 365 364 363 362 361 360 360 361 358 355 350 346 344 343 342 340 336 338 324 321 322 322 323 326 333 341 340 338 336 336 337 339 340 343 345
372 371 369 368 367 366 364 363 362 362 361 362 360 360 359 355 351 348 344 342 341 340 337 335 339 321 321 321 321 322 324 337 340 337 336 336 336 337 338 341 344 345
372 370 368 367 366 363 362 361 361 360 361 363 359 358 354 349 347 344 342 340 339 339 338 336 342 323 319 318 319 320 324 336 337 335 335 335 336 339 340 342 343 344
371 369 367 366 364 362 361 360 360 360 361 362 358 356 353 349 346 344 342 341 340 339 338 338 341 324 315 315 317 317 326 334 336 335 333 335 337 339 341 343 344 345
369 367 365 363 362 360 359 359 358 358 359 359 357 357 354 353 348 344 342 341 340 340 337 338 340 327 314 316 315 315 326 336 337 335 334 335 336 337 341 344 345 346
367 364 363 360 358 359 359 359 357 356 357 356 355 355 353 351 348 345 342 342 342 342 341 338 339 336 324 314 313 313 320 337 338 336 333 334 336 336 339 341 350 347

ECMWFNIL_sfc_thetae_039.txt.gz
Theta_e
360 360 359 357 357 356 355 354 353 354 352 352 351 350 351 349 350 348 345 345 345 343 344 342 342 341 347 343 344 343 342 340 341 341 340 341 338 339 340 337 337 336
360 360 360 359 357 357 357 357 355 355 353 352 350 350 350 349 349 348 345 343 346 344 344 344 343 341 343 341 343 342 340 340 341 344 340 341 338 338 338 339 337 338
360 360 359 359 358 357 357 358 356 355 354 353 351 351 349 351 349 347 345 343 343 344 343 344 344 343 343 340 341 342 340 338 340 340 341 339 339 339 339 339 337 338
360 360 360 360 360 359 359 358 356 355 354 352 349 351 350 351 350 347 346 349 342 344 343 343 344 343 342 341 339 339 341 339 340 340 340 339 340 339 339 337 339 336
359 360 360 360 361 360 360 358 356 355 353 352 350 350 350 348 349 347 346 345 342 344 344 343 343 343 343 341 339 338 340 339 340 341 339 337 339 340 339 339 337 337
360 360 360 360 360 360 359 358 356 355 353 353 350 350 350 348 348 347 346 344 342 343 344 344 342 342 342 342 339 339 339 339 340 340 340 337 338 339 338 337 336 336
359 359 360 360 360 360 359 358 357 355 354 354 352 350 349 348 347 346 346 345 342 343 343 343 342 341 342 342 339 338 339 338 339 340 339 339 339 338 338 336 336 335
360 360 360 360 359 360 359 358 357 356 355 354 352 351 349 348 347 346 346 345 343 342 342 342 343 341 341 340 342 339 338 340 339 340 338 338 339 337 336 338 337 335
360 360 360 359 358 359 359 359 358 357 356 354 353 352 350 349 347 346 345 345 343 342 341 342 342 342 342 340 341 340 338 339 339 339 338 337 337 337 337 337 337 336
360 360 360 359 358 358 359 359 359 358 357 355 354 353 351 349 348 346 345 344 343 342 341 341 342 342 341 340 340 340 339 338 337 338 338 337 337 336 337 337 336 335
359 360 359 359 358 358 359 360 359 359 358 356 355 354 353 350 348 347 345 344 343 342 341 341 341 341 341 340 340 341 339 338 337 337 338 338 338 337 341 336 336 335
359 359 359 359 358 358 359 359 359 359 358 358 356 355 353 351 348 347 346 344 343 342 342 342 342 341 341 340 340 341 339 338 338 338 338 339 339 338 338 337 336 335
359 359 359 359 359 358 359 359 358 359 359 358 358 356 354 352 349 347 347 345 344 342 342 342 342 342 341 341 340 340 340 338 338 338 338 338 338 338 338 338 337 337
359 360 360 360 359 358 358 358 358 358 359 359 358 356 355 353 350 348 347 347 345 343 343 343 342 341 341 340 340 341 341 339 338 337 337 337 338 338 338 338 338 338
360 360 360 360 359 358 358 358 357 357 358 359 358 357 356 354 352 349 347 346 345 344 343 343 342 341 342 340 340 340 340 339 338 338 337 337 337 337 337 337 337 338
359 359 360 360 360 358 358 358 358 357 358 358 358 357 356 354 352 350 348 346 344 343 343 343 342 342 339 332 335 340 339 339 339 338 338 337 336 336 336 337 337 337
359 359 359 359 360 359 359 358 358 358 357 358 358 357 356 354 353 350 348 346 344 343 343 342 342 342 330 328 330 333 338 338 338 338 338 336 336 336 335 336 337 337
359 359 358 358 359 359 359 358 358 358 357 357 357 356 356 354 352 350 349 346 345 343 342 343 341 334 326 327 329 330 335 338 338 338 338 336 337 336 336 337 337 337
360 359 358 358 358 359 359 359 358 358 356 356 356 356 355 353 352 349 347 346 344 343 342 342 341 330 326 326 328 328 329 335 337 338 337 337 337 337 336 336 336 335
360 360 359 358 358 359 360 359 358 358 357 357 357 355 354 353 352 348 346 345 344 343 342 342 342 328 324 324 325 326 327 332 338 338 338 338 336 336 336 334 334 335
361 360 360 359 359 360 361 360 359 358 357 357 357 356 354 353 352 347 345 344 345 344 343 341 342 325 322 321 322 322 325 330 338 339 338 337 335 334 333 331 331 335
362 361 361 361 361 361 361 360 359 357 356 356 356 356 356 355 353 350 346 344 344 344 342 340 340 322 320 320 320 321 324 333 337 338 337 335 335 334 334 333 334 335
363 363 362 362 362 361 360 359 358 357 356 355 354 354 354 354 352 349 346 344 343 342 340 339 338 322 318 317 318 320 323 334 336 336 335 333 333 333 333 332 333 334
364 364 363 362 361 360 359 359 358 357 356 356 354 352 349 349 346 343 342 342 341 340 340 337 336 322 316 315 317 318 325 334 335 334 332 331 330 330 330 330 332 340
366 365 363 362 360 359 359 357 356 356 355 355 353 352 347 343 342 340 339 339 340 340 336 336 335 323 313 315 316 316 325 335 335 333 330 329 329 330 332 332 332 339
366 363 362 361 359 358 357 356 355 354 354 354 352 351 348 344 341 340 337 336 337 337 337 336 336 330 320 314 314 314 320 335 335 332 330 328 329 330 331 332 334 335

ECMWFNIL_sfc_thetae_042.txt.gz
Theta_e
354 354 353 354 353 353 351 351 350 350 351 351 351 350 351 351 352 351 351 349 347 344 343 341 341 341 340 339 339 338 338 337 337 337 336 337 334 334 336 334 333 329
354 355 355 355 354 354 353 353 352 351 351 351 351 350 351 350 350 350 349 348 346 342 341 339 338 340 339 338 338 338 337 337 336 340 336 335 335 335 335 335 335 332
355 355 355 354 354 354 354 354 353 352 351 351 351 350 350 350 349 349 347 346 344 341 340 338 337 340 340 338 339 338 337 336 336 338 337 336 335 335 335 336 334 333
355 356 356 356 355 354 355 354 353 352 351 350 350 350 351 350 349 347 345 349 343 341 340 338 337 338 340 339 339 337 337 337 337 338 337 337 338 335 335 335 336 335
355 356 357 357 356 355 355 354 352 352 351 350 350 350 350 349 348 346 343 344 342 340 340 339 338 337 339 338 339 337 337 336 337 337 336 335 336 337 336 336 334 333
356 357 357 357 357 355 354 354 353 352 351 350 349 350 349 349 347 346 343 341 341 340 340 340 339 338 339 337 337 337 337 336 336 337 336 335 335 337 337 336 334 333
355 356 356 357 357 356 355 355 354 353 352 351 350 349 348 348 347 346 343 342 340 341 339 339 339 338 339 337 336 336 337 337 336 337 336 335 335 335 336 335 335 333
356 357 357 357 357 357 356 355 355 353 353 352 350 349 348 347 347 346 344 342 339 340 339 339 339 339 339 338 335 335 335 337 336 336 336 335 335 334 335 335 334 333
357 357 357 357 356 356 356 356 355 354 353 352 350 349 349 347 347 345 344 343 340 339 340 339 339 339 339 339 336 334 334 335 336 336 335 335 334 334 334 334 332 332
357 358 357 357 356 356 356 357 356 355 354 352 351 350 348 347 347 345 344 343 341 340 339 339 339 339 339 339 338 336 334 334 335 335 335 335 335 335 334 334 333 331
357 357 356 356 356 356 356 357 357 356 355 353 351 350 348 347 346 346 344 343 342 340 339 339 340 339 338 338 338 338 336 335 335 334 335 335 335 335 339 334 333 332
356 357 356 356 356 356 356 357 357 356 355 354 352 350 348 347 346 345 344 343 342 341 340 340 340 340 339 338 338 338 338 336 336 335 335 335 335 334 335 335 334 333
356 356 357 356 356 356 356 357 357 357 356 354 353 352 349 347 346 345 345 344 343 342 340 340 340 340 340 339 338 338 338 337 336 335 335 335 335 335 335 335 335 334
356 357 357 357 357 357 356 356 357 357 356 355 354 352 351 349 347 345 345 344 343 342 342 341 340 339 339 339 339 337 337 337 337 336 335 334 335 336 335 335 335 335
357 357 357 357 357 356 356 355 356 356 356 356 354 353 352 351 349 347 345 344 343 342 342 341 340 340 340 340 339 338 337 337 337 337 336 334 334 335 336 336 335 335
357 357 357 357 356 356 355 355 355 356 356 355 355 354 353 352 350 348 346 344 343 342 341 341 341 341 336 330 333 339 338 338 337 337 335 335 334 334 334 335 336 336
357 357 357 356 356 356 356 355 355 355 355 355 355 354 354 353 351 349 347 346 344 343 341 341 341 341 329 326 329 332 338 338 337 336 335 335 335 334 333 335 336 336
357 356 356 356 356 355 355 355 355 354 354 354 354 354 354 354 352 350 348 347 346 344 343 342 341 333 325 325 327 329 333 339 338 337 336 335 335 334 334 335 335 335
357 356 356 355 355 356 356 355 354 354 353 353 353 354 354 353 352 351 349 348 346 344 343 343 342 331 325 324 326 327 329 335 339 338 337 336 335 335 335 335 335 335
357 357 356 355 356 356 355 355 354 353 353 354 354 354 354 353 352 351 350 348 347 345 344 344 343 329 323 322 324 325 327 331 338 337 337 336 336 336 336 335 335 335
357 357 356 356 356 355 355 354 354 353 353 353 354 354 353 353 352 351 350 349 348 347 345 344 344 325 320 321 322 323 324 328 337 337 337 336 336 336 336 336 336 336
357 356 356 356 355 355 355 354 354 354 353 354 353 354 354 354 354 353 351 349 349 347 345 343 344 321 319 320 321 322 324 332 337 336 335 335 336 336 336 336 336 335
358 357 356 355 355 354 354 354 354 354 354 355 353 353 353 353 353 353 352 350 348 347 345 343 342 322 318 318 320 321 322 333 336 336 334 334 335 335 335 336 335 333
358 357 356 355 355 354 354 354 355 355 355 355 354 353 352 353 353 353 352 350 348 346 345 343 342 323 316 316 318 319 324 334 335 335 334 333 333 334 334 334 335 341
358 358 357 356 355 354 354 354 355 355 355 355 355 354 353 353 352 352 349 347 346 346 339 342 342 325 314 317 317 316 324 335 335 334 333 332 331 331 332 333 332 339
358 357 357 357 356 355 356 356 356 356 355 355 354 354 353 351 350 348 345 343 343 344 343 342 342 331 322 315 315 314 319 335 336 334 332 331 331 331 330 330 330 329

ECMWFNIL_sfc_thetae_045.txt.gz
Theta_e
351 351 350 350 350 350 350 349 349 350 352 353 353 353 354 354 354 354 354 353 351 350 349 346 346 343 341 339 337 335 334 333 333 331 331 334 331 330 331 330 328 328
351 351 352 351 350 350 350 351 350 350 351 353 353 353 354 354 353 354 353 352 351 349 348 346 345 343 340 338 336 334 333 333 333 336 332 333 331 331 331 331 331 328
351 351 351 350 350 350 350 350 351 350 350 352 353 353 353 354 352 352 353 352 349 348 346 345 344 343 340 338 336 335 334 333 332 334 334 333 332 331 331 332 331 330
351 351 351 351 351 351 351 350 350 350 349 350 351 352 352 353 352 351 351 354 349 347 345 343 342 341 340 338 337 335 335 334 334 334 335 334 334 333 332 332 334 332
351 351 351 351 352 352 352 351 350 350 349 350 350 351 351 351 350 350 350 350 349 346 344 342 340 339 340 338 336 335 335 334 334 334 334 333 333 334 333 333 332 332
352 352 352 352 352 352 351 351 351 350 350 349 349 351 350 350 350 349 349 348 348 347 344 341 339 337 338 338 336 336 335 334 334 334 334 333 333 335 335 333 331 331
352 352 352 353 352 352 352 352 352 352 351 350 350 349 349 349 349 348 348 347 347 346 344 341 338 336 336 337 336 335 334 334 333 334 333 333 334 333 335 333 333 331
352 353 353 353 353 352 352 352 352 352 352 351 349 349 349 349 348 348 347 346 345 344 343 342 339 337 335 336 336 335 334 335 333 333 333 333 333 332 333 335 333 331
352 352 353 353 352 353 352 353 353 353 353 351 350 349 349 349 348 347 347 345 344 343 342 341 340 338 336 335 335 335 334 334 334 333 333 333 332 332 332 333 332 332
352 352 353 353 352 353 353 353 353 353 354 352 351 350 348 349 348 347 346 344 343 342 341 340 339 338 337 336 335 335 334 334 334 333 333 334 333 333 332 332 332 331
352 352 352 352 353 353 353 354 354 354 354 353 351 350 349 348 347 347 346 344 343 341 340 340 339 338 337 337 336 335 334 334 334 334 333 334 334 334 337 333 333 332
352 352 352 352 353 353 353 354 354 354 353 353 352 350 349 348 347 346 346 344 344 342 341 340 339 338 337 337 337 336 334 333 334 334 334 333 334 334 335 334 333 332
353 353 353 353 353 353 354 354 354 354 354 353 353 352 350 348 347 346 346 345 344 343 341 340 339 338 338 337 337 336 335 333 333 333 333 333 334 334 334 334 334 333
353 354 354 354 354 354 354 354 355 354 354 354 353 351 350 349 347 346 345 345 344 343 342 341 339 339 338 337 337 337 336 334 333 333 333 333 333 334 334 334 335 334
354 354 355 355 355 354 354 354 354 354 355 354 353 352 351 350 349 347 345 344 344 343 342 341 340 339 339 338 337 336 336 335 335 334 333 333 333 333 333 334 334 334
354 354 355 355 355 354 354 354 354 354 354 354 353 353 352 351 349 347 346 344 343 342 342 342 341 341 336 329 332 337 336 336 336 335 334 334 333 333 333 334 334 334
354 354 354 354 354 355 354 354 354 354 354 354 353 353 352 351 350 347 346 345 343 342 342 342 342 341 329 326 327 330 336 336 336 335 335 335 334 333 332 333 334 334
354 354 354 354 354 354 354 354 354 353 353 353 353 352 352 352 350 348 347 346 345 343 342 342 342 333 326 325 326 327 331 338 336 336 336 335 335 334 334 333 333 334
354 354 354 354 354 354 354 354 353 353 352 352 352 353 353 351 350 349 348 347 345 343 342 343 342 331 325 323 325 325 327 333 337 336 335 335 335 335 334 333 333 333
355 354 354 354 354 354 354 353 353 352 352 353 353 353 352 351 351 349 349 347 346 345 344 344 343 330 323 321 322 323 326 329 338 337 336 336 335 335 335 334 333 333
355 354 354 354 354 354 353 353 352 352 352 352 352 352 351 351 351 350 350 349 348 347 345 344 345 328 321 320 319 320 323 326 337 338 337 336 336 335 335 334 334 334
355 354 354 354 354 353 353 352 352 352 351 352 352 352 352 352 352 352 350 349 349 348 346 345 346 325 320 319 318 319 322 332 335 337 337 336 336 336 335 336 336 334
355 355 354 354 354 353 352 352 352 352 352 352 351 351 351 351 351 351 351 351 350 349 347 346 346 328 319 317 317 318 322 334 335 336 336 336 336 336 336 336 335 335
355 355 354 354 353 353 353 353 353 353 353 352 351 350 350 350 351 351 351 351 350 349 349 347 347 330 315 315 315 316 324 335 335 335 335 335 334 335 335 334 336 341
355 355 355 354 354 354 354 353 353 353 353 353 352 352 351 351 351 351 351 351 351 351 341 346 348 333 314 315 314 315 324 336 336 335 334 335 335 333 334 335 333 340
355 355 355 355 354 355 355 354 354 354 353 352 352 352 351 351 350 350 350 350 351 350 349 347 348 344 321 314 313 314 318 335 337 335 334 334 334 333 332 333 333 334

ECMWFNIL_sfc_thetae_048.txt.gz
Theta_e
352 351 350 350 350 350 350 349 350 351 351 353 352 353 354 356 357 357 358 358 358 357 355 353 351 350 349 346 344 342 341 339 338 337 336 337 337 337 335 335 334 335
351 352 352 351 350 351 351 351 351 350 351 352 354 354 356 356 356 357 357 357 357 356 356 353 351 349 348 345 343 341 339 338 337 338 336 336 336 336 336 336 335 335
351 351 351 350 350 350 350 351 351 351 351 352 354 355 355 356 356 357 357 357 356 356 355 353 351 349 347 346 343 341 340 338 337 338 337 335 337 336 336 335 336 335
351 352 351 351 351 350 351 351 351 351 351 351 352 354 355 356 356 355 356 357 356 355 354 352 351 349 347 345 343 341 340 339 338 338 337 337 338 337 336 337 338 337
351 351 352 352 352 352 352 350 350 350 350 351 352 354 355 355 355 355 355 355 355 354 353 351 350 349 347 345 343 341 340 339 338 337 337 336 337 337 337 337 338 337
352 352 352 352 352 352 351 350 350 350 351 350 351 354 354 355 354 354 354 354 354 353 352 350 349 348 346 345 343 342 341 339 338 337 337 337 337 338 337 337 337 337
351 351 351 352 352 352 351 351 351 351 351 351 352 352 353 353 353 353 353 353 353 353 351 349 348 346 345 344 343 341 341 340 339 337 336 337 338 337 338 338 338 337
351 352 352 352 351 351 351 351 351 351 351 352 351 351 352 352 353 353 353 352 352 352 351 349 347 346 343 343 342 341 340 340 339 337 337 336 337 337 337 338 338 337
351 351 351 351 351 351 351 351 352 352 352 351 351 351 352 352 352 352 352 352 351 351 351 349 347 345 343 342 342 341 341 340 339 338 337 336 336 336 337 338 338 337
351 351 351 351 350 351 350 351 352 352 353 352 351 351 350 351 352 351 351 351 350 350 350 349 347 345 343 341 341 341 341 340 339 337 337 337 336 336 336 337 337 337
350 351 351 351 351 351 351 351 352 352 353 352 352 351 351 351 351 351 350 350 349 349 349 348 347 346 343 341 341 341 341 340 339 338 337 337 337 337 338 336 337 337
350 350 350 351 351 351 351 352 352 352 352 353 353 352 351 351 350 350 350 349 349 349 349 348 347 346 344 343 341 340 340 340 340 338 337 337 337 337 337 337 336 337
349 350 351 351 352 352 353 353 352 353 353 352 353 353 351 350 350 350 350 349 349 349 348 347 347 345 344 343 342 340 339 339 338 338 338 337 337 337 337 337 337 337
349 350 351 352 352 353 353 353 353 353 353 354 354 353 352 351 350 349 350 350 349 348 348 347 346 345 344 343 343 341 340 338 338 337 337 337 337 338 338 337 338 337
350 351 352 352 352 353 353 353 353 354 354 354 354 353 353 352 352 350 349 349 349 348 348 347 345 344 343 343 342 341 341 339 338 337 337 336 337 337 337 338 338 338
351 352 352 352 352 352 352 353 353 354 354 353 353 353 353 353 352 351 350 348 348 347 347 346 345 344 338 330 332 341 341 340 339 338 337 337 336 336 336 337 337 337
351 352 352 352 352 352 353 353 353 354 354 353 353 353 353 353 353 351 350 349 348 347 346 346 345 344 330 327 327 330 339 341 340 339 338 337 337 336 336 335 336 337
351 352 352 352 353 352 353 353 353 353 353 353 353 353 353 353 352 351 350 350 348 348 346 346 346 334 327 326 326 326 330 341 340 340 339 338 337 337 336 336 335 335
351 351 352 352 353 353 353 353 353 353 353 353 352 354 354 352 352 351 351 350 349 347 346 347 346 334 327 324 325 325 326 332 341 340 339 339 339 338 337 336 335 334
351 351 351 352 353 353 354 353 353 352 353 353 354 354 353 352 352 351 351 350 349 348 347 347 347 333 325 322 323 323 324 328 341 341 340 340 340 339 337 336 335 333
351 351 351 352 353 353 353 353 353 353 353 353 353 353 353 352 352 351 351 351 350 349 348 347 347 331 322 320 319 320 322 324 340 341 341 341 340 338 337 336 336 336
352 351 352 352 353 353 353 353 353 353 353 354 354 354 354 354 354 353 352 351 351 350 348 347 348 327 321 319 318 319 320 331 338 341 341 340 339 338 338 338 338 338
353 352 352 352 353 352 352 353 353 353 354 355 353 353 353 353 353 353 353 352 351 350 349 348 349 331 319 317 317 317 320 335 338 340 340 339 338 339 339 338 338 337
354 353 352 352 353 352 352 353 354 354 354 355 353 352 352 353 353 353 354 353 352 351 350 349 349 333 316 316 316 316 323 336 338 339 339 339 339 338 338 338 339 341
354 355 354 354 353 353 353 353 353 354 355 355 354 354 353 354 353 353 353 353 353 352 340 346 350 336 315 316 314 314 324 338 339 339 337 338 338 338 339 339 339 341
355 355 355 354 354 354 354 354 355 355 354 354 354 354 353 353 353 352 352 352 353 352 351 349 350 349 327 314 313 313 317 338 340 338 336 336 337 337 336 337 338 339

ECMWFNIL_sfc_thetae_051.txt.gz
Theta_e
360 360 358 358 358 359 359 360 360 360 361 361 361 363 363 366 368 368 368 367 367 365 364 363 364 364 365 364 363 361 360 359 357 356 355 353 352 350 349 349 349 348
360 360 359 359 359 360 361 361 361 361 362 363 363 363 366 367 368 368 367 367 366 365 365 363 364 363 365 363 362 360 359 358 356 355 353 353 352 351 349 349 348 349
360 360 359 358 357 358 357 360 361 362 361 362 364 365 365 366 366 368 368 367 366 364 363 363 363 362 362 364 363 360 358 357 355 353 352 352 351 350 350 347 347 349
361 360 359 358 358 358 359 359 360 361 361 361 361 362 363 364 365 366 367 367 366 366 364 363 363 362 362 362 362 359 359 357 356 355 352 352 351 350 349 349 347 347
360 360 360 360 360 361 361 360 358 359 359 359 361 363 364 364 365 364 365 366 366 365 363 361 362 362 362 361 361 360 358 356 355 355 352 351 351 350 349 348 348 345
361 362 362 361 361 361 360 359 359 358 359 358 360 361 363 364 364 363 364 364 363 362 362 362 361 361 361 361 360 359 358 356 355 353 351 351 350 349 348 348 347 346
359 360 360 361 361 361 360 360 360 360 359 360 362 361 362 361 362 363 364 364 363 362 362 362 362 362 363 360 359 359 358 357 355 353 351 351 351 349 348 348 347 347
359 360 360 360 360 360 360 359 360 360 361 362 360 362 362 361 362 363 364 364 363 363 364 363 363 363 363 362 359 359 357 356 355 353 351 351 350 350 348 347 348 347
359 359 359 360 359 359 358 358 359 360 361 360 360 360 362 361 362 362 363 364 363 364 365 365 364 364 364 362 360 360 357 356 354 353 351 350 349 349 349 348 347 347
359 359 358 357 357 358 357 358 358 359 360 360 359 359 359 361 362 363 364 364 363 363 364 365 364 363 362 361 360 360 359 357 355 353 352 351 350 350 349 348 347 346
357 358 357 357 356 357 357 357 357 358 359 359 359 358 359 361 361 363 363 363 361 362 363 363 363 363 362 360 360 359 359 357 355 354 353 352 351 351 349 349 347 347
357 357 356 357 357 357 357 357 357 358 358 359 359 358 359 359 360 360 361 362 362 362 363 363 364 363 362 361 359 358 357 357 356 354 352 352 352 351 350 350 348 348
356 356 357 357 358 358 358 358 357 357 358 358 359 358 358 358 358 360 360 361 362 362 361 362 363 363 362 361 360 358 357 356 355 354 352 351 351 350 350 349 348 348
356 357 358 359 359 360 359 359 358 358 359 360 360 358 357 358 357 358 360 360 361 361 362 362 363 362 362 362 360 358 356 355 354 353 352 351 350 350 349 348 348 347
358 359 360 360 360 360 359 359 359 359 360 360 360 359 358 358 359 358 359 359 360 360 361 361 360 360 361 360 359 358 356 354 354 353 352 351 350 348 348 347 347 347
360 360 360 361 360 360 360 360 359 360 359 360 360 360 360 360 360 360 358 358 358 359 360 359 359 360 348 336 340 357 357 354 353 353 352 351 350 348 347 346 346 346
358 359 360 359 359 359 360 360 360 360 360 361 360 360 360 361 360 359 358 358 358 358 358 358 358 356 336 330 331 335 352 355 353 352 352 351 350 349 347 346 346 346
357 358 359 359 360 360 360 361 360 360 360 360 360 360 360 361 360 360 360 359 358 358 357 358 358 340 331 328 328 328 335 354 353 352 350 350 349 348 348 347 346 345
359 359 359 359 359 359 360 361 360 360 360 360 359 360 361 360 360 360 359 360 359 358 357 357 358 337 329 326 326 326 327 339 353 353 351 349 349 349 348 347 347 346
359 358 357 358 359 360 360 360 359 359 359 359 360 360 359 359 359 360 360 360 359 359 358 358 358 337 326 324 324 323 324 333 353 352 352 350 350 349 348 348 348 347
359 358 358 359 360 360 360 359 359 359 359 359 359 359 359 358 357 359 359 359 359 358 359 357 357 332 324 322 321 320 321 327 351 352 352 351 351 350 349 349 348 347
358 358 359 360 359 359 359 358 359 360 359 360 359 359 360 359 359 360 359 358 359 358 357 356 358 329 323 321 319 318 320 338 348 351 351 350 351 350 350 350 349 348
359 359 359 359 359 359 359 358 359 359 361 362 359 359 358 358 358 359 360 360 359 358 357 357 358 336 321 318 317 317 323 342 346 349 350 350 350 351 350 350 349 350
360 360 359 359 359 358 358 358 359 361 361 361 359 358 357 358 359 358 359 360 359 357 358 357 357 339 317 316 316 315 327 344 346 348 349 349 348 350 351 350 349 343
359 359 358 358 358 359 359 359 359 360 361 361 360 360 359 360 359 358 358 359 360 359 343 352 358 341 317 317 315 314 329 347 348 348 348 348 348 348 350 350 350 344
359 359 359 358 359 359 360 360 362 361 361 361 360 360 359 360 358 357 357 358 358 358 358 358 358 360 334 315 314 313 320 347 350 348 347 347 349 347 346 346 346 347

ECMWFNIL_sfc_thetae_054.txt.gz
Theta_e
366 366 365 364 365 364 364 365 365 365 365 363 363 366 366 369 370 369 371 372 374 372 371 370 370 367 367 368 369 368 367 366 364 363 362 359 358 356 353 353 353 349
366 366 366 366 366 366 366 366 367 366 367 367 366 366 369 370 371 371 371 372 374 373 372 370 370 369 368 366 368 366 366 365 364 363 362 361 359 358 354 355 352 352
367 367 366 365 363 365 364 367 368 368 366 367 368 368 368 371 371 373 373 373 372 371 372 371 370 369 367 367 368 367 365 365 363 363 362 362 360 358 357 352 352 351
368 367 366 365 365 365 366 366 367 368 367 366 367 367 367 368 371 372 373 373 372 372 372 371 369 368 368 367 367 364 366 365 363 364 362 363 361 359 357 355 352 351
368 368 367 367 366 367 368 366 364 365 366 365 366 368 368 369 370 370 372 372 372 371 371 371 370 368 369 368 367 364 363 362 364 365 363 361 362 359 357 355 353 349
369 370 370 368 368 367 366 365 366 365 366 364 366 366 367 369 369 368 369 369 370 368 368 370 369 368 367 368 366 364 362 360 362 365 362 360 359 358 357 355 354 351
367 369 368 368 368 367 367 366 367 367 365 366 368 366 367 368 368 369 369 369 368 369 368 369 370 368 368 368 366 365 364 363 362 364 361 359 360 358 357 356 355 353
368 368 368 369 368 367 367 366 367 366 367 368 367 368 369 367 369 369 369 369 368 369 370 369 370 370 367 368 367 365 364 362 361 361 360 359 359 357 356 356 356 354
367 367 368 368 367 366 365 365 366 368 369 367 365 366 369 368 368 369 370 370 369 369 371 370 370 369 368 368 367 367 365 362 360 360 359 358 357 356 356 357 356 355
367 366 366 365 365 365 365 365 365 366 368 367 366 365 365 369 369 369 370 371 370 370 370 371 370 369 368 368 368 368 366 364 363 362 360 358 357 357 357 357 356 355
365 365 364 365 364 364 364 364 364 364 366 367 366 365 365 368 369 370 370 371 369 370 370 370 370 370 369 368 369 369 367 365 365 363 362 360 360 361 359 360 357 355
365 364 363 364 364 363 363 363 364 364 364 366 366 365 366 365 368 368 368 370 371 371 371 371 372 371 370 369 367 368 369 368 367 364 362 362 363 363 362 361 359 357
363 363 363 364 364 364 363 363 363 362 363 364 365 366 365 364 364 367 368 369 371 371 370 371 372 371 370 371 370 369 369 368 366 365 364 364 364 362 361 360 359 358
364 364 364 365 365 367 366 364 363 363 364 365 365 365 364 364 363 365 368 368 369 371 371 371 372 371 371 372 371 369 368 368 366 366 364 364 364 363 361 360 359 358
365 365 366 365 365 367 366 365 365 366 365 365 366 366 365 365 365 364 367 368 369 370 371 370 369 370 371 370 369 368 368 366 366 365 364 363 363 362 361 360 360 359
365 367 367 367 366 365 367 366 365 365 365 365 365 366 368 367 367 366 365 366 367 368 369 369 369 370 357 342 348 368 368 366 365 365 364 363 363 361 360 360 359 359
367 366 367 366 367 366 368 367 366 366 366 367 366 367 367 368 367 365 364 364 366 367 367 368 368 366 339 335 337 342 362 366 364 364 364 363 362 362 360 359 359 359
366 367 367 367 367 367 368 368 367 366 366 367 366 366 368 368 366 365 366 365 365 366 366 367 368 346 332 332 334 335 344 365 365 363 363 362 362 361 361 360 359 358
367 367 367 367 367 368 368 369 368 366 366 366 365 367 367 367 367 366 366 366 365 365 365 365 367 339 330 329 331 332 334 347 363 364 362 361 361 361 361 361 360 358
367 367 366 367 368 368 368 368 367 366 366 365 366 367 367 366 367 366 367 367 366 366 366 366 367 338 328 326 327 328 331 339 362 363 362 361 361 361 361 361 361 359
366 366 366 367 368 368 368 367 367 367 366 365 364 364 365 366 366 366 366 367 367 366 366 365 365 332 325 323 323 324 327 333 360 361 361 361 360 361 362 361 361 360
365 365 365 366 366 366 366 365 366 367 366 366 365 364 366 367 368 367 366 367 367 367 365 364 365 329 322 321 321 322 324 347 358 359 360 360 359 359 359 360 358 358
365 364 364 364 365 365 365 364 365 366 367 368 365 364 363 365 366 366 367 366 366 366 364 363 365 340 319 319 319 319 327 353 357 358 358 357 358 359 358 358 358 358
365 365 364 364 365 364 364 364 364 366 366 367 365 363 362 363 365 366 367 367 365 364 362 363 364 342 316 317 317 317 330 353 356 357 356 356 355 357 357 357 356 344
364 364 364 363 364 363 363 364 364 365 366 367 366 366 364 365 364 365 366 367 364 362 346 357 363 343 315 317 315 315 332 356 357 357 356 356 355 355 356 354 356 348
364 365 365 363 364 365 366 365 366 365 365 365 366 365 365 364 363 364 364 365 365 364 363 361 361 365 337 314 314 314 321 353 358 354 354 355 355 353 352 354 354 356

ECMWFNIL_sfc_thetae_057.txt.gz
Theta_e
367 367 365 363 362 362 362 363 366 367 367 362 361 364 364 366 367 366 366 368 371 371 370 370 371 371 370 371 372 370 367 366 365 363 363 360 358 355 353 353 354 352
367 367 367 365 364 364 364 364 366 367 368 367 364 363 367 367 367 366 366 368 369 371 372 370 371 372 371 368 371 370 369 367 365 364 363 361 359 356 354 356 353 353
367 367 366 364 361 363 360 364 366 367 366 367 367 365 364 368 368 370 368 368 369 370 372 371 370 371 370 368 370 370 369 368 366 363 364 362 360 356 357 355 355 353
368 367 365 364 363 363 364 363 364 367 367 366 367 364 363 364 369 369 370 371 370 370 371 371 369 368 370 368 369 368 369 369 368 367 363 363 362 359 356 358 356 354
368 367 366 366 364 366 366 365 362 364 366 366 366 368 366 367 368 368 370 370 371 371 371 370 369 368 370 369 369 367 367 367 368 368 364 362 364 361 357 356 356 353
369 369 369 367 367 366 364 365 365 363 365 364 365 366 367 367 367 368 369 369 369 369 366 368 370 368 367 370 369 368 365 364 364 367 365 363 362 361 358 356 357 355
367 368 368 368 366 368 366 366 366 367 364 366 367 366 367 367 368 369 369 371 370 370 367 368 370 368 368 369 369 368 366 365 365 366 365 364 363 360 358 357 357 356
367 368 368 370 368 367 366 365 367 367 367 367 366 367 368 366 369 368 369 370 370 371 371 368 370 371 367 368 369 368 367 364 362 365 365 364 362 361 359 357 357 356
367 367 369 369 366 366 364 364 365 368 369 367 365 366 369 368 368 369 371 371 371 371 372 370 371 371 370 369 369 369 366 364 362 363 363 361 359 358 358 358 356 356
368 368 367 367 365 365 364 364 363 366 368 368 366 365 365 369 370 371 372 372 370 370 371 372 370 370 371 369 369 369 368 366 365 364 363 361 359 359 358 358 356 356
367 366 367 367 364 363 362 362 361 361 366 367 367 364 363 368 370 371 372 373 369 369 370 371 370 371 371 369 368 369 369 367 365 365 364 363 361 361 360 359 358 356
368 366 365 365 363 362 360 360 359 360 362 366 367 365 364 362 369 370 370 372 373 371 371 372 373 372 372 371 368 368 369 368 367 365 363 364 363 361 361 360 358 358
366 365 364 364 364 362 361 359 359 358 359 362 366 366 364 362 363 369 370 372 373 372 371 372 373 373 373 372 370 369 369 369 367 366 364 364 363 361 361 360 360 359
367 367 366 366 366 369 364 361 360 360 361 362 365 367 365 363 361 365 370 371 372 373 373 374 375 373 373 374 372 369 369 370 369 366 364 364 363 362 361 361 361 361
370 369 369 368 367 369 366 363 362 363 364 364 366 366 366 365 364 362 368 370 372 373 373 373 373 373 374 372 372 371 370 369 368 367 365 364 364 363 362 362 362 362
372 372 371 371 368 368 371 368 363 364 363 363 365 365 368 369 369 366 364 368 370 372 373 373 373 374 361 346 352 371 371 368 368 368 368 366 365 364 363 362 361 361
373 372 372 372 372 371 373 372 369 367 369 370 369 368 370 374 369 366 364 365 369 370 371 372 372 371 344 337 340 346 366 370 368 369 369 368 366 366 364 362 362 362
372 373 372 372 372 373 373 373 370 369 370 370 368 367 371 368 368 368 369 366 367 369 370 371 372 352 335 335 337 338 347 371 369 368 368 367 366 364 364 363 362 361
372 372 372 372 372 372 373 374 372 371 369 368 367 369 369 370 372 368 369 368 367 369 369 370 372 345 333 332 335 335 336 351 368 369 367 367 366 365 364 365 364 362
372 372 372 372 373 373 372 372 372 371 368 368 369 369 369 370 369 370 371 371 369 370 370 370 371 343 330 329 331 331 333 342 367 368 368 367 367 366 365 365 365 363
372 371 371 372 373 373 372 371 371 372 370 368 367 368 369 370 369 370 370 371 369 367 367 367 369 337 327 326 327 327 330 335 366 366 367 368 368 368 368 366 366 365
371 371 371 372 372 372 371 370 371 372 371 370 368 367 369 370 371 370 369 369 370 369 365 365 366 331 324 325 325 325 327 350 364 365 364 366 367 368 368 368 368 367
371 370 370 370 371 370 370 369 369 371 371 371 368 367 366 367 369 369 371 370 370 370 368 367 367 340 320 322 323 322 329 357 363 363 363 363 365 367 367 367 367 368
371 370 369 369 370 369 369 369 369 371 371 372 368 365 363 365 368 369 371 370 368 368 368 369 368 345 317 319 320 319 332 358 362 362 362 362 362 365 366 364 364 353
369 369 369 369 370 370 369 369 369 370 371 371 369 368 366 367 366 367 369 370 369 368 355 363 368 348 316 318 317 318 332 360 362 362 361 361 361 362 364 363 364 355
369 371 370 369 369 370 370 369 371 370 370 369 369 368 367 366 364 365 366 367 369 369 368 368 367 371 339 316 316 316 321 357 364 361 359 360 361 360 360 362 363 363

ECMWFNIL_sfc_thetae_060.txt.gz
Theta_e
364 364 364 363 362 362 363 366 367 365 365 364 365 365 364 367 368 367 366 368 370 370 370 371 369 370 370 371 372 372 370 366 364 366 364 362 358 356 354 354 354 356
364 365 365 364 363 363 364 366 369 368 368 367 366 367 368 369 367 368 367 367 369 369 370 370 371 370 370 369 371 370 371 368 366 366 364 362 360 357 355 355 353 355
364 365 365 363 361 363 359 363 367 369 369 368 368 369 369 368 368 368 370 368 368 368 371 370 370 371 370 371 372 370 369 368 365 363 364 362 361 359 357 353 354 355
364 364 363 361 362 362 361 361 363 367 367 368 366 365 366 364 366 367 367 370 368 368 370 371 369 369 371 371 372 370 369 369 367 366 364 364 363 360 357 356 354 354
364 364 363 362 363 364 362 360 358 362 363 364 367 367 365 366 367 366 366 367 369 369 371 371 370 370 371 370 370 369 368 369 368 368 365 363 363 362 359 357 356 354
364 364 365 363 363 364 362 359 359 359 360 360 365 367 366 365 368 366 367 366 366 366 367 369 370 369 370 370 369 368 366 366 367 368 365 363 361 362 360 358 356 355
364 364 364 364 364 363 362 361 360 360 361 361 365 365 367 364 364 366 368 368 365 364 365 367 369 368 368 369 368 366 367 367 366 367 365 363 362 361 360 359 357 355
363 364 364 363 362 362 361 361 362 361 362 365 364 366 367 365 364 363 367 369 368 367 367 368 370 369 367 368 367 366 366 366 365 367 365 364 363 361 361 359 358 356
364 364 363 361 359 359 357 357 361 363 363 364 363 363 366 366 366 364 365 368 368 369 369 369 370 369 368 367 367 367 366 364 363 364 365 363 362 361 361 360 357 356
364 364 360 359 359 360 358 356 358 360 363 363 363 362 363 365 367 367 368 368 368 369 370 369 369 369 368 367 367 368 367 365 363 362 364 364 363 362 361 360 357 356
362 363 364 362 361 359 358 357 357 359 361 360 360 359 363 365 366 368 369 369 367 368 370 370 369 369 368 366 367 368 368 367 365 363 362 364 364 363 363 360 358 356
362 361 361 361 361 360 358 359 357 357 360 362 363 360 360 362 366 365 368 369 368 368 370 371 370 370 369 368 366 367 368 367 366 364 362 363 364 364 362 361 359 357
363 361 361 362 363 361 359 359 358 357 357 360 363 362 358 356 363 366 366 370 370 369 368 370 370 370 370 370 368 367 368 368 366 365 363 362 363 362 361 360 359 359
364 362 362 363 363 363 362 361 359 358 358 360 364 363 360 359 359 365 367 368 370 370 370 370 371 371 371 371 370 369 368 368 367 366 364 363 362 362 362 360 359 359
365 365 364 363 363 364 363 361 361 361 360 360 363 364 363 362 360 360 366 367 369 371 370 370 369 370 370 370 370 369 368 366 367 366 365 363 362 362 362 362 361 359
367 367 366 365 364 365 364 362 362 361 360 359 360 364 365 366 363 360 361 367 367 370 372 371 369 370 359 347 352 368 368 366 366 367 366 364 363 362 361 362 361 359
368 368 368 366 366 365 366 363 362 362 361 361 361 362 364 367 366 364 359 361 367 368 370 370 369 368 346 338 340 346 363 366 365 366 367 366 364 362 360 360 360 359
369 370 369 368 367 365 366 365 363 361 361 362 362 362 364 367 367 366 364 360 365 368 368 369 369 352 337 336 337 339 347 366 366 365 366 366 364 363 363 361 361 360
371 370 369 369 368 366 367 367 365 362 361 361 361 362 363 365 367 367 366 365 363 367 368 369 370 347 334 333 335 335 337 350 366 365 364 365 365 363 362 362 362 361
372 371 370 370 370 369 368 368 367 363 361 361 362 364 364 364 365 367 367 367 365 366 368 369 370 347 331 330 331 332 334 341 365 366 366 365 365 365 363 363 364 362
373 372 371 371 372 371 369 369 369 368 365 362 361 363 363 363 364 365 367 367 367 365 366 368 369 342 328 327 328 328 330 334 362 366 366 366 366 367 366 365 365 365
373 373 373 372 372 372 370 369 371 370 367 366 363 362 365 367 368 366 365 366 368 367 364 364 366 336 327 326 326 326 328 344 359 363 364 365 367 367 368 368 367 365
373 373 373 373 372 371 370 370 371 371 371 369 365 365 365 366 366 366 367 367 367 368 366 364 364 342 323 323 323 324 328 350 358 361 363 363 363 367 368 368 368 367
374 374 372 372 373 371 370 371 372 371 371 371 367 364 363 365 366 367 368 369 367 367 367 366 367 348 319 319 320 322 331 353 358 360 362 362 362 363 366 369 369 355
374 374 373 372 372 372 371 371 371 371 372 373 368 366 363 366 367 367 368 369 367 366 355 363 367 353 319 318 318 319 329 355 360 360 361 361 361 361 363 365 367 358
373 374 373 371 371 373 373 372 372 370 371 371 370 367 365 364 365 366 368 368 367 366 366 366 367 368 346 316 316 316 320 352 361 361 360 361 362 361 361 362 363 364

ECMWFNIL_sfc_thetae_063.txt.gz
Theta_e
354 355 355 355 355 356 357 356 356 355 356 356 357 358 358 358 359 359 359 361 362 361 362 362 362 361 361 361 363 360 361 358 357 357 355 351 350 347 348 346 345 340
354 355 357 356 356 357 358 358 356 355 356 357 358 359 360 361 361 359 359 361 362 362 362 363 361 361 361 360 362 361 359 358 357 360 357 353 350 349 348 347 347 345
355 355 355 355 355 356 357 359 358 356 355 358 358 359 360 362 361 360 359 361 361 362 362 363 362 361 361 361 361 362 360 358 357 359 357 356 352 350 349 349 347 346
355 355 355 356 356 356 356 359 359 358 357 357 359 360 361 363 362 360 360 364 361 361 362 362 362 361 361 361 362 361 361 360 359 359 358 356 355 352 350 349 348 348
355 355 356 356 356 357 356 356 359 360 359 358 359 361 361 360 360 360 360 360 360 361 362 362 362 362 361 361 362 361 361 361 360 359 357 356 356 354 352 350 348 347
357 357 356 356 356 356 355 354 356 361 361 361 360 361 361 360 360 360 359 360 360 361 361 362 361 362 362 361 362 362 361 361 361 359 357 356 356 356 355 352 349 347
356 357 357 357 356 356 355 354 354 356 361 362 362 361 360 360 359 359 358 359 361 361 361 362 362 361 362 362 362 362 362 362 361 360 358 357 356 355 356 353 350 348
356 357 357 357 356 355 355 354 354 354 356 359 360 361 360 358 359 360 359 358 359 361 361 362 363 362 362 363 362 361 361 362 362 360 359 358 356 355 355 355 352 348
357 356 356 356 355 355 355 355 354 353 354 355 357 360 361 359 357 360 360 359 358 359 360 361 363 363 363 363 362 361 360 361 361 361 359 358 357 355 355 354 352 350
356 356 355 355 354 355 354 355 355 354 354 354 355 357 360 361 359 357 359 360 359 358 358 359 362 363 363 362 362 361 360 359 360 360 360 360 358 357 356 355 353 351
356 356 355 354 354 354 354 355 355 354 354 354 355 355 357 359 360 358 357 360 361 359 358 358 360 363 362 362 362 362 361 360 359 359 359 360 359 358 360 356 355 353
356 355 355 354 354 354 354 355 354 354 354 354 355 355 356 358 359 359 357 356 360 362 361 360 360 362 362 362 361 361 361 360 360 358 358 358 360 359 359 357 356 354
355 355 355 354 354 354 354 354 353 353 354 354 355 355 356 357 358 359 359 357 357 360 362 362 361 362 362 362 361 361 361 360 360 359 358 357 358 359 359 359 358 356
356 356 355 355 354 354 353 353 353 352 352 355 355 354 354 355 357 358 359 360 359 359 360 363 363 362 362 362 362 361 361 361 360 360 359 357 357 358 359 359 359 358
356 356 355 355 355 353 352 352 352 351 352 353 354 354 355 354 356 358 358 359 361 360 360 361 363 363 363 362 362 361 360 360 361 360 360 358 357 356 358 359 359 359
356 355 355 355 355 354 353 353 353 352 351 352 354 354 353 353 353 356 358 358 359 361 361 361 362 364 356 345 349 361 361 360 361 361 360 359 358 356 356 357 358 358
356 355 355 354 355 355 355 354 353 353 352 351 353 355 354 354 353 352 355 358 358 359 361 361 362 361 344 337 338 343 358 361 360 360 360 360 359 357 355 355 356 357
357 356 355 354 354 355 355 354 354 353 352 351 352 354 356 356 355 353 353 357 359 359 361 362 362 349 337 334 335 335 343 361 361 360 360 360 359 358 358 356 356 356
359 357 356 355 354 355 355 355 353 353 352 352 351 353 356 356 356 355 354 355 359 359 359 361 362 345 335 332 333 333 334 346 361 360 359 359 360 359 358 358 356 355
360 358 357 357 356 355 355 355 354 352 353 353 353 353 353 356 357 357 356 354 356 359 360 361 362 347 333 330 330 330 332 337 359 360 359 359 359 360 359 358 357 356
361 359 358 358 358 357 356 356 355 354 353 353 353 352 352 353 356 357 357 357 356 357 360 361 363 342 330 328 327 327 329 333 356 360 359 359 359 359 360 359 359 358
362 360 360 359 359 359 357 356 356 356 354 353 353 353 353 353 354 357 358 358 358 356 356 359 363 337 329 327 326 326 327 343 353 357 358 358 358 358 359 360 360 359
363 362 361 361 361 360 358 357 357 357 356 355 352 352 352 353 353 354 357 359 359 358 356 356 360 343 328 325 324 324 328 348 353 355 357 357 358 358 359 360 360 360
364 363 362 362 361 361 360 359 359 359 359 357 354 352 352 353 354 355 356 357 358 359 359 357 357 345 324 324 322 322 331 351 353 355 356 357 357 358 359 359 361 353
365 365 364 363 362 362 362 361 360 360 361 361 358 355 353 354 355 355 356 357 358 359 353 357 359 349 322 320 320 320 330 352 355 355 355 356 356 357 358 359 359 357
366 366 365 364 364 364 364 364 363 363 363 362 361 359 356 355 356 357 356 357 358 358 359 359 359 360 344 315 316 316 320 348 355 355 354 355 357 357 357 358 358 358

ECMWFNIL_sfc_thetae_066.txt.gz
Theta_e
350 350 349 348 351 351 348 348 351 349 349 352 353 353 354 355 356 357 356 358 360 360 361 361 362 361 361 360 358 357 356 355 353 352 348 347 342 343 342 341 339 340
350 350 351 350 349 352 352 350 351 352 350 352 354 355 355 356 355 357 356 357 359 359 360 361 361 361 360 359 358 356 356 355 353 356 350 347 346 344 344 342 342 339
350 350 350 350 349 349 353 353 352 353 352 352 354 355 356 357 355 356 357 357 358 358 359 360 360 360 360 358 358 357 356 355 353 354 353 348 348 346 344 345 343 342
350 350 350 351 351 349 351 354 353 352 354 353 354 356 357 358 356 356 356 360 357 358 358 359 360 360 359 358 357 358 357 356 356 355 354 352 349 348 346 345 345 344
350 351 351 351 352 352 351 353 354 353 352 354 355 356 357 357 357 356 355 357 357 357 358 358 359 359 359 358 357 356 357 356 356 355 354 353 352 349 347 346 345 344
351 351 352 352 352 352 352 352 354 354 353 353 355 357 357 358 357 357 356 356 357 358 358 358 359 359 358 358 357 356 357 357 356 355 354 353 353 352 350 347 346 344
350 351 351 352 352 353 353 353 354 356 355 354 354 356 357 358 358 357 357 356 357 357 358 358 358 358 358 358 357 356 356 357 357 355 354 354 353 352 352 349 346 345
351 351 352 352 352 352 353 353 354 356 356 355 353 354 357 357 358 358 358 357 356 356 357 358 358 358 358 358 356 356 356 357 357 356 355 354 353 352 352 352 349 346
352 352 352 351 351 351 352 353 353 354 357 356 354 354 356 357 357 357 358 357 357 357 357 357 358 358 358 358 357 356 356 357 357 357 356 354 353 353 353 353 351 349
352 352 352 352 351 351 351 352 353 353 356 358 357 356 355 357 357 356 356 356 356 356 356 357 357 358 358 358 358 357 356 356 357 357 357 356 355 354 354 353 352 350
352 352 352 352 352 352 351 352 352 352 353 355 358 358 357 356 357 357 356 356 355 355 356 357 357 358 358 358 358 359 358 357 357 358 357 357 357 356 358 354 353 352
352 352 352 352 353 353 352 352 352 352 352 352 354 357 358 358 357 356 357 356 356 355 355 357 358 358 358 358 358 359 358 358 358 358 358 358 358 357 356 355 354 353
352 352 353 353 353 353 354 353 353 353 352 351 352 353 355 357 358 356 356 357 357 356 355 356 357 358 359 359 359 359 359 358 358 358 358 358 358 358 358 357 356 355
353 353 353 353 353 354 353 353 353 353 352 352 352 351 351 353 356 357 357 356 356 357 357 356 355 356 357 359 359 359 359 359 358 358 357 357 357 358 358 358 357 356
354 354 354 354 354 353 353 353 353 352 353 352 351 351 352 351 353 356 357 356 355 355 357 358 357 356 356 357 358 359 359 358 358 358 357 356 356 356 357 358 358 357
354 354 354 354 353 352 352 352 352 352 352 352 351 351 351 351 351 352 354 356 355 354 355 357 358 358 351 341 344 358 359 359 358 358 357 357 355 355 355 356 357 358
354 354 354 353 353 353 352 352 351 351 351 351 351 351 350 350 351 351 352 354 355 355 354 354 356 358 342 335 335 339 355 358 358 357 357 357 356 355 354 354 355 356
354 354 354 353 353 352 352 352 351 350 350 350 349 350 351 351 350 350 351 353 354 354 355 355 355 344 336 334 334 333 340 358 358 357 357 357 357 356 356 355 354 354
355 354 354 353 353 353 353 352 351 350 349 348 348 349 350 350 349 350 350 352 353 353 354 355 355 341 333 331 332 331 331 342 358 358 357 357 357 357 357 356 355 354
356 355 354 354 353 353 353 352 351 349 349 349 349 348 348 349 350 349 349 349 351 353 353 355 356 343 332 328 328 329 330 335 356 358 357 357 357 357 357 357 356 355
357 356 354 354 353 353 352 352 351 350 350 349 349 348 347 348 349 349 349 349 349 351 353 353 355 339 329 326 325 325 328 330 353 357 358 358 358 358 358 358 357 357
358 356 355 354 353 352 351 351 351 351 350 350 350 349 349 349 350 351 350 349 349 349 350 351 355 335 328 325 324 324 326 340 350 355 356 357 357 358 358 358 358 358
359 358 356 355 354 353 351 351 351 351 352 352 350 349 349 348 349 351 352 351 351 350 349 350 353 341 326 323 323 323 325 344 349 352 355 356 356 357 357 357 358 358
359 359 357 356 355 353 352 352 352 353 352 353 350 349 349 349 349 350 352 354 353 352 351 350 351 344 325 321 321 321 329 347 350 351 353 354 355 356 357 357 357 350
360 360 359 357 356 355 355 353 352 352 353 353 352 351 350 350 350 350 350 352 354 355 348 350 352 345 325 321 319 319 328 347 351 351 351 352 353 354 356 357 357 354
360 360 359 358 357 357 357 356 355 354 354 353 353 352 351 350 350 350 349 350 352 354 356 355 354 355 339 319 318 317 320 346 352 352 351 352 353 353 354 355 356 357

ECMWFNIL_sfc_thetae_069.txt.gz
Theta_e
349 349 348 348 348 348 346 346 346 345 346 349 350 351 352 354 355 355 355 355 356 358 358 358 358 358 359 358 358 357 355 354 353 350 347 343 340 340 340 338 336 337
349 349 350 349 348 349 347 347 347 347 345 348 350 351 353 353 354 355 355 355 356 357 358 358 358 358 358 358 357 356 354 354 352 353 348 345 342 340 340 339 339 337
348 348 349 348 347 348 348 347 347 348 347 347 349 351 352 354 353 354 355 355 355 356 357 358 358 358 358 357 357 356 355 353 352 352 350 346 345 342 341 341 339 338
348 348 348 349 348 348 350 348 346 348 349 347 349 351 353 354 354 354 354 358 354 355 356 357 358 358 358 357 356 355 355 354 354 352 351 349 347 346 344 342 342 341
348 348 348 349 349 348 349 349 347 347 349 349 349 351 353 353 353 353 353 354 355 354 355 356 357 357 358 357 356 355 355 354 353 352 351 350 349 347 346 344 342 341
349 349 349 349 349 348 347 349 350 349 349 350 350 352 352 353 353 353 353 353 354 354 355 355 356 357 357 357 356 355 355 354 354 352 351 350 351 349 348 346 344 342
347 348 348 349 349 349 348 348 350 351 350 350 351 351 352 353 353 353 353 353 354 354 354 354 355 355 356 356 355 354 354 355 354 353 352 351 351 350 349 347 345 344
347 348 349 349 348 348 348 348 348 350 352 351 350 352 353 353 353 354 354 353 353 353 354 354 355 355 356 356 355 354 354 355 354 353 352 352 351 350 350 350 347 345
348 348 348 348 348 348 348 349 349 349 352 352 351 351 353 354 354 354 354 353 353 353 353 354 355 355 355 355 355 354 354 354 354 354 353 352 351 351 351 351 349 347
347 348 348 348 348 348 348 349 350 350 352 352 352 352 351 354 355 354 354 354 353 353 353 354 354 355 355 355 355 355 354 354 354 353 354 353 353 352 352 351 350 349
347 347 347 347 348 348 348 349 350 351 351 352 353 352 352 352 354 355 354 354 354 353 353 353 354 355 355 355 356 356 355 354 354 354 354 354 354 353 355 352 351 350
347 347 347 348 348 348 349 349 350 351 351 352 353 353 353 352 352 354 354 354 354 354 354 353 354 354 355 355 355 356 355 355 355 354 354 354 354 354 354 353 352 352
348 348 348 348 349 349 349 349 350 350 351 351 353 354 354 353 352 352 354 354 354 355 354 354 354 354 355 355 355 355 355 355 355 354 354 354 355 355 355 354 354 353
349 349 349 349 350 350 350 350 350 350 350 351 352 352 354 354 353 352 352 353 353 353 354 354 354 354 354 355 355 355 355 355 355 354 354 354 354 355 355 355 355 355
350 351 351 350 351 350 350 350 350 350 350 350 350 350 352 354 355 355 353 352 353 353 353 354 353 353 355 355 354 355 355 355 355 354 354 353 354 354 355 355 356 356
351 351 351 351 350 350 350 350 350 350 350 349 349 350 350 351 352 355 355 354 353 353 353 354 354 354 348 339 342 355 355 356 355 355 355 354 353 353 354 355 356 356
351 351 351 350 351 351 351 351 351 351 350 350 349 349 349 349 350 350 352 354 354 353 352 353 354 354 339 333 333 337 352 355 355 355 355 355 354 354 353 354 354 355
351 351 351 351 351 350 351 351 351 351 350 350 349 349 349 349 348 348 348 350 352 354 354 353 353 342 334 331 331 331 337 355 356 355 355 355 355 355 355 354 354 354
351 351 351 351 351 351 351 351 350 350 350 349 349 350 349 348 348 348 347 348 348 349 351 353 353 339 332 330 330 329 329 338 354 355 355 355 355 355 355 355 354 354
352 351 351 351 352 352 351 351 350 350 350 350 350 350 349 349 348 348 348 347 347 347 348 350 351 340 330 327 327 327 327 331 349 353 354 355 355 355 355 355 355 354
352 352 351 351 352 352 351 351 350 350 350 350 350 349 348 348 348 347 348 348 348 348 347 348 350 335 328 325 324 323 325 327 346 351 353 354 355 355 355 355 355 356
353 352 352 352 352 351 351 350 350 350 350 350 350 350 349 349 348 349 348 348 348 348 347 347 349 332 326 324 322 322 324 336 344 348 351 353 354 355 355 356 356 356
354 353 353 352 352 351 351 351 350 350 350 351 349 349 348 348 347 348 348 348 348 348 347 347 348 337 325 321 321 320 323 339 344 347 350 351 353 354 355 356 356 356
356 355 354 353 353 352 351 351 352 352 351 351 349 348 348 348 348 348 348 348 347 347 348 347 347 339 325 320 319 319 327 341 344 346 348 350 351 353 355 355 356 352
358 357 356 355 354 353 353 352 352 352 352 352 351 350 349 349 349 347 347 347 348 348 343 346 347 341 325 320 318 317 326 342 346 347 347 348 350 351 353 354 355 354
359 358 357 356 355 355 354 354 354 353 352 351 351 351 350 349 349 348 347 347 348 348 349 348 348 348 342 320 317 315 319 341 346 347 347 348 349 350 350 352 353 354

ECMWFNIL_sfc_thetae_072.txt.gz
Theta_e
350 350 349 349 349 349 349 348 348 348 348 351 352 353 354 356 357 357 357 358 358 359 359 360 360 360 361 361 361 361 360 359 358 357 355 352 350 348 345 343 342 344
350 350 351 350 350 350 350 350 349 348 348 349 352 353 355 356 356 357 357 357 358 358 359 359 360 360 360 360 360 360 359 359 358 357 355 352 351 348 346 346 344 344
350 350 350 349 348 349 349 349 350 349 348 348 351 353 354 356 355 357 357 357 356 357 358 359 360 360 360 360 360 360 359 358 357 358 356 354 352 349 348 346 345 344
350 350 350 350 350 349 350 349 349 349 349 348 348 351 353 355 356 355 356 359 356 356 358 359 359 360 360 360 360 359 359 359 359 359 356 355 354 351 349 348 346 346
350 350 350 350 350 351 350 349 348 348 348 349 349 351 353 354 355 355 355 356 356 356 357 358 359 360 360 360 360 359 358 358 358 358 356 355 355 353 351 349 348 346
350 351 351 350 350 350 349 349 349 348 349 349 349 351 352 353 354 354 354 354 355 356 356 357 357 358 359 360 359 359 358 357 358 357 356 355 355 354 353 352 350 348
349 350 350 350 350 350 349 350 350 350 349 350 351 350 352 352 353 354 354 354 355 355 355 355 356 357 359 359 359 358 358 358 358 357 356 356 356 355 354 353 352 350
349 350 350 350 349 349 349 349 350 350 350 350 350 351 352 352 353 353 354 354 354 354 355 355 356 357 357 358 358 357 357 357 357 356 356 356 356 355 355 354 353 352
349 349 350 349 349 349 348 348 349 351 352 350 350 350 352 352 353 353 354 354 354 354 355 355 355 356 357 357 357 357 357 357 357 357 356 355 354 355 355 355 354 352
349 349 349 349 348 348 348 349 349 349 352 351 351 351 351 353 354 354 354 354 353 354 354 354 355 355 356 357 357 357 356 356 357 357 357 356 356 356 356 355 354 354
348 348 348 348 348 348 348 349 349 349 350 351 352 351 352 352 354 354 354 354 353 353 354 354 354 355 355 356 356 357 357 356 357 357 356 356 356 357 357 356 355 354
347 347 347 348 348 348 349 349 350 350 349 351 352 352 352 352 353 354 354 354 354 354 354 354 355 355 355 356 356 357 357 357 357 357 356 357 357 357 357 357 356 355
347 347 348 348 348 349 349 349 349 350 350 350 351 352 352 352 352 353 355 355 355 355 355 355 355 355 355 356 356 357 357 357 356 357 357 357 357 357 357 357 357 356
347 348 348 348 349 349 349 349 350 350 350 351 352 351 351 352 352 352 353 355 355 355 356 356 355 355 355 356 356 356 356 356 357 356 356 356 357 357 357 357 357 357
348 348 349 349 349 349 349 349 349 350 350 351 351 351 352 352 353 353 352 353 354 355 355 356 355 355 355 355 355 356 357 356 356 356 356 356 356 356 357 357 358 358
349 349 349 349 349 349 349 349 349 350 350 350 350 351 352 353 353 353 353 352 352 353 355 355 355 356 349 338 342 355 356 356 356 356 356 356 356 356 356 356 357 358
349 349 349 348 349 349 349 349 349 350 350 350 350 350 351 352 353 352 353 353 353 352 352 353 354 354 339 332 332 336 352 356 356 356 357 357 356 355 355 356 357 358
349 350 349 349 349 349 350 350 350 350 349 350 349 349 350 351 350 351 352 353 354 354 353 353 353 342 332 330 331 330 336 355 357 356 356 356 356 356 356 357 357 357
350 350 350 350 350 350 350 350 350 350 349 349 349 350 350 350 350 350 350 351 352 353 353 354 354 339 331 329 329 329 328 338 355 356 356 356 357 357 357 357 357 357
350 350 350 350 351 351 351 350 350 350 350 350 350 351 350 349 350 350 350 350 350 351 352 353 354 340 330 327 327 326 327 331 351 355 356 356 357 357 357 358 358 357
351 350 350 351 351 351 351 351 350 351 351 351 351 350 350 349 349 349 349 350 350 350 350 350 351 335 328 325 323 323 324 328 347 352 354 355 357 358 358 358 358 358
351 351 351 351 351 351 351 350 351 351 351 351 352 351 352 352 352 351 350 350 350 350 349 348 350 331 326 324 322 321 323 337 346 349 352 353 355 356 357 358 359 359
352 352 351 351 351 351 351 351 351 351 352 353 351 351 351 351 351 351 351 351 350 350 349 349 349 337 324 321 320 320 323 342 345 348 350 352 353 355 356 357 358 358
353 353 352 352 352 351 351 351 352 352 352 353 351 351 350 351 351 351 352 352 350 350 350 349 350 340 323 319 318 318 327 344 346 347 348 350 351 354 355 356 357 352
354 354 353 352 352 352 352 352 352 352 353 354 353 352 352 352 352 351 351 352 351 351 344 348 350 343 324 319 317 316 326 345 347 347 348 349 350 351 354 355 356 354
355 355 354 353 353 353 354 353 354 354 354 353 353 353 353 353 352 352 351 351 351 351 351 350 350 351 344 319 316 314 318 343 348 347 347 348 350 351 351 353 354 356

ECMWFNIL_sfc_thetae_075.txt.gz
Theta_e
358 359 357 357 357 358 359 359 359 359 361 360 360 363 363 367 369 368 369 370 369 369 369 370 370 370 369 370 370 368 368 369 368 367 367 366 365 365 363 362 361 360
358 359 358 358 358 360 360 360 360 360 362 363 363 364 367 368 367 368 368 368 369 368 370 369 370 370 370 368 368 366 365 366 366 367 366 366 366 366 363 364 362 362
358 358 357 356 355 357 356 359 361 360 360 361 364 365 365 366 366 368 368 368 368 367 369 369 369 370 369 370 370 367 365 366 366 366 366 366 366 366 366 362 362 362
359 358 357 356 356 356 357 359 360 360 360 361 361 362 363 363 365 366 367 367 367 367 368 368 368 368 369 369 369 366 366 366 367 369 367 367 366 366 367 366 364 363
359 359 358 357 357 359 359 358 356 358 358 359 360 362 364 364 365 363 365 366 367 366 367 367 368 368 369 369 369 365 364 363 366 368 365 365 366 366 366 366 365 362
360 361 360 359 359 359 358 357 357 357 358 357 359 360 361 363 363 362 363 363 363 363 363 365 366 366 367 368 367 365 364 363 365 366 365 365 365 367 367 366 366 364
359 360 359 359 359 359 358 358 358 359 358 359 361 359 360 360 361 362 363 363 362 363 362 364 366 366 367 367 366 364 363 364 365 364 363 364 366 367 367 367 367 365
359 359 359 359 358 358 358 358 358 358 359 360 359 360 360 359 361 361 362 362 362 363 364 365 367 368 366 367 366 364 364 362 362 362 362 362 363 364 366 366 367 366
359 359 359 359 357 357 356 356 357 359 359 359 357 357 360 359 359 360 362 363 362 362 365 365 366 366 366 366 365 365 365 364 363 363 362 361 361 363 365 366 364 363
359 359 357 357 356 356 356 357 357 358 359 358 357 357 357 360 360 360 362 363 362 362 364 364 364 364 364 365 365 366 366 366 366 365 364 364 364 365 365 366 365 364
357 357 356 356 356 356 356 356 356 357 358 357 357 356 358 359 360 361 362 362 360 361 362 363 363 364 364 363 364 365 365 364 366 366 365 366 365 366 365 366 365 364
357 356 356 356 356 356 356 356 356 356 357 357 357 357 357 358 359 359 360 361 361 361 362 363 364 364 365 364 363 364 364 364 365 366 365 366 366 365 366 366 365 365
356 356 356 356 357 356 357 357 356 356 356 356 358 357 357 357 357 359 360 360 362 362 361 363 364 364 365 365 364 364 364 365 363 364 365 365 365 364 364 365 365 365
356 357 357 357 358 359 358 357 357 357 357 357 358 357 356 357 357 357 359 360 361 362 362 364 364 364 365 365 365 364 364 364 364 364 363 364 364 365 364 363 364 364
358 358 358 358 358 359 358 357 357 358 358 358 358 358 357 358 358 358 358 359 360 361 362 363 362 362 363 364 364 364 364 362 363 364 363 363 364 363 364 364 364 364
359 359 358 359 358 358 359 358 357 358 357 357 358 358 358 359 359 359 358 358 359 361 362 362 362 362 355 342 346 362 364 362 363 364 364 363 364 363 363 363 364 364
359 359 359 358 358 358 359 358 358 358 358 358 358 358 358 360 359 358 357 358 358 359 360 360 361 360 341 334 334 338 357 363 363 363 365 364 363 364 363 363 364 365
357 358 358 358 358 358 359 359 358 358 358 359 358 358 359 359 358 358 359 358 357 358 358 359 360 346 334 332 332 331 339 360 362 362 362 362 363 362 363 363 363 363
358 358 358 358 358 358 359 359 359 358 358 357 356 358 358 358 358 358 358 358 358 358 357 357 359 341 332 330 331 330 329 342 359 361 361 361 362 363 363 363 364 364
358 358 357 358 358 358 359 358 357 357 356 356 356 358 358 357 357 358 359 359 359 359 359 359 359 342 329 328 328 327 328 334 359 359 361 362 362 362 363 363 364 365
358 358 357 358 358 358 358 357 357 357 357 356 356 356 357 357 357 357 358 359 359 358 359 358 357 337 326 325 324 323 325 330 358 359 360 362 362 363 364 364 364 365
358 358 358 359 358 358 357 357 357 358 357 357 357 356 358 358 358 357 357 358 358 358 357 357 358 333 326 323 322 322 323 344 356 359 359 360 361 362 364 365 365 365
358 357 358 358 358 357 357 356 357 358 358 359 357 356 356 356 357 357 358 358 357 358 357 357 357 340 323 321 320 320 325 351 355 357 359 359 360 362 363 364 365 366
359 358 358 358 358 357 357 357 358 358 358 359 357 356 355 356 358 357 358 359 357 357 357 357 357 344 321 319 318 318 331 353 357 357 358 359 360 362 363 364 365 356
359 359 358 358 358 358 358 358 358 359 359 360 358 358 357 359 359 358 358 359 358 357 350 353 357 347 321 319 317 316 331 356 358 358 357 358 358 359 362 363 364 359
359 360 359 358 358 359 359 359 360 359 360 359 359 359 358 358 358 359 358 359 359 358 357 356 357 359 350 318 316 314 319 352 358 356 355 356 358 357 358 361 362 363

ECMWFNIL_sfc_thetae_078.txt.gz
Theta_e
364 364 363 363 362 362 362 362 361 361 361 358 358 362 361 366 368 367 367 369 369 368 369 370 371 370 368 369 370 368 368 367 366 365 367 366 364 364 361 362 364 362
363 363 363 364 363 364 363 364 365 363 363 363 361 361 366 367 368 368 368 368 369 369 369 369 370 370 369 367 369 367 367 368 367 366 367 367 367 366 363 365 362 365
362 362 361 361 361 363 361 364 366 365 363 364 364 365 365 368 369 371 370 369 366 364 367 368 369 369 368 368 369 367 366 368 367 364 367 368 365 366 366 362 362 364
363 363 360 361 362 364 364 364 365 366 364 363 364 363 364 364 368 369 371 371 368 367 365 367 367 366 368 368 369 366 366 368 368 369 367 368 368 366 366 366 363 363
363 362 363 363 364 366 366 364 363 364 363 362 364 365 366 368 368 367 369 370 371 368 368 367 368 366 367 368 368 366 365 364 367 369 367 366 369 368 366 365 366 363
365 365 366 364 366 366 364 363 363 362 363 360 363 364 365 367 367 366 367 367 367 365 362 363 365 365 365 367 367 366 364 362 363 368 366 367 366 365 364 365 367 366
363 364 363 365 366 366 365 365 364 364 364 363 365 364 365 366 367 367 367 367 365 366 363 364 366 365 365 367 367 366 366 366 366 366 365 364 367 365 364 366 367 367
366 365 365 366 366 365 365 364 365 365 365 365 363 365 365 365 367 366 366 366 366 366 367 365 367 370 365 365 365 365 366 365 364 366 366 364 365 367 367 365 367 369
366 365 365 366 364 363 362 363 365 366 366 365 362 363 366 366 365 365 367 367 367 366 368 368 368 369 368 366 365 366 367 364 363 365 365 363 364 365 367 368 367 368
366 366 365 364 362 363 362 363 363 364 365 364 363 362 363 366 365 365 366 369 368 367 368 369 368 367 368 367 367 368 367 367 366 365 365 366 365 365 366 366 365 366
365 365 364 364 363 362 362 362 362 363 365 364 364 361 363 365 366 366 366 368 366 367 368 369 368 369 369 365 366 368 368 366 366 367 367 367 366 366 366 367 366 366
365 364 363 364 363 362 362 362 362 362 364 364 364 362 362 362 365 364 364 366 369 368 368 369 370 369 369 368 363 365 367 366 366 367 367 368 367 366 367 368 367 367
364 363 364 363 364 363 363 363 362 361 362 363 364 363 361 360 362 365 365 366 369 368 367 369 369 369 370 370 367 365 365 367 364 365 366 367 368 366 365 366 367 367
364 364 365 365 365 367 365 363 362 362 363 364 365 363 361 360 360 362 364 365 367 368 368 369 370 369 370 371 370 366 364 366 367 365 363 365 366 367 366 363 364 365
366 366 366 366 366 366 365 364 364 364 364 365 366 364 361 361 361 361 364 365 366 367 368 367 367 368 368 369 369 369 367 364 366 366 365 364 365 365 365 366 364 362
367 367 366 367 366 366 366 365 364 365 363 364 365 365 365 364 364 363 363 364 364 366 367 367 366 368 362 348 354 368 368 364 365 367 367 366 365 364 362 363 364 363
367 367 367 367 367 367 367 366 366 365 365 366 366 366 366 367 365 363 361 362 363 365 365 365 366 366 347 337 338 344 365 368 366 367 369 368 366 366 365 362 361 363
366 367 367 367 367 367 368 368 366 366 366 367 365 365 367 366 364 364 365 363 363 364 364 365 366 352 335 333 335 336 346 365 366 366 365 366 367 365 365 364 362 360
367 367 366 367 368 368 368 368 367 366 366 365 364 366 366 366 367 365 365 365 364 364 363 364 366 345 332 331 333 333 334 348 361 364 364 364 365 367 367 367 366 365
367 367 366 367 368 368 368 368 367 366 365 365 365 366 366 365 365 365 366 367 365 365 365 365 366 345 330 328 329 329 331 339 361 360 362 362 365 366 366 368 368 368
367 367 367 367 368 368 368 367 366 367 366 364 363 364 365 365 365 365 366 367 366 364 364 363 362 336 327 325 325 325 327 334 361 361 361 363 363 365 368 368 369 369
367 366 366 367 367 367 366 366 366 367 366 365 364 363 365 365 366 365 365 365 366 365 362 362 363 334 324 323 323 323 325 349 360 361 361 362 364 364 367 369 370 370
366 366 366 366 366 365 365 364 365 366 366 366 364 363 362 363 364 363 365 365 364 365 364 364 364 343 322 320 320 320 328 357 360 360 361 362 363 364 366 368 370 371
367 366 366 365 365 364 364 364 365 366 366 366 363 361 359 361 364 365 365 365 364 364 364 364 364 347 319 318 318 318 335 359 360 360 361 362 363 365 366 367 369 361
366 366 365 364 364 364 364 364 365 365 366 366 364 363 361 364 364 364 364 366 364 363 357 360 364 350 319 318 316 316 336 361 361 361 360 362 362 364 366 366 367 363
365 366 366 365 365 366 365 365 366 365 365 364 364 364 362 361 362 363 363 364 364 363 363 362 362 366 346 317 316 315 322 359 362 360 360 361 363 361 362 365 365 367

ECMWFNIL_sfc_thetae_084.txt.gz
Theta_e
360 359 357 357 356 354 355 360 360 359 360 358 360 360 360 364 366 368 366 369 370 369 371 374 373 374 371 375 374 372 378 378 372 372 370 372 370 364 361 363 365 369
360 360 360 358 359 359 359 360 362 361 362 362 360 363 363 365 363 367 366 367 369 368 371 370 373 373 372 370 373 373 372 374 370 366 370 369 372 369 362 368 362 371
361 361 360 358 356 358 352 358 362 363 362 360 361 366 363 362 363 365 370 366 366 366 371 371 371 372 371 372 373 371 369 371 369 366 371 370 370 369 370 359 361 362
362 361 358 356 356 357 356 357 360 363 360 361 358 357 360 357 361 363 367 369 368 368 368 368 368 368 370 370 372 370 370 371 370 373 373 371 371 370 368 370 366 365
361 361 359 357 359 361 360 358 355 360 359 359 359 358 361 365 362 363 364 366 368 367 368 368 369 368 370 370 370 369 368 368 370 372 372 371 372 370 367 367 371 367
362 361 363 363 362 362 361 359 359 358 359 356 359 358 358 365 363 362 363 362 363 362 362 363 366 366 368 369 370 369 366 363 365 369 367 369 366 367 364 368 368 369
361 363 362 362 361 363 363 362 361 361 359 358 361 359 358 357 362 362 364 364 361 363 362 362 365 365 365 367 368 369 369 368 368 366 366 367 369 368 364 367 369 367
361 361 362 362 360 361 361 362 362 362 363 363 360 362 360 356 360 361 364 364 363 363 363 363 366 367 364 366 366 367 367 364 365 369 366 366 368 367 367 365 369 368
362 361 361 361 359 359 358 360 361 362 364 363 359 358 361 358 359 359 363 365 364 365 365 364 366 366 364 364 365 366 366 363 362 364 365 364 364 366 365 365 365 367
362 362 359 359 358 358 358 360 362 362 364 363 360 358 358 361 361 360 364 366 365 365 365 363 366 364 363 363 365 366 365 365 364 364 363 363 364 364 364 365 363 363
359 360 359 359 358 358 359 359 362 361 362 362 361 357 358 359 362 363 365 366 363 364 365 362 364 363 363 361 363 364 365 364 364 365 364 364 364 365 367 364 364 362
361 360 359 359 359 358 358 359 360 362 362 362 361 357 358 358 360 362 363 365 363 363 365 364 363 363 363 362 361 362 364 364 365 364 363 364 364 364 364 364 363 363
361 359 361 360 360 358 359 360 360 361 361 360 361 359 356 356 358 361 363 365 364 364 364 366 365 364 365 365 363 361 362 363 362 363 363 362 362 362 362 363 363 363
361 361 361 361 361 362 362 360 360 360 362 362 362 360 356 356 357 359 362 364 365 364 365 367 367 366 367 367 366 364 362 362 362 362 361 362 361 362 362 361 363 363
363 362 363 363 363 363 362 361 361 361 362 363 363 361 358 356 358 360 361 363 365 365 365 366 367 367 367 367 367 366 363 361 361 361 361 361 361 360 362 362 362 361
364 363 363 363 363 363 363 363 363 362 359 362 363 362 361 360 358 362 361 361 364 366 366 365 366 367 362 352 356 365 363 359 362 363 361 361 362 361 360 362 360 359
366 364 364 363 364 364 364 364 363 362 361 361 363 363 362 363 360 360 360 361 361 363 364 364 365 365 351 341 343 350 362 362 361 364 364 363 361 362 361 359 359 360
366 365 364 365 366 365 365 365 364 363 362 362 362 362 363 363 361 360 360 361 361 362 363 364 365 356 339 337 340 341 352 363 361 362 363 363 362 360 361 361 359 357
367 366 365 365 366 366 366 365 364 364 362 361 360 363 365 364 362 360 360 361 361 362 361 364 366 347 334 335 337 337 339 356 361 359 358 360 361 361 360 361 361 360
369 367 366 366 367 367 367 365 363 363 361 360 360 362 364 364 363 361 361 362 362 364 363 363 364 344 331 331 333 334 335 344 364 361 359 358 361 363 361 362 363 362
369 368 367 367 367 367 367 366 364 364 363 359 357 360 364 364 363 361 362 362 361 364 365 361 362 336 328 328 329 329 332 339 364 363 360 359 360 363 365 364 364 364
369 369 368 367 367 367 367 366 365 364 363 362 359 357 362 366 367 363 362 362 362 361 360 362 360 329 327 326 327 327 330 350 361 363 361 360 361 362 364 367 367 366
370 370 369 368 367 366 366 366 365 364 365 364 361 359 360 363 364 362 364 362 361 361 360 361 362 333 324 324 325 325 331 355 361 361 360 359 360 366 369 368 368 368
372 371 369 368 368 366 366 366 366 365 364 365 362 360 358 361 363 364 365 363 360 360 360 361 362 343 319 321 322 322 338 358 360 361 360 359 359 361 365 370 370 371
373 372 370 369 369 368 366 369 367 365 364 365 362 361 360 363 365 365 364 365 362 361 360 361 360 348 315 321 319 319 337 360 362 361 360 359 360 359 362 364 366 368
372 372 371 369 370 371 371 370 370 366 365 364 362 361 359 360 363 365 365 365 363 363 364 364 361 362 331 318 317 317 326 360 364 361 359 360 360 360 361 362 362 363

ECMWFNIL_sfc_thetae_087.txt.gz
Theta_e
345 347 345 345 345 349 345 346 346 347 349 348 352 353 355 357 358 358 362 362 361 361 363 359 363 361 363 363 362 366 365 360 360 361 359 361 359 359 359 355 352 352
346 348 349 346 346 349 350 349 348 346 350 350 352 352 354 357 358 358 361 362 362 361 362 364 362 361 362 362 361 358 362 363 360 363 359 361 360 359 358 356 353 354
347 347 348 346 345 346 351 351 351 348 349 352 353 354 354 357 356 359 359 361 361 361 361 363 362 362 362 362 362 361 360 359 357 360 359 359 358 358 359 360 356 359
348 348 348 347 346 346 347 353 353 352 352 352 353 355 355 355 355 355 359 366 360 360 362 362 363 363 363 363 362 361 361 360 360 359 361 360 361 359 358 356 359 357
348 348 348 348 347 348 346 349 353 353 353 353 353 355 356 353 354 353 360 361 360 360 362 362 363 363 363 362 362 360 361 360 361 361 359 358 358 360 360 359 358 358
350 349 349 348 347 348 346 346 350 354 354 353 352 353 355 353 353 353 357 358 360 360 361 362 362 362 364 362 362 360 360 361 361 361 359 358 360 360 360 358 356 356
350 350 349 349 348 348 348 347 348 353 354 354 354 351 352 354 352 354 354 358 360 360 361 360 361 361 363 362 361 359 359 359 359 360 358 358 359 358 359 358 357 355
350 351 351 350 348 348 349 348 348 350 353 353 353 352 351 352 354 355 355 357 358 359 359 360 360 360 362 361 361 359 359 361 358 359 357 356 357 356 358 360 359 355
350 350 351 350 349 349 350 350 350 350 353 353 353 353 352 350 355 355 356 356 356 357 357 358 359 359 360 360 360 360 358 360 359 359 358 357 357 357 357 358 357 357
350 350 351 351 349 349 350 352 352 351 354 354 353 354 353 351 353 355 357 356 355 355 356 357 358 359 359 359 359 360 359 359 358 358 358 357 358 358 359 358 356 355
351 351 350 351 351 351 351 353 354 353 354 355 354 353 354 352 351 355 356 357 356 356 356 357 357 358 358 358 359 360 360 359 358 356 357 358 358 358 364 358 357 355
353 351 351 350 351 351 352 353 354 355 354 356 356 354 354 354 351 352 355 357 357 357 358 357 358 358 358 357 358 359 359 360 359 357 356 356 357 358 360 359 358 357
353 352 351 351 351 351 352 353 354 355 355 355 357 355 354 354 353 352 354 356 357 358 358 358 357 358 358 357 357 358 359 359 358 358 357 356 356 357 359 360 359 358
354 354 353 352 352 352 352 353 354 355 356 356 357 356 354 354 353 353 353 356 358 358 359 359 357 357 357 357 356 356 357 358 358 357 357 357 357 357 358 359 359 359
355 355 354 354 354 353 353 353 354 355 357 357 357 356 356 354 354 354 354 355 357 358 358 359 358 356 357 357 356 355 356 357 357 357 357 355 355 356 357 357 358 358
355 355 355 355 354 353 353 354 354 355 357 357 357 357 356 354 353 354 355 355 356 357 357 358 359 358 355 348 350 356 355 356 357 356 356 356 355 354 355 356 357 358
356 355 355 354 354 354 353 354 354 355 356 357 357 357 356 354 353 353 354 356 356 357 356 357 359 359 346 338 340 346 355 355 355 355 355 355 355 354 353 354 356 357
356 356 355 355 355 354 354 354 355 355 355 356 357 356 356 355 352 353 354 355 357 357 357 357 357 352 338 335 337 338 348 357 355 355 355 354 354 354 355 354 354 356
357 357 356 355 355 355 355 355 355 355 354 355 356 356 356 354 353 353 354 355 356 357 357 358 357 346 335 333 335 335 337 351 356 355 355 354 354 354 354 355 354 354
358 357 356 356 356 356 355 355 354 354 355 355 357 357 355 355 354 352 354 355 356 357 358 359 358 346 332 330 331 332 334 342 357 355 355 356 356 355 355 355 355 354
358 358 356 356 356 356 356 355 354 355 355 355 355 356 355 354 354 353 353 355 356 357 358 359 361 340 328 328 328 328 331 338 356 356 354 353 356 357 356 356 355 356
359 358 357 357 357 357 356 355 355 355 355 356 355 355 356 356 355 355 353 354 356 357 357 357 360 333 327 326 326 327 330 345 354 356 354 353 352 354 357 357 356 356
360 359 358 357 357 357 356 356 355 355 356 357 354 353 355 355 355 355 355 354 354 356 356 356 358 336 326 324 325 326 330 350 354 356 356 355 353 353 355 357 358 357
361 360 358 358 357 357 357 357 357 357 356 357 355 352 353 356 356 356 355 355 354 354 357 356 357 339 322 322 323 323 335 352 354 355 355 355 354 354 356 359 361 367
362 361 360 359 358 358 358 358 358 357 357 357 356 354 353 356 358 356 356 356 355 355 356 355 357 342 318 322 321 321 334 353 355 355 354 354 354 353 352 353 355 365
363 362 361 360 359 359 359 359 360 359 357 356 356 355 353 354 357 357 356 356 357 356 356 355 354 355 328 318 318 318 324 353 355 354 353 353 354 353 351 351 351 352

ECMWFNIL_sfc_thetae_090.txt.gz
Theta_e
342 342 344 341 339 341 341 341 342 345 348 350 351 351 351 355 357 358 359 359 359 359 358 357 359 356 357 358 358 360 361 360 360 359 358 357 354 354 356 354 350 346
342 342 346 344 341 343 341 342 341 344 347 350 351 351 352 354 355 357 358 359 359 358 359 357 357 356 356 358 358 358 358 358 357 361 357 356 355 354 355 354 353 350
341 342 342 343 342 341 341 341 342 343 346 348 351 352 352 355 354 356 358 359 358 358 359 358 356 357 357 357 357 358 358 356 356 358 357 355 356 355 355 356 354 351
341 342 342 343 344 343 343 341 341 341 345 345 349 352 354 356 355 355 356 363 358 357 358 359 358 358 358 357 356 355 356 357 356 357 356 356 356 355 355 354 355 353
342 341 343 342 343 344 345 342 341 341 341 346 347 350 353 353 354 354 355 358 358 357 357 358 359 358 358 357 357 355 356 356 356 356 355 353 355 356 355 354 353 353
344 342 343 343 342 342 344 344 343 343 342 343 347 350 350 351 352 353 355 356 358 358 357 357 359 358 358 357 357 356 357 355 356 356 355 355 354 356 357 356 352 351
344 343 342 343 342 342 342 345 345 346 344 343 346 348 350 349 349 351 353 356 357 357 357 356 357 358 359 358 357 355 356 356 355 356 355 355 355 355 356 354 353 351
344 344 343 343 342 342 342 342 346 347 347 346 345 347 350 350 349 349 351 354 356 356 357 357 357 358 359 358 357 356 355 358 356 356 355 354 354 354 354 355 353 352
345 345 344 343 342 342 342 342 343 347 350 348 347 347 350 351 350 349 349 351 355 356 356 357 357 358 359 358 358 357 356 356 357 356 355 354 354 354 354 354 353 353
345 345 345 344 343 342 342 342 342 344 350 350 349 349 348 350 351 350 350 349 352 355 356 356 357 358 358 359 358 358 357 356 356 356 356 355 354 354 354 354 354 353
345 345 345 344 344 343 342 343 343 342 345 349 350 349 349 348 350 351 350 350 350 352 355 356 357 357 358 359 359 359 358 357 356 356 356 355 355 354 360 354 354 354
346 345 345 345 345 344 343 343 343 343 343 346 349 349 349 349 348 349 351 350 350 351 354 355 356 357 357 358 358 358 358 357 356 356 356 356 355 355 356 356 355 354
347 346 346 345 346 345 345 344 344 344 343 344 347 348 348 349 349 348 350 352 352 352 352 354 355 356 357 357 357 358 357 357 356 356 355 355 355 355 356 357 356 356
349 348 346 346 347 347 346 345 345 345 345 345 347 347 348 348 349 348 348 351 352 352 353 354 354 355 356 356 356 357 357 357 356 356 355 354 354 355 355 356 357 357
351 350 349 348 348 347 346 346 345 346 346 347 347 348 349 349 350 350 349 349 352 353 353 354 354 354 355 356 355 355 356 356 356 356 355 354 354 354 354 355 356 357
353 352 351 349 348 347 347 347 346 347 347 348 348 349 349 350 350 350 349 349 350 352 354 354 355 355 353 346 348 355 355 356 356 356 355 355 354 353 353 353 354 356
354 353 352 350 349 348 348 347 347 348 348 349 349 350 350 351 351 350 350 349 349 351 352 354 355 356 344 337 338 343 353 355 355 355 355 355 354 353 352 353 354 354
354 354 352 352 351 349 348 348 348 348 348 348 350 350 351 352 351 350 350 350 350 350 351 353 355 349 336 334 335 336 344 355 354 354 355 354 354 353 353 353 353 354
355 353 353 352 351 351 350 349 348 348 348 348 349 351 352 351 351 351 350 351 351 349 350 353 353 344 334 331 332 333 334 347 354 353 353 353 354 353 353 352 352 352
356 354 353 352 352 352 351 350 349 348 348 349 351 352 352 352 352 351 351 350 351 350 351 352 353 344 332 329 329 330 331 338 353 353 352 353 353 353 353 353 352 352
356 355 353 353 352 352 351 350 350 349 349 350 351 351 352 352 352 351 351 351 351 352 351 352 354 340 329 327 326 326 329 334 351 353 352 352 352 352 352 353 353 353
357 355 354 354 353 352 351 351 350 350 349 350 351 352 354 354 354 353 351 351 351 352 352 352 354 334 328 326 325 324 327 340 348 351 352 352 352 352 353 353 353 353
358 357 355 354 354 352 351 351 351 351 351 352 351 352 352 353 353 353 353 351 351 352 351 352 354 339 326 324 323 323 327 344 348 351 352 352 351 351 353 354 354 353
359 358 356 355 354 353 352 352 353 353 352 353 351 351 351 353 354 354 353 353 352 352 352 352 353 343 324 322 322 321 332 346 349 350 351 352 352 352 351 352 355 363
360 359 357 356 355 354 354 353 353 353 353 353 353 352 352 353 355 354 353 353 352 353 355 353 354 346 322 322 320 320 331 349 351 351 351 352 352 352 352 352 352 359
360 359 358 357 356 355 355 355 355 354 354 353 353 353 353 353 354 354 353 353 353 353 354 354 354 355 339 320 320 318 322 348 352 351 350 351 352 352 352 352 352 352

ECMWFNIL_sfc_thetae_093.txt.gz
Theta_e
343 341 340 339 339 340 342 343 344 346 347 349 350 351 351 353 356 357 358 358 358 357 357 356 356 356 358 355 355 354 356 356 356 355 353 352 350 349 351 349 346 342
342 342 343 341 340 341 341 343 343 345 346 347 349 351 351 352 354 356 357 357 358 358 357 357 356 356 355 355 354 354 354 356 356 359 355 352 351 349 351 350 350 348
342 341 341 340 339 338 340 341 342 343 346 347 348 350 350 352 353 355 356 357 357 358 357 357 355 355 355 353 354 354 355 354 355 356 355 353 352 350 350 351 350 350
341 341 341 342 340 338 339 340 340 341 343 345 347 350 351 352 353 353 355 361 356 356 356 356 356 355 354 353 353 354 355 355 356 355 355 354 353 351 352 349 352 351
341 341 341 342 342 340 339 339 339 340 342 344 347 349 351 350 351 352 353 355 356 355 355 356 356 355 354 353 353 353 354 355 354 353 353 353 352 351 352 350 349 349
341 341 342 341 342 340 338 339 339 340 341 343 345 349 350 350 351 351 352 353 355 355 355 355 355 356 355 354 353 353 353 354 354 352 352 352 352 352 353 351 349 349
341 340 340 341 341 341 340 339 339 341 340 342 345 347 349 349 350 351 351 352 354 355 355 354 354 355 355 354 353 352 352 352 352 353 352 352 352 351 352 350 350 349
342 341 340 340 340 340 341 340 339 340 339 339 342 345 348 349 350 351 351 351 352 354 354 354 354 354 355 354 353 352 352 354 353 352 351 351 351 351 352 353 351 349
342 341 340 339 339 339 339 341 341 341 341 339 339 341 346 348 349 350 351 351 352 353 353 354 354 354 355 355 354 353 352 353 354 352 352 351 351 351 352 352 351 350
341 341 341 339 338 339 339 339 340 341 343 341 340 339 342 346 347 348 348 349 351 352 352 353 353 354 354 355 355 354 353 353 353 353 353 352 352 352 352 352 352 350
341 341 341 340 339 339 339 339 339 340 342 343 342 341 340 342 346 346 345 345 348 350 352 352 353 354 354 354 355 355 354 354 353 353 353 353 353 352 357 352 352 352
343 342 341 340 340 340 339 339 339 339 339 342 344 343 342 342 343 346 346 344 345 346 350 352 353 354 354 354 355 356 355 355 355 354 354 354 354 353 353 353 352 352
344 343 343 342 342 341 341 340 339 339 339 339 343 344 344 343 343 344 347 346 346 346 347 349 352 353 354 354 355 355 355 355 355 354 354 354 354 354 354 353 353 353
345 345 344 344 343 343 342 341 340 340 340 340 340 342 344 344 344 344 345 347 347 347 347 349 350 352 353 354 355 355 355 355 355 354 354 353 354 354 354 354 354 354
347 346 346 345 345 344 343 342 342 341 340 340 340 340 343 344 345 345 344 345 347 348 348 348 349 351 353 354 354 354 355 355 355 355 354 353 353 353 353 354 354 355
348 347 346 346 345 344 343 343 342 342 341 340 340 340 340 342 343 345 345 345 345 346 348 349 349 351 351 344 346 354 354 355 355 355 354 354 353 352 352 352 353 354
348 348 347 345 345 345 344 344 343 343 342 341 341 340 340 341 343 342 343 345 345 345 346 348 350 350 342 335 337 341 353 354 354 354 354 354 353 353 352 352 352 352
349 349 348 347 346 345 344 344 344 343 342 341 341 341 341 342 342 342 343 344 345 345 345 347 349 345 334 333 334 335 343 355 354 353 354 353 353 353 353 352 352 352
350 349 349 348 347 346 346 345 344 344 343 342 341 342 343 342 342 342 343 344 344 344 345 346 348 340 332 330 331 332 333 345 354 353 353 353 353 353 353 352 351 351
351 350 350 349 349 348 347 346 345 344 344 344 344 344 343 343 343 343 344 344 345 345 345 346 347 341 331 329 328 329 331 337 352 353 352 352 353 353 353 352 352 351
352 351 351 351 350 350 348 347 346 345 345 345 345 344 344 344 344 344 345 346 346 346 346 346 347 336 328 327 326 325 328 333 349 352 352 352 352 353 353 353 352 352
353 352 352 352 351 351 349 348 348 347 346 346 346 345 345 346 346 347 346 347 347 347 347 346 348 332 327 325 324 324 326 339 346 350 351 351 351 351 352 353 353 352
355 354 353 352 352 351 350 350 349 348 348 348 346 346 345 345 346 347 348 348 348 348 347 347 348 336 325 323 322 322 326 341 345 348 350 350 350 351 351 352 352 352
349 352 354 354 353 352 351 351 351 351 350 350 347 346 346 346 347 348 349 350 349 348 349 348 348 341 323 320 320 320 330 342 345 346 348 349 350 351 351 351 352 360
355 353 353 354 354 353 353 352 351 351 351 351 350 348 348 348 349 348 349 350 350 350 352 349 349 343 323 320 319 319 328 344 346 346 346 347 349 349 350 351 350 357
352 356 357 357 355 355 354 353 353 352 352 351 350 350 349 349 349 349 348 349 351 351 351 350 350 350 341 319 318 317 321 344 347 346 346 347 348 348 349 349 350 350

ECMWFNIL_sfc_thetae_096.txt.gz
Theta_e
345 344 343 342 342 344 346 348 349 350 350 352 352 353 354 355 358 359 360 361 361 360 359 359 360 360 361 361 361 360 361 359 360 359 358 357 357 355 356 354 351 351
345 345 346 343 343 345 345 348 349 349 349 350 352 354 354 355 356 358 359 359 361 360 360 359 359 360 360 360 359 359 358 359 359 361 360 358 358 356 356 357 357 354
345 344 344 342 341 342 342 345 348 348 349 350 351 353 353 355 355 357 359 359 359 360 360 360 359 360 359 359 359 359 359 358 358 360 362 360 358 357 357 356 356 356
345 345 344 343 342 341 342 343 345 346 348 349 349 351 353 354 355 356 357 362 359 359 360 360 360 359 359 358 358 358 358 358 359 360 360 361 360 358 357 357 358 358
345 344 344 344 344 343 342 342 342 344 345 347 349 351 353 354 354 354 356 357 359 359 359 360 360 359 359 358 358 358 358 358 359 359 359 359 359 359 358 358 357 356
345 345 345 344 344 342 340 340 342 342 344 345 347 351 351 352 353 353 354 355 357 358 358 358 359 359 358 358 357 357 357 357 358 358 358 358 358 358 358 358 357 356
344 344 344 344 343 343 341 341 341 344 343 344 347 348 350 351 351 352 354 355 356 358 357 358 358 358 359 358 357 357 357 358 358 358 357 357 358 357 356 357 357 356
344 344 344 344 343 342 342 340 340 342 343 344 344 346 349 350 351 352 353 354 355 356 358 358 357 358 358 358 357 356 356 356 356 357 357 357 357 357 357 356 357 356
344 343 343 343 342 342 342 341 340 341 343 342 342 344 348 349 350 351 352 353 353 355 356 357 357 357 358 358 358 357 356 356 356 356 356 356 356 356 357 357 356 356
344 343 342 341 341 341 341 342 342 341 342 342 342 343 345 349 350 351 352 352 352 353 355 356 356 357 357 357 358 357 357 356 357 356 356 356 356 357 356 356 356 356
344 343 341 341 340 341 341 341 342 342 342 341 341 341 342 346 349 351 351 351 351 352 353 354 355 356 356 356 357 358 357 357 357 357 357 357 357 357 358 357 357 356
343 343 342 341 340 340 340 341 341 342 342 343 342 340 341 342 345 348 350 350 351 352 353 353 355 356 356 356 356 357 357 357 357 357 356 357 357 357 357 358 357 357
342 342 342 342 341 340 340 340 340 341 341 342 344 342 341 340 342 345 348 348 349 351 351 353 354 355 355 356 356 357 357 357 356 356 357 357 357 357 357 357 357 356
343 343 343 343 343 343 342 340 340 340 340 341 343 343 343 342 341 342 344 347 347 348 349 351 352 354 355 355 356 356 356 357 357 357 356 357 357 357 357 357 357 357
345 345 344 343 344 343 342 341 340 340 340 340 341 342 343 344 344 343 343 344 346 347 347 348 348 350 352 353 354 355 356 356 356 357 357 356 357 357 357 358 358 358
346 346 345 345 344 343 343 342 342 341 340 339 339 340 341 343 344 344 344 343 344 346 347 347 347 348 348 341 344 354 355 355 356 357 357 357 357 356 356 357 357 357
346 346 347 345 345 344 344 343 343 342 342 341 340 340 340 341 342 342 343 343 343 344 345 346 347 347 339 333 334 338 351 355 355 355 357 357 356 356 356 356 356 357
346 347 347 346 346 345 345 345 344 344 343 342 341 340 341 341 340 341 342 343 344 344 344 345 347 342 333 331 332 332 340 354 355 355 356 356 357 356 356 356 356 356
347 347 347 347 347 347 347 346 345 344 343 343 341 342 342 341 341 341 341 342 343 343 344 345 346 338 331 330 330 330 331 342 354 355 355 355 356 356 356 357 357 357
347 347 347 347 348 348 347 346 346 345 345 344 344 344 343 342 341 341 341 342 342 343 344 345 345 338 329 327 327 328 329 334 352 354 355 355 355 356 356 357 357 356
348 348 348 348 348 348 348 347 346 346 345 345 345 344 343 343 342 342 342 343 342 343 343 343 344 334 327 325 324 324 326 331 349 353 354 354 355 356 356 357 357 357
349 349 349 349 349 349 348 347 347 346 346 346 346 345 345 345 345 344 343 343 343 343 342 342 344 330 325 324 323 323 325 338 346 350 352 353 354 355 356 356 357 357
351 350 350 350 350 349 349 348 348 347 347 348 347 346 345 345 344 344 345 344 344 344 343 343 344 335 323 321 321 321 325 341 345 348 350 352 353 354 355 356 357 357
353 352 351 352 351 350 350 350 350 350 349 350 347 346 346 346 346 346 346 347 345 345 345 344 345 338 323 319 319 319 329 342 345 346 349 350 351 354 355 355 356 359
355 354 353 352 351 350 351 351 351 351 351 352 351 349 348 349 349 347 347 348 347 347 348 346 346 341 324 319 318 317 327 344 346 347 347 349 350 351 354 354 355 358
354 354 353 352 351 351 351 351 353 354 350 348 348 349 349 349 349 349 347 348 348 349 348 348 348 349 343 319 317 315 319 344 347 347 347 348 350 351 351 353 354 354

ECMWFNIL_sfc_thetae_099.txt.gz
Theta_e
358 359 357 356 356 357 359 360 360 362 364 363 363 365 365 369 371 370 369 368 368 369 370 372 372 371 369 371 371 370 369 368 366 367 367 366 364 363 360 361 361 360
358 358 359 357 358 359 361 361 363 363 365 365 365 366 368 369 368 369 369 367 368 368 370 370 371 371 371 369 371 369 369 369 368 367 367 367 364 363 361 362 360 364
357 357 356 355 354 355 354 358 363 363 363 363 365 367 366 367 367 368 369 369 368 368 369 370 370 371 369 370 371 370 368 369 368 366 369 368 365 364 365 360 360 361
358 357 355 355 355 355 355 357 359 362 362 362 362 363 364 363 366 366 368 368 369 369 370 370 369 368 370 370 370 367 369 370 368 371 370 370 370 366 365 366 364 363
356 357 356 356 356 357 357 355 354 356 358 359 361 363 364 365 366 364 366 366 368 368 369 369 370 369 371 370 370 368 367 366 369 371 369 369 371 370 366 366 366 363
357 358 358 356 357 357 354 353 354 355 356 356 359 360 361 363 363 363 364 364 365 364 365 367 368 368 368 369 370 369 366 363 364 370 368 367 365 366 364 367 366 364
355 356 355 356 355 355 354 354 354 356 354 355 359 359 360 360 361 363 364 363 363 365 364 367 369 368 369 370 369 369 369 369 368 369 367 365 368 367 366 368 368 366
355 355 355 355 354 354 353 353 353 354 355 356 355 357 359 358 360 361 363 363 362 364 366 366 369 370 367 368 368 367 368 366 366 368 368 367 368 367 369 367 368 367
354 354 354 354 353 352 351 351 352 353 355 354 352 353 357 357 358 358 362 364 362 364 366 366 368 368 367 367 367 367 366 364 364 366 366 364 365 366 365 367 366 366
354 354 352 352 351 351 351 351 351 352 353 352 352 352 353 357 358 358 361 363 361 363 364 365 366 366 366 367 367 367 367 367 367 367 365 365 364 364 363 365 363 364
353 353 352 351 351 351 351 351 351 350 351 351 351 350 351 353 357 359 360 361 358 360 362 363 364 365 366 364 365 366 366 365 366 367 366 366 365 365 364 365 364 362
353 352 351 351 351 351 351 351 351 350 350 350 351 350 351 351 353 355 356 359 359 359 361 363 365 365 366 365 364 365 366 365 365 366 364 365 366 364 365 366 364 364
352 352 352 351 351 351 351 351 350 350 350 349 350 350 350 349 350 353 356 357 359 359 359 362 364 363 365 366 365 365 365 365 362 364 364 365 364 363 363 364 364 364
352 353 353 353 352 353 352 351 350 350 351 351 351 350 348 349 349 350 354 355 357 358 360 362 363 363 365 366 365 364 364 364 363 363 362 362 363 363 363 361 362 363
354 354 354 354 353 353 352 351 350 351 351 351 352 351 349 349 349 349 351 353 354 357 358 359 359 360 361 363 364 364 363 361 363 362 362 362 363 361 362 363 362 361
356 355 354 355 354 353 353 352 350 350 349 350 350 350 351 352 351 350 349 350 352 355 357 357 357 359 356 346 349 362 363 359 361 363 363 361 362 362 360 361 361 361
356 355 355 354 355 354 354 353 351 350 350 350 350 350 351 353 352 350 349 348 349 350 352 352 354 354 342 335 335 340 356 361 360 362 364 363 361 362 361 359 361 363
354 355 355 355 355 354 354 354 352 351 351 351 349 348 352 350 349 350 351 350 349 349 349 350 352 344 332 331 332 332 340 356 357 358 357 359 360 358 359 360 359 360
355 355 355 355 355 354 355 355 353 352 351 349 347 348 348 349 349 348 349 350 349 350 348 349 350 339 330 328 329 329 329 341 352 354 354 354 356 359 358 360 362 362
355 355 354 355 356 356 355 354 353 352 350 349 349 350 349 348 347 348 348 350 349 349 350 349 349 340 328 326 326 326 327 333 351 351 354 355 356 357 358 360 363 363
355 355 355 355 356 356 355 354 353 353 351 350 349 349 349 350 348 347 348 350 348 348 348 347 346 334 326 324 323 323 325 330 350 351 352 354 356 358 360 361 362 363
354 355 355 356 356 355 355 354 354 355 353 352 351 349 350 350 351 349 349 349 348 348 346 346 347 330 325 323 321 322 324 341 349 353 353 353 355 358 360 363 363 363
355 354 354 354 355 354 354 354 354 355 355 355 352 351 349 349 350 349 351 350 349 349 348 348 348 336 323 320 320 320 325 346 350 352 354 354 355 358 360 362 363 363
357 356 355 354 355 355 354 354 354 355 355 356 353 351 350 350 352 351 352 352 350 349 349 349 349 341 322 318 318 318 330 348 351 352 353 355 356 358 359 362 363 359
358 357 356 354 354 355 354 355 355 355 356 356 355 353 353 354 354 353 352 353 352 351 347 348 350 343 322 319 317 316 329 349 352 352 352 354 355 356 359 359 361 359
361 361 359 356 354 356 356 356 358 358 358 357 356 355 354 353 353 354 353 353 353 352 351 350 350 352 347 318 316 315 318 347 353 351 351 352 354 354 355 358 359 361

ECMWFNIL_sfc_thetae_102.txt.gz
Theta_e
363 363 361 361 360 360 360 360 360 361 364 363 362 364 361 365 366 367 368 371 371 370 372 375 374 374 373 373 373 369 370 370 367 368 366 365 363 361 359 359 359 358
365 363 363 361 361 362 362 362 363 362 363 365 366 364 366 366 367 366 366 366 369 369 373 375 375 374 373 371 373 371 370 370 368 367 366 366 365 363 360 361 360 363
364 363 361 359 357 360 358 361 363 363 361 362 364 366 366 365 366 367 367 365 365 364 368 371 372 372 372 372 375 372 370 371 368 367 367 366 365 363 364 359 359 360
366 363 360 358 356 358 360 359 361 363 361 359 360 361 362 358 363 366 366 367 365 365 365 367 369 369 371 371 372 370 372 372 369 372 370 371 369 367 367 365 362 361
365 363 360 358 357 359 361 359 358 360 360 358 359 362 364 365 365 362 364 367 367 364 365 367 368 368 369 369 370 369 369 369 369 372 370 370 371 369 366 366 366 361
366 366 364 359 359 359 358 359 359 358 359 356 359 359 360 365 363 360 360 361 362 360 359 362 365 365 365 367 369 368 366 365 365 370 367 368 367 367 365 367 366 362
363 364 362 359 357 358 360 361 361 361 357 357 359 359 360 359 362 362 362 360 357 360 358 362 365 364 365 366 367 367 366 367 367 369 369 366 366 366 366 366 366 365
363 363 362 361 357 356 359 359 359 359 360 360 357 360 361 359 361 360 362 360 358 358 361 360 364 366 363 364 365 365 366 363 364 366 367 366 364 365 366 365 366 366
362 362 362 360 356 355 355 354 356 358 360 359 356 356 362 361 359 358 361 363 361 360 363 362 365 364 362 362 363 364 365 363 361 365 365 363 362 364 363 365 364 364
362 362 360 359 356 354 353 354 353 355 359 359 358 354 354 361 360 359 360 365 364 364 364 364 364 363 362 361 363 363 363 364 363 363 363 363 362 362 362 362 361 363
360 359 359 358 356 354 353 353 352 352 356 358 357 354 352 355 361 361 361 364 362 362 364 365 363 364 364 360 359 361 363 360 361 363 364 363 362 363 363 363 362 361
360 359 358 358 358 356 354 353 353 352 353 356 357 355 354 351 356 359 359 362 364 361 362 364 365 365 366 364 358 358 360 360 360 361 360 362 362 360 362 364 362 363
359 359 359 358 359 357 355 354 353 352 351 352 355 355 353 351 351 357 359 360 363 361 358 362 365 364 365 367 362 358 358 361 358 357 359 359 359 357 355 357 360 361
359 359 360 360 360 362 359 356 355 354 354 353 354 355 352 351 350 351 356 358 360 360 360 361 364 365 366 367 366 361 357 357 360 357 354 356 356 356 354 352 352 354
361 360 361 361 360 361 360 359 357 357 356 356 356 355 352 350 350 349 351 355 357 358 359 358 358 362 363 364 366 365 361 355 357 359 358 355 355 353 353 354 353 350
362 363 361 362 361 361 362 361 359 358 356 357 357 357 357 356 354 351 349 350 354 357 359 358 357 358 361 350 355 363 363 355 355 360 361 358 358 358 354 351 350 350
362 363 363 362 363 362 363 362 361 359 359 360 359 359 359 360 356 353 350 347 348 352 356 355 355 355 347 337 339 344 359 362 360 360 363 363 360 359 359 354 350 350
360 363 363 362 363 364 363 364 361 360 360 361 359 358 361 359 357 356 356 352 348 349 350 351 353 348 334 334 336 336 346 357 357 358 358 359 361 358 357 356 355 350
361 362 363 362 363 364 364 364 363 361 359 358 357 359 359 360 360 358 358 357 354 352 350 349 349 341 331 331 332 332 333 346 350 350 351 352 355 358 359 359 359 356
361 362 361 363 363 363 362 362 361 361 359 358 357 359 358 358 357 359 358 359 358 356 355 353 352 343 328 327 328 328 330 337 355 350 350 349 352 353 354 357 360 360
359 360 361 361 362 362 362 360 360 361 360 358 356 356 357 357 357 357 358 359 357 356 356 353 352 336 326 324 324 324 326 333 354 352 350 351 351 352 356 356 359 361
355 357 357 359 361 362 361 360 359 360 360 359 357 355 357 357 358 357 356 356 356 356 354 354 354 332 326 322 321 322 324 344 352 354 352 352 352 353 354 358 360 360
362 355 357 357 359 359 360 359 359 359 360 360 357 355 353 354 356 356 359 356 356 357 355 355 355 340 323 320 319 320 327 350 352 352 353 353 353 353 355 357 359 362
353 360 357 357 358 358 358 358 358 360 359 360 357 356 353 353 354 356 358 359 357 355 355 355 355 346 322 318 317 318 333 351 353 352 352 354 354 355 356 357 359 357
347 351 357 357 357 357 356 358 358 358 359 360 359 358 357 357 356 355 356 358 357 356 353 354 356 349 323 317 316 316 332 353 353 353 353 354 354 356 358 357 358 358
346 350 354 357 356 358 358 356 358 359 359 358 359 359 358 357 356 356 355 356 358 358 357 356 356 358 356 316 315 314 319 351 354 352 352 354 356 356 357 359 359 360

ECMWFNIL_sfc_thetae_105.txt.gz
Theta_e
361 362 361 360 359 356 357 356 356 359 363 362 362 364 364 365 369 368 368 370 368 371 372 375 371 374 371 373 371 369 370 367 368 366 366 364 361 359 359 358 361 358
362 362 363 361 360 360 359 357 358 357 361 365 364 364 365 365 364 366 367 367 368 368 373 371 372 374 374 371 371 370 370 370 369 367 365 364 364 363 359 363 358 361
362 361 360 359 355 358 354 358 360 359 357 360 364 366 364 364 364 366 366 366 367 366 369 374 374 373 371 373 375 371 371 373 367 366 366 367 362 362 364 359 357 358
363 362 359 358 355 355 356 356 357 360 357 357 358 361 365 360 362 364 366 366 365 365 367 367 370 369 371 372 376 370 371 375 368 371 369 369 366 366 363 363 360 360
363 361 359 359 356 357 357 355 353 356 355 355 357 360 361 363 363 361 363 364 365 363 364 365 366 369 372 371 372 369 370 371 370 372 371 368 372 367 364 363 363 359
366 364 362 358 358 358 354 355 355 353 355 352 355 355 358 361 361 359 360 361 360 358 358 360 363 364 366 368 369 368 367 363 366 369 367 368 365 363 360 364 363 360
365 365 360 357 356 356 356 356 357 357 353 353 356 355 356 358 360 360 361 360 358 359 355 359 363 363 362 365 367 367 366 366 365 370 367 365 364 363 365 367 366 363
364 365 363 359 354 354 356 355 357 358 357 355 351 355 355 353 359 359 360 359 359 359 360 357 362 364 359 361 363 364 364 360 362 369 372 367 368 365 365 366 367 364
364 364 364 360 354 351 351 351 355 358 359 355 351 351 356 355 354 356 359 361 360 360 361 360 362 362 362 360 361 362 362 360 357 360 363 362 362 363 363 364 364 365
364 361 359 358 353 350 349 350 350 354 358 356 354 350 350 356 355 355 357 362 360 359 360 361 361 361 361 360 360 360 361 362 362 361 360 360 359 359 358 359 360 361
361 359 356 356 354 349 348 348 348 348 352 355 354 350 349 352 356 357 359 360 358 359 359 361 361 361 362 359 358 359 360 359 359 361 359 359 358 359 359 360 359 358
361 359 355 355 354 351 348 347 347 347 347 351 354 352 350 347 353 355 355 358 361 361 360 362 363 362 363 362 357 356 357 357 356 356 355 357 356 356 357 359 358 359
361 360 357 355 355 353 351 349 346 345 345 346 351 352 351 347 347 354 356 356 360 361 359 361 362 361 364 364 362 358 354 357 353 353 354 355 355 353 353 354 354 355
361 361 360 359 357 360 356 351 348 347 347 347 348 350 350 348 346 347 354 355 357 360 360 360 363 363 364 364 364 360 355 354 354 353 351 352 352 352 351 350 351 351
365 363 363 362 360 360 359 355 352 350 351 350 350 349 348 349 347 344 347 352 356 359 359 357 357 361 362 362 362 362 358 353 354 355 353 352 352 350 350 351 349 348
366 367 365 365 363 361 363 362 357 352 349 349 350 349 352 352 352 349 345 347 352 356 358 355 353 355 360 353 355 362 360 351 352 354 356 353 352 351 348 348 348 347
364 365 366 367 367 364 365 366 363 358 356 360 356 354 357 361 354 349 346 345 347 351 354 353 351 349 349 339 340 346 358 357 352 353 356 355 353 356 354 348 346 346
361 362 365 366 367 368 367 367 365 364 363 361 355 353 361 355 353 352 353 347 345 347 349 352 352 348 335 335 337 337 348 358 352 349 347 350 354 352 351 351 348 344
361 360 362 364 366 368 368 367 367 365 362 359 355 356 357 361 362 356 355 352 348 348 345 347 351 342 330 333 335 335 336 349 347 347 345 346 348 353 354 353 354 352
359 360 359 363 365 367 366 365 365 365 362 359 358 359 359 359 359 360 359 361 356 354 352 347 348 344 328 329 331 331 333 341 354 345 344 344 349 349 350 355 360 358
359 358 359 362 362 364 363 363 365 365 363 360 357 357 358 360 359 360 361 361 359 357 355 350 348 335 325 326 327 327 330 336 357 350 345 343 344 346 354 355 360 358
359 360 359 359 361 363 361 360 361 363 363 362 360 356 356 358 361 361 360 360 360 359 357 355 353 333 324 323 324 325 328 348 357 357 352 349 346 349 352 356 357 355
351 352 356 361 360 359 359 359 360 361 362 364 361 358 354 354 358 359 362 360 360 361 359 359 357 343 323 320 321 323 330 353 357 356 355 353 353 354 355 355 352 357
348 351 354 355 359 358 357 359 361 359 359 361 361 360 357 354 355 357 360 361 360 359 359 359 359 348 322 318 318 319 335 354 357 355 355 356 356 357 357 357 359 356
347 351 353 353 355 356 357 352 352 353 358 363 360 357 359 360 359 355 355 358 358 358 359 358 358 351 322 318 317 317 333 356 357 355 354 355 355 357 359 358 358 358
345 347 350 352 354 355 357 351 355 354 353 354 356 356 355 359 357 358 356 355 356 356 357 358 358 360 352 317 316 315 320 355 359 355 353 354 356 356 358 359 359 359

ECMWFNIL_sfc_thetae_108.txt.gz
Theta_e
364 365 363 362 362 362 362 361 360 360 365 363 362 364 366 372 370 366 367 369 369 371 372 374 373 372 371 374 374 378 378 371 384 370 370 368 365 359 357 359 364 375
364 364 365 363 367 367 365 362 363 364 366 370 365 367 369 370 368 370 369 367 369 368 373 370 372 373 373 371 372 372 373 371 371 367 368 368 368 362 358 365 360 364
362 363 361 360 357 358 353 357 363 361 361 361 364 369 366 364 366 369 370 369 366 367 373 372 372 373 371 374 374 371 370 372 370 368 368 369 367 366 367 357 359 359
362 361 358 356 357 356 356 358 361 361 360 362 361 361 361 360 365 365 369 368 368 368 367 370 370 368 370 373 376 373 372 375 372 369 370 372 371 366 364 367 362 359
360 360 359 358 357 359 358 356 354 356 355 358 358 365 369 371 364 363 366 367 371 367 368 369 370 368 371 372 371 370 370 373 372 372 372 371 372 370 366 365 369 364
364 363 362 360 359 360 355 354 355 354 355 354 357 358 361 365 362 362 363 360 361 360 361 363 365 365 366 371 371 371 368 366 366 371 369 369 366 366 361 366 368 367
360 362 358 359 356 357 356 356 355 357 354 353 358 356 359 359 361 363 363 363 359 361 358 362 367 366 367 369 371 371 371 368 370 370 368 367 370 368 362 368 372 370
359 359 359 358 355 354 354 354 354 355 357 356 353 357 357 357 360 358 361 361 359 360 362 362 366 369 361 364 367 368 366 363 366 369 369 368 368 366 365 364 366 369
361 360 359 356 353 352 350 351 353 353 356 354 350 351 356 358 359 357 361 362 360 362 364 363 366 362 362 363 364 366 364 362 360 364 367 366 365 366 364 365 365 367
361 361 358 355 351 350 350 351 351 353 355 353 350 350 351 356 359 358 362 363 361 365 363 362 365 361 361 362 366 364 364 364 366 365 363 364 364 363 362 363 361 363
355 357 357 356 351 348 348 349 349 351 353 352 350 348 351 352 356 359 361 361 356 360 361 361 362 362 363 360 360 361 362 361 362 365 365 364 363 364 364 364 362 360
353 352 353 354 353 348 346 346 347 349 352 353 352 349 351 351 353 353 358 360 359 359 360 361 362 362 363 363 359 358 360 360 362 363 361 362 361 361 362 361 360 361
352 352 351 351 353 350 346 346 345 346 349 351 352 351 349 347 350 352 354 359 360 360 358 361 362 362 364 364 362 361 360 359 357 359 358 359 358 357 356 357 357 358
357 353 353 352 354 355 352 346 345 345 347 350 352 352 349 346 346 349 353 354 358 359 361 362 363 362 364 365 364 362 359 359 357 357 354 354 353 355 353 352 354 355
357 356 355 352 355 358 356 353 347 347 348 349 352 350 348 348 346 347 351 351 355 358 360 360 360 361 361 363 363 363 361 356 357 355 355 354 354 351 352 353 351 350
357 356 359 358 350 350 358 358 356 351 346 348 349 351 351 352 351 349 350 352 353 357 359 358 358 359 359 352 355 362 361 356 355 356 354 353 356 353 351 351 347 346
355 356 353 354 357 354 350 359 359 357 355 354 352 352 353 357 352 350 346 348 351 352 355 355 355 355 348 339 340 347 359 360 356 357 358 357 355 357 354 351 349 350
358 356 356 354 355 356 355 351 354 362 367 371 354 351 356 357 353 351 351 347 346 350 351 353 354 351 336 336 337 338 349 360 358 355 354 355 355 352 353 352 349 347
355 355 355 354 356 357 359 359 357 355 359 364 360 354 353 353 356 353 353 352 348 351 347 351 354 345 331 333 335 334 336 350 357 355 349 348 350 352 351 352 354 352
354 354 354 355 356 359 362 362 360 361 359 359 360 361 362 356 353 355 356 356 353 352 355 351 352 347 329 328 331 331 333 339 357 354 352 348 347 348 350 351 353 354
347 351 353 354 354 355 356 360 359 359 360 356 353 352 356 363 357 354 357 359 355 353 351 348 344 337 327 325 326 327 330 335 355 354 349 348 348 348 350 351 355 356
344 346 349 352 355 353 351 352 351 352 353 355 355 351 347 348 354 356 356 358 358 355 350 350 346 330 323 323 323 325 328 344 352 355 352 348 345 346 349 353 356 358
344 344 347 349 352 353 351 350 351 353 354 357 357 357 354 351 350 351 356 357 356 357 356 355 353 340 322 319 320 322 328 348 352 353 353 351 348 348 349 352 351 351
344 346 346 347 349 351 352 351 350 352 355 356 356 356 356 352 352 351 351 354 356 357 356 358 358 350 324 316 317 320 332 349 351 353 353 353 352 352 351 351 352 357
342 346 347 347 346 348 351 349 349 351 354 355 355 355 355 355 355 354 354 355 354 356 358 357 357 352 329 316 315 316 328 348 353 354 353 353 353 353 355 354 354 357
338 342 344 345 345 347 353 352 351 352 354 355 355 355 354 356 353 352 352 354 355 355 355 357 357 358 355 318 314 313 318 348 355 354 352 352 354 353 354 355 356 356

ECMWFNIL_sfc_thetae_111.txt.gz
Theta_e
357 357 356 355 357 356 357 357 360 360 360 359 360 358 356 359 360 360 360 363 365 363 364 367 365 364 367 365 367 364 361 359 359 360 360 360 358 357 356 355 355 362
356 359 359 358 358 359 357 358 358 359 360 359 361 361 358 363 360 360 360 362 365 364 365 365 365 365 365 364 364 365 364 364 362 363 359 361 357 355 354 355 353 359
356 358 358 356 356 357 357 357 357 359 360 361 360 360 364 365 361 361 362 361 363 364 364 364 364 364 365 364 362 362 362 361 360 361 359 358 359 358 358 356 355 356
356 357 357 356 356 356 354 355 356 357 357 359 359 361 364 362 362 364 362 367 361 363 365 364 364 365 365 365 364 361 363 362 364 363 362 361 361 358 357 356 358 353
356 356 356 356 355 355 352 352 355 354 354 356 359 360 360 358 360 361 362 363 361 364 364 363 364 362 364 366 365 361 364 363 364 361 359 360 360 361 360 360 356 356
356 356 356 355 354 353 351 351 352 353 353 355 355 359 358 361 359 359 361 361 361 363 363 363 364 363 364 366 363 361 362 363 363 361 360 360 361 361 363 359 356 356
355 355 355 355 354 354 351 350 351 352 351 354 355 354 357 360 357 357 359 359 359 359 360 360 361 361 363 365 362 360 362 362 360 362 361 361 361 361 361 363 363 360
355 355 355 355 353 353 351 350 350 352 351 351 353 353 355 356 357 358 358 358 356 356 355 358 359 359 362 362 363 361 363 363 362 360 360 360 359 358 359 361 359 358
356 356 355 354 353 351 352 351 350 351 352 351 350 352 354 355 356 356 357 357 356 355 355 356 358 359 360 361 362 361 360 360 362 359 360 359 359 359 358 358 358 358
355 356 356 354 352 351 349 349 350 350 353 351 349 350 352 354 355 355 356 356 355 355 354 355 357 358 358 359 360 361 360 359 357 358 358 359 360 360 360 359 358 357
354 356 355 354 352 351 349 348 347 349 350 350 349 347 349 352 354 355 354 355 355 354 355 353 357 356 355 355 358 360 360 359 358 358 357 359 360 359 365 358 357 356
351 351 355 354 353 350 348 348 347 347 348 350 349 347 346 348 352 354 354 354 354 353 356 353 355 355 354 353 355 357 359 358 358 357 358 359 359 359 359 359 357 356
353 353 352 351 351 351 350 346 345 347 347 349 350 348 346 345 348 352 354 354 354 353 355 355 354 355 355 355 354 354 355 356 356 356 355 356 357 357 358 357 356 356
356 355 354 352 353 353 349 347 346 347 343 348 350 348 347 345 346 348 351 354 354 353 353 355 354 354 354 356 356 355 353 353 353 355 355 354 353 354 354 353 353 353
354 357 357 358 358 355 353 351 351 350 348 347 349 349 349 348 345 347 347 351 354 353 353 354 355 355 356 356 356 355 355 353 352 352 352 352 351 351 351 351 350 351
354 354 356 357 358 354 353 352 351 351 352 350 350 347 348 348 347 344 346 347 351 353 353 354 355 356 357 352 353 356 355 355 353 351 351 350 350 348 348 348 349 348
354 354 353 353 355 356 354 353 354 353 351 352 353 348 347 346 347 345 344 346 347 351 352 353 355 356 349 339 340 346 356 354 352 350 350 349 348 348 346 346 347 347
352 353 353 353 353 352 354 354 355 354 352 350 349 348 350 347 346 344 343 344 346 348 351 353 353 353 338 336 337 338 348 356 354 352 351 349 348 347 348 347 345 345
345 347 351 352 353 354 355 355 356 354 350 349 351 350 348 346 345 347 344 343 344 346 348 351 352 345 335 333 334 335 335 349 355 354 351 349 348 347 347 347 347 347
343 345 346 347 352 353 354 355 354 351 353 352 352 350 349 349 347 346 347 346 343 343 346 349 351 345 332 329 330 331 333 339 354 354 352 351 348 347 348 347 346 346
343 343 344 347 348 352 351 351 350 350 352 354 353 352 349 347 347 347 348 351 349 346 342 345 349 340 330 326 325 326 329 335 351 353 353 351 350 346 345 347 346 347
343 343 344 345 347 349 351 350 350 351 352 353 353 354 353 351 350 350 348 348 349 351 348 342 343 332 328 326 323 324 327 340 348 350 351 351 349 347 344 344 345 346
341 343 344 344 345 348 347 350 349 350 351 353 353 353 353 352 351 351 351 350 349 350 350 350 346 338 326 320 321 321 325 340 345 348 350 350 348 346 343 342 344 345
338 342 343 343 342 343 346 348 350 350 350 353 352 351 353 354 353 352 352 352 350 349 350 351 352 340 323 318 314 318 328 339 343 346 347 348 348 348 346 342 343 355
337 339 340 341 342 343 345 347 347 348 350 351 352 352 351 352 353 352 352 352 352 352 357 356 348 344 331 328 319 313 322 335 342 344 345 346 347 347 347 347 344 350
337 339 338 338 338 343 347 349 351 350 349 350 351 352 351 352 352 352 351 351 352 351 352 350 350 350 347 326 324 315 314 333 338 341 343 344 345 346 346 347 347 346

ECMWFNIL_sfc_thetae_114.txt.gz
Theta_e
351 352 349 353 352 355 355 355 354 354 356 356 355 355 355 356 359 357 357 358 360 359 357 357 359 359 361 359 361 359 358 355 354 356 354 355 354 355 354 352 352 352
353 353 355 354 354 357 357 357 356 355 356 357 356 357 356 358 358 358 357 357 360 362 358 360 361 359 359 360 360 359 356 356 354 362 355 354 355 354 353 352 351 351
353 354 355 352 353 354 357 357 358 356 357 358 358 359 357 358 358 358 357 358 359 362 360 362 361 361 362 360 359 360 358 356 356 358 356 355 356 355 354 355 354 353
353 355 355 354 354 353 355 355 356 357 358 358 357 360 359 359 360 358 357 364 359 361 361 362 362 362 361 361 359 358 359 358 358 357 357 356 357 356 355 354 356 356
353 354 354 354 355 355 354 354 354 356 357 359 358 359 360 359 359 358 358 359 359 360 361 362 360 360 361 361 359 357 358 358 358 358 355 354 356 357 357 356 355 354
354 354 355 354 354 354 353 353 353 354 355 356 358 359 359 359 358 359 359 358 358 360 361 361 360 360 361 361 360 359 358 360 360 358 356 355 356 358 360 357 354 354
353 354 354 354 353 353 351 351 352 354 353 354 355 357 358 357 357 359 359 359 358 360 361 360 360 359 360 361 361 359 358 359 358 358 357 355 357 357 358 356 356 355
353 354 354 353 353 352 352 350 350 352 352 352 352 353 356 357 357 358 359 359 358 358 359 360 360 360 360 361 361 358 357 361 360 358 357 356 354 355 356 358 356 353
353 353 353 353 353 352 352 351 350 350 351 351 352 352 354 357 356 356 357 358 357 357 357 358 359 359 360 359 360 359 357 359 360 358 357 356 356 356 357 356 355 354
351 353 353 353 352 352 351 352 351 349 351 350 351 352 352 353 356 356 356 356 356 355 354 355 356 358 358 359 359 360 358 358 358 358 357 357 357 357 357 357 355 354
350 352 352 352 352 352 351 351 351 349 349 350 349 350 351 352 353 355 355 355 355 354 353 352 354 356 356 357 359 360 359 359 358 356 356 356 356 356 362 357 356 355
348 347 348 350 351 352 352 350 350 349 348 350 349 348 349 351 351 352 354 354 354 354 353 353 352 354 355 356 357 358 359 358 358 357 356 355 355 356 357 359 357 356
350 349 347 345 345 347 349 348 345 345 347 348 350 348 347 348 350 351 353 353 354 354 353 353 352 353 354 354 354 356 357 357 356 355 355 355 356 356 357 357 358 357
349 351 350 348 351 349 347 348 347 346 348 346 348 348 347 346 347 350 351 352 352 353 353 354 352 352 353 353 352 352 354 355 355 355 354 353 354 355 356 357 357 357
350 351 352 351 352 350 348 349 349 347 347 348 350 348 348 346 346 348 350 351 351 352 352 353 353 352 353 353 352 351 351 351 352 353 353 353 352 352 353 354 354 355
350 352 351 352 352 350 349 349 347 349 350 349 351 350 348 348 345 344 347 350 350 351 351 351 352 353 355 350 352 354 352 352 351 351 351 351 351 350 350 350 351 351
352 351 351 350 349 349 350 350 350 351 351 350 350 348 347 348 347 344 342 345 349 350 350 351 351 353 347 338 339 345 354 352 351 350 350 349 349 349 348 349 349 348
347 350 351 350 351 351 352 352 352 351 349 349 348 348 347 349 345 344 343 342 344 347 350 351 351 350 337 334 336 336 346 353 351 351 351 349 348 348 348 348 347 347
344 345 346 347 350 350 350 352 352 351 349 349 350 350 349 346 345 345 345 343 342 342 345 350 351 343 334 333 333 333 334 347 352 351 350 350 349 348 347 346 346 346
342 343 344 345 348 350 349 350 351 348 351 352 353 350 348 347 347 346 345 345 345 342 343 345 348 345 332 330 330 330 331 336 351 352 351 351 350 349 348 346 345 345
341 342 342 343 345 348 348 348 347 346 348 349 351 351 350 348 347 346 346 348 347 347 344 343 346 339 330 327 326 326 329 333 348 352 352 351 351 351 349 348 347 346
341 342 342 342 342 344 345 346 345 346 347 349 351 351 352 352 351 350 349 348 348 347 348 346 345 333 328 325 324 324 326 339 344 348 350 351 351 351 350 349 348 347
337 338 341 342 341 341 341 343 344 346 347 349 349 350 350 351 351 352 351 350 350 349 347 347 349 337 326 320 320 321 325 339 342 345 348 349 350 350 350 350 349 347
335 337 337 337 337 339 341 343 345 345 346 349 348 349 349 350 351 352 352 352 350 350 349 348 349 339 323 322 316 317 327 337 340 342 344 346 347 349 350 349 349 356
331 334 335 335 335 336 343 344 344 345 348 348 348 349 349 349 351 350 351 351 351 351 355 354 351 345 325 323 320 315 322 332 337 339 341 342 344 346 348 349 348 353
330 332 333 333 333 335 343 343 344 342 343 345 347 348 348 349 351 351 350 351 352 352 352 351 351 350 347 326 317 313 317 335 335 336 338 340 342 343 344 346 347 347

ECMWFNIL_sfc_thetae_117.txt.gz
Theta_e
348 351 349 350 349 350 350 350 352 352 352 352 352 353 353 355 357 357 358 358 358 357 356 355 356 355 358 356 357 355 356 353 352 352 351 352 351 352 353 351 350 348
349 351 353 351 351 354 352 352 353 353 352 353 353 353 354 355 356 356 355 356 358 358 356 356 356 356 355 356 357 356 353 352 352 358 352 351 350 351 352 351 350 350
350 350 351 350 350 352 353 354 354 353 353 355 355 354 355 357 355 355 355 355 355 357 357 356 356 357 357 357 356 357 355 352 352 353 354 351 351 350 351 353 352 352
349 350 351 351 351 352 354 354 353 354 354 355 355 357 357 357 356 355 354 361 355 356 358 358 358 358 358 358 357 356 357 354 354 352 353 353 353 352 352 351 354 353
349 350 351 351 352 352 353 353 354 354 354 355 356 356 358 355 356 356 355 355 355 355 357 359 358 358 359 358 357 355 355 355 355 354 353 352 352 353 354 352 351 351
350 350 351 352 351 351 352 353 353 355 355 355 355 357 357 357 355 356 356 355 356 356 357 358 358 358 359 358 357 356 355 356 356 355 353 351 352 353 357 354 350 350
350 350 351 352 352 352 351 352 353 355 355 356 356 356 357 357 356 356 356 356 355 356 356 357 357 357 357 357 356 355 355 354 353 354 354 354 353 354 355 354 352 351
351 351 352 352 352 351 352 351 351 352 353 353 354 355 356 356 356 357 357 356 355 355 356 357 357 356 357 357 357 355 355 357 356 354 353 354 351 352 353 355 353 350
352 351 352 352 352 351 351 351 350 350 352 351 351 352 355 356 356 356 357 357 356 355 355 356 357 357 357 357 357 356 356 356 358 356 355 355 354 353 353 353 352 352
351 351 352 352 351 351 351 351 350 349 351 351 351 351 351 353 356 356 356 356 356 355 354 355 356 357 357 357 357 357 357 356 356 356 356 356 355 355 355 354 354 352
350 351 351 351 351 352 351 351 351 350 349 350 349 349 350 350 353 355 354 354 355 355 354 354 355 356 356 357 357 357 358 357 356 356 356 356 356 355 360 355 354 354
346 347 349 350 351 351 352 351 351 350 348 349 349 348 349 349 350 352 354 353 354 355 354 354 354 355 355 356 357 357 357 357 357 356 356 356 356 355 355 355 355 354
345 348 346 346 348 348 348 348 349 350 350 348 349 348 347 348 349 350 353 353 353 354 354 354 353 353 353 354 355 356 356 356 357 356 356 355 355 355 355 355 355 355
345 347 346 346 346 345 345 346 346 345 344 346 348 348 347 347 347 349 350 352 353 353 354 354 353 352 351 352 353 354 355 355 356 356 355 355 354 354 355 355 355 355
346 347 347 348 350 348 346 345 346 346 345 346 346 346 348 347 347 347 348 349 351 352 353 353 353 352 352 352 351 351 352 353 354 354 354 354 353 353 353 354 354 355
347 349 349 349 348 347 346 346 346 346 346 346 347 348 346 346 345 345 346 347 348 349 351 352 352 353 355 348 350 353 351 352 352 352 353 353 352 351 351 351 352 353
349 350 349 348 348 347 347 347 346 347 347 347 346 346 345 345 347 343 343 344 346 347 348 349 351 353 346 337 337 342 353 350 350 350 351 351 351 350 349 350 350 350
346 348 349 348 347 347 347 347 348 348 348 348 347 346 345 347 345 344 343 342 343 345 347 349 350 349 336 334 335 335 344 352 350 350 349 349 349 349 349 349 349 349
344 345 345 346 348 350 350 351 349 348 346 346 347 348 349 344 343 343 342 342 342 341 343 346 349 342 334 332 332 332 332 344 351 350 349 349 348 348 348 347 347 347
343 343 343 343 344 345 347 348 349 348 349 349 350 350 347 346 347 344 343 342 343 342 341 342 344 344 332 329 328 328 330 333 346 349 349 349 349 349 349 348 347 346
340 341 341 342 343 343 344 344 345 345 347 349 350 350 349 348 348 346 345 347 346 346 345 344 344 338 330 327 325 325 327 331 341 346 348 349 349 349 348 348 348 348
337 338 339 340 341 342 343 343 343 344 344 347 348 348 349 350 350 350 348 347 347 347 346 345 347 333 328 325 322 322 325 336 340 342 345 347 348 349 349 349 349 348
334 335 337 337 338 339 341 342 342 343 344 347 347 347 347 346 346 349 350 349 349 349 347 345 347 339 326 323 319 319 323 335 339 341 343 344 346 348 349 349 349 349
332 332 333 335 335 335 339 342 342 342 343 347 346 346 346 347 347 347 348 350 349 349 349 348 348 343 325 322 320 316 326 335 338 340 342 343 345 347 348 349 350 356
330 331 330 330 331 332 338 341 338 339 342 343 344 346 347 347 349 348 349 349 351 351 354 352 350 347 329 320 320 320 324 333 336 338 339 341 343 344 345 347 347 352
329 330 330 329 328 330 336 339 339 337 337 339 342 344 346 347 347 347 346 347 349 350 352 351 350 350 347 328 319 317 318 335 335 335 336 338 339 341 342 343 345 345

ECMWFNIL_sfc_thetae_120.txt.gz
Theta_e
350 351 351 351 350 351 351 352 353 353 354 355 355 356 357 359 360 361 361 362 362 361 360 360 362 362 362 361 363 361 362 359 360 357 358 358 357 356 356 356 355 358
350 352 354 352 353 355 353 353 354 354 354 355 356 357 357 359 359 360 360 360 362 361 360 360 360 361 361 361 361 361 360 360 359 361 358 358 357 356 357 357 356 356
350 351 353 351 351 353 353 354 355 355 355 355 356 357 357 359 358 359 360 360 360 361 360 360 360 361 361 361 361 362 360 358 358 358 361 358 357 357 358 357 357 357
350 351 352 352 352 353 354 354 355 356 356 356 356 357 357 359 359 358 358 362 359 359 360 360 360 361 361 361 361 361 361 360 359 359 359 360 360 359 358 358 359 359
350 351 352 353 353 354 355 354 354 355 355 356 357 358 359 359 359 358 358 359 359 358 359 361 361 361 362 361 361 360 361 361 360 360 359 358 360 360 360 359 358 357
350 352 353 353 353 353 354 354 355 355 355 355 357 359 359 358 358 358 358 357 357 358 358 360 361 361 361 362 361 361 361 361 361 361 360 359 360 360 360 361 359 358
349 350 351 353 353 353 353 354 355 357 356 357 358 358 359 359 358 358 359 358 358 359 358 360 361 362 362 362 362 361 360 360 360 361 361 360 360 360 359 361 361 359
350 350 352 353 353 353 353 353 354 356 357 357 357 358 359 358 359 358 359 359 358 358 359 359 361 361 360 361 361 360 360 359 359 359 359 360 359 359 360 359 360 359
351 351 351 352 352 352 352 353 353 354 356 356 356 357 359 359 359 359 360 359 359 359 359 359 360 360 360 360 360 360 360 360 360 360 359 359 358 359 359 359 358 358
351 352 352 352 352 352 352 353 353 353 355 354 354 355 355 358 359 360 360 360 359 359 358 359 359 360 360 360 360 360 360 360 360 360 360 359 359 359 359 359 358 358
351 352 352 352 352 352 352 353 353 352 353 353 353 353 354 354 357 359 359 359 358 359 359 358 359 359 360 360 360 361 360 360 361 360 360 360 360 360 361 360 359 358
351 351 351 352 352 352 353 353 353 352 352 353 353 353 353 353 353 355 357 357 358 359 359 360 359 359 360 360 360 360 360 360 361 361 360 360 360 360 360 360 360 360
349 349 350 351 352 353 353 353 353 353 352 351 352 352 352 351 351 352 355 357 357 358 358 359 359 359 359 360 360 360 360 360 360 360 360 359 360 359 360 360 359 359
348 349 349 348 350 350 351 352 352 351 352 353 353 352 351 351 351 351 352 355 356 357 358 359 359 358 358 359 359 359 359 359 360 360 359 359 359 360 359 359 359 359
348 348 349 349 350 350 349 348 349 349 349 349 350 351 350 351 351 351 351 352 354 356 357 357 357 357 357 357 357 358 358 358 358 359 359 359 359 359 359 359 359 359
347 348 349 349 349 349 349 349 349 349 349 349 349 349 349 351 351 351 350 350 351 353 355 355 356 356 356 350 351 357 357 356 357 358 358 358 358 358 357 357 357 358
349 349 350 349 349 349 349 349 349 349 350 350 350 350 349 350 351 349 348 348 349 350 351 352 354 355 348 338 338 342 355 356 355 356 356 357 356 356 356 356 356 357
346 348 348 349 350 349 350 350 351 351 351 351 350 350 351 351 349 348 348 347 346 347 348 350 352 350 337 335 335 334 343 355 355 354 354 354 355 355 355 355 355 355
343 343 344 345 346 348 350 351 350 349 349 349 350 352 352 351 350 349 349 348 347 346 345 347 350 343 333 331 332 332 332 343 354 355 353 353 353 354 354 354 354 355
341 341 341 343 345 346 347 346 346 345 347 349 350 351 350 350 351 351 350 349 349 349 348 347 347 343 333 328 327 328 329 334 349 352 353 353 353 353 352 353 353 353
337 338 340 342 343 343 343 344 345 346 346 347 348 348 347 348 349 350 351 353 352 351 350 349 349 340 330 325 323 321 324 331 343 347 350 352 353 353 353 354 354 354
334 335 337 339 341 341 339 339 342 344 345 347 348 347 347 348 348 348 348 349 351 351 351 351 352 336 329 324 321 320 322 335 341 344 346 348 350 352 353 354 354 354
332 333 334 335 337 338 340 339 340 341 344 347 346 346 346 347 347 347 348 348 350 350 349 350 351 343 329 322 319 318 326 339 341 343 344 345 347 349 351 353 354 354
331 330 330 332 332 334 338 338 338 340 341 345 345 344 345 346 348 348 349 349 350 350 350 350 351 345 326 322 318 319 327 340 342 342 343 345 346 348 350 352 353 355
329 330 328 328 329 332 336 336 336 339 342 344 345 345 344 344 345 344 345 346 347 348 346 347 349 344 326 319 319 317 329 339 340 341 342 343 344 346 348 350 351 353
326 328 329 328 328 330 334 336 338 339 340 341 343 342 340 340 341 340 340 342 345 345 343 344 345 345 340 320 315 316 319 336 340 340 341 342 342 343 344 346 347 349